GFSSE_prec_precacc_018.txt.gz
Total_Precipitation_Accumulation
0.04 0.00 0.01 0.07 0.09 0.11 0.06 0.03 0.02 0.06 0.09 0.05 0.04 0.04 0.01 0.00 0.02 0.02 0.01 0.02 0.01 0.00 0.00 0.00 0.00 0.01 0.03 0.00 0.00 0.00 0.02 0.04 0.01 0.00 0.05 0.03 0.07 0.10 0.17 0.28 0.16 0.30 0.24
0.00 0.00 0.00 0.01 0.05 0.12 0.14 0.08 0.04 0.06 0.07 0.04 0.03 0.02 0.01 0.00 0.01 0.01 0.00 0.01 0.01 0.01 0.00 0.00 0.00 0.00 0.03 0.01 0.00 0.00 0.00 0.04 0.05 0.02 0.03 0.02 0.07 0.14 0.17 0.20 0.16 0.32 0.35
0.00 0.00 0.00 0.00 0.01 0.06 0.11 0.11 0.05 0.02 0.01 0.01 0.01 0.00 0.00 0.00 0.00 0.00 0.00 0.00 0.01 0.00 0.00 0.00 0.00 0.00 0.01 0.01 0.00 0.00 0.00 0.01 0.03 0.06 0.06 0.02 0.07 0.26 0.25 0.17 0.12 0.13 0.17
0.00 0.00 0.00 0.00 0.00 0.01 0.03 0.01 0.01 0.02 0.00 0.00 0.00 0.00 0.00 0.00 0.00 0.00 0.00 0.00 0.00 0.00 0.00 0.00 0.00 0.00 0.00 0.00 0.01 0.00 0.01 0.02 0.05 0.06 0.07 0.07 0.12 0.30 0.34 0.18 0.16 0.16 0.19
0.00 0.00 0.00 0.00 0.00 0.00 0.00 0.01 0.02 0.03 0.01 0.01 0.01 0.01 0.01 0.00 0.00 0.00 0.00 0.00 0.00 0.00 0.00 0.00 0.00 0.00 0.00 0.00 0.00 0.00 0.00 0.02 0.02 0.02 0.10 0.16 0.44 0.67 0.29 0.23 0.15 0.11 0.11
0.00 0.00 0.00 0.00 0.00 0.00 0.00 0.00 0.00 0.00 0.00 0.00 0.00 0.00 0.00 0.00 0.00 0.00 0.00 0.00 0.00 0.00 0.00 0.00 0.00 0.00 0.00 0.00 0.00 0.00 0.00 0.00 0.02 0.00 0.06 0.38 0.42 0.85 1.01 0.30 0.19 0.20 0.13
0.00 0.00 0.00 0.00 0.00 0.00 0.00 0.00 0.00 0.00 0.00 0.00 0.00 0.00 0.00 0.00 0.00 0.00 0.00 0.00 0.00 0.00 0.00 0.00 0.00 0.00 0.00 0.00 0.00 0.00 0.00 0.01 0.01 0.00 0.15 0.52 1.16 0.85 1.12 0.88 0.22 0.21 0.18
0.00 0.00 0.00 0.00 0.00 0.00 0.00 0.00 0.00 0.00 0.00 0.00 0.00 0.00 0.00 0.00 0.00 0.00 0.00 0.00 0.00 0.00 0.00 0.00 0.00 0.00 0.00 0.00 0.00 0.00 0.00 0.00 0.00 0.03 0.09 0.38 0.86 0.51 0.35 0.36 0.18 0.12 0.08
0.00 0.00 0.00 0.00 0.00 0.00 0.00 0.00 0.00 0.00 0.00 0.00 0.00 0.00 0.00 0.00 0.00 0.00 0.00 0.00 0.00 0.00 0.00 0.00 0.00 0.00 0.00 0.00 0.00 0.00 0.00 0.00 0.00 0.01 0.02 0.05 0.05 0.14 0.25 0.23 0.18 0.12 0.09
0.00 0.00 0.00 0.00 0.00 0.00 0.00 0.00 0.00 0.00 0.00 0.00 0.00 0.00 0.00 0.00 0.00 0.00 0.00 0.00 0.00 0.00 0.00 0.00 0.00 0.00 0.00 0.00 0.00 0.00 0.00 0.00 0.00 0.00 0.00 0.00 0.01 0.04 0.24 0.25 0.16 0.16 0.15
0.00 0.00 0.00 0.00 0.00 0.00 0.00 0.00 0.00 0.00 0.00 0.00 0.00 0.00 0.00 0.00 0.00 0.00 0.00 0.00 0.00 0.00 0.00 0.00 0.00 0.00 0.00 0.00 0.00 0.00 0.00 0.00 0.00 0.00 0.00 0.00 0.01 0.01 0.03 0.16 0.17 0.11 0.16
0.00 0.00 0.00 0.00 0.00 0.00 0.00 0.00 0.00 0.00 0.00 0.00 0.00 0.00 0.00 0.00 0.00 0.00 0.00 0.00 0.00 0.00 0.00 0.00 0.00 0.00 0.00 0.00 0.00 0.00 0.00 0.00 0.00 0.00 0.00 0.00 0.00 0.00 0.00 0.00 0.03 0.11 0.20
0.00 0.00 0.00 0.00 0.00 0.00 0.00 0.00 0.00 0.00 0.00 0.00 0.00 0.00 0.00 0.00 0.00 0.00 0.00 0.00 0.00 0.00 0.00 0.00 0.00 0.00 0.00 0.00 0.00 0.00 0.00 0.00 0.00 0.00 0.00 0.00 0.00 0.00 0.00 0.00 0.00 0.01 0.07
0.00 0.00 0.00 0.00 0.00 0.00 0.00 0.00 0.00 0.00 0.00 0.00 0.00 0.00 0.00 0.00 0.00 0.00 0.00 0.00 0.00 0.00 0.00 0.00 0.00 0.00 0.00 0.00 0.00 0.00 0.00 0.00 0.00 0.00 0.00 0.00 0.00 0.00 0.00 0.00 0.00 0.00 0.02
0.00 0.00 0.00 0.00 0.00 0.00 0.00 0.00 0.00 0.00 0.00 0.00 0.00 0.00 0.00 0.00 0.00 0.00 0.00 0.00 0.00 0.00 0.00 0.00 0.00 0.00 0.00 0.00 0.00 0.00 0.00 0.00 0.00 0.00 0.00 0.00 0.00 0.00 0.00 0.00 0.00 0.00 0.00
0.00 0.00 0.02 0.04 0.03 0.00 0.00 0.00 0.00 0.00 0.00 0.00 0.00 0.00 0.00 0.00 0.00 0.00 0.00 0.00 0.00 0.00 0.00 0.00 0.00 0.00 0.00 0.00 0.00 0.00 0.00 0.00 0.00 0.00 0.00 0.00 0.00 0.00 0.00 0.00 0.00 0.00 0.00
0.00 0.00 0.10 0.43 0.09 0.04 0.00 0.00 0.00 0.00 0.00 0.00 0.00 0.00 0.00 0.00 0.00 0.00 0.00 0.00 0.00 0.00 0.00 0.00 0.00 0.00 0.00 0.00 0.00 0.00 0.00 0.00 0.00 0.00 0.00 0.00 0.00 0.00 0.00 0.00 0.00 0.00 0.00
0.01 0.02 0.28 0.41 0.21 0.06 0.03 0.01 0.00 0.00 0.00 0.00 0.00 0.00 0.00 0.00 0.00 0.00 0.00 0.00 0.00 0.00 0.00 0.00 0.00 0.00 0.00 0.00 0.00 0.00 0.00 0.00 0.00 0.00 0.00 0.00 0.00 0.00 0.00 0.00 0.00 0.00 0.00
0.00 0.02 0.12 0.16 0.13 0.06 0.02 0.00 0.00 0.00 0.00 0.00 0.00 0.00 0.00 0.00 0.00 0.00 0.00 0.00 0.00 0.00 0.00 0.00 0.00 0.00 0.00 0.00 0.00 0.00 0.00 0.00 0.00 0.00 0.00 0.00 0.00 0.00 0.00 0.00 0.00 0.00 0.00
0.01 0.05 0.11 0.15 0.16 0.01 0.00 0.00 0.01 0.00 0.00 0.00 0.00 0.00 0.00 0.00 0.00 0.00 0.00 0.00 0.00 0.00 0.00 0.00 0.00 0.00 0.00 0.00 0.00 0.00 0.00 0.00 0.00 0.00 0.00 0.00 0.00 0.00 0.00 0.00 0.00 0.00 0.00
0.02 0.03 0.09 0.22 0.08 0.00 0.00 0.00 0.01 0.00 0.00 0.00 0.00 0.00 0.00 0.00 0.00 0.00 0.00 0.00 0.00 0.00 0.00 0.00 0.00 0.00 0.00 0.00 0.00 0.00 0.00 0.00 0.00 0.00 0.00 0.00 0.00 0.00 0.00 0.00 0.00 0.00 0.00
0.05 0.09 0.09 0.03 0.00 0.00 0.00 0.00 0.01 0.00 0.00 0.00 0.00 0.00 0.00 0.00 0.00 0.00 0.00 0.00 0.00 0.00 0.00 0.00 0.00 0.00 0.00 0.00 0.00 0.00 0.00 0.00 0.00 0.00 0.00 0.00 0.00 0.00 0.00 0.00 0.00 0.00 0.00
0.01 0.00 0.00 0.00 0.00 0.00 0.00 0.00 0.00 0.00 0.00 0.00 0.00 0.00 0.00 0.00 0.00 0.00 0.00 0.00 0.00 0.00 0.00 0.00 0.00 0.00 0.00 0.00 0.00 0.00 0.00 0.00 0.00 0.00 0.00 0.00 0.02 0.01 0.01 0.01 0.01 0.01 0.00
0.00 0.00 0.00 0.00 0.00 0.00 0.00 0.00 0.00 0.00 0.00 0.00 0.00 0.00 0.00 0.00 0.00 0.00 0.00 0.00 0.00 0.00 0.00 0.00 0.00 0.00 0.00 0.00 0.00 0.00 0.00 0.01 0.02 0.02 0.00 0.00 0.00 0.01 0.02 0.01 0.03 0.04 0.05
0.00 0.00 0.00 0.00 0.00 0.00 0.00 0.00 0.00 0.00 0.00 0.00 0.00 0.00 0.00 0.00 0.00 0.00 0.00 0.00 0.00 0.00 0.00 0.00 0.00 0.00 0.00 0.00 0.00 0.00 0.00 0.00 0.01 0.03 0.01 0.01 0.01 0.02 0.02 0.03 0.05 0.08 0.13
0.00 0.00 0.00 0.00 0.00 0.00 0.00 0.00 0.00 0.00 0.00 0.00 0.00 0.00 0.00 0.00 0.00 0.00 0.00 0.00 0.00 0.00 0.00 0.00 0.00 0.00 0.00 0.00 0.00 0.00 0.00 0.00 0.01 0.02 0.01 0.01 0.02 0.03 0.05 0.12 0.20 0.15 0.15

GFSSE_prec_precacc_024.txt.gz
Total_Precipitation_Accumulation
0.04 0.00 0.02 0.07 0.09 0.11 0.06 0.03 0.02 0.06 0.09 0.05 0.04 0.04 0.01 0.00 0.02 0.02 0.01 0.02 0.01 0.00 0.00 0.00 0.00 0.01 0.03 0.00 0.00 0.00 0.02 0.04 0.01 0.00 0.05 0.03 0.07 0.10 0.17 0.28 0.16 0.30 0.25
0.00 0.00 0.00 0.01 0.05 0.12 0.14 0.08 0.04 0.06 0.07 0.04 0.03 0.02 0.01 0.00 0.01 0.01 0.00 0.01 0.01 0.01 0.00 0.00 0.00 0.00 0.03 0.01 0.00 0.00 0.00 0.04 0.05 0.02 0.03 0.02 0.07 0.14 0.17 0.20 0.16 0.32 0.35
0.00 0.00 0.00 0.00 0.01 0.06 0.11 0.11 0.06 0.02 0.01 0.01 0.01 0.00 0.00 0.00 0.00 0.00 0.00 0.00 0.01 0.00 0.00 0.00 0.00 0.00 0.01 0.01 0.00 0.00 0.00 0.01 0.03 0.06 0.06 0.02 0.07 0.26 0.25 0.17 0.12 0.13 0.17
0.00 0.00 0.00 0.00 0.00 0.01 0.03 0.01 0.01 0.02 0.00 0.00 0.00 0.00 0.00 0.00 0.00 0.00 0.00 0.00 0.00 0.00 0.00 0.00 0.00 0.00 0.00 0.00 0.01 0.00 0.01 0.02 0.05 0.06 0.07 0.07 0.12 0.30 0.34 0.18 0.16 0.17 0.22
0.00 0.00 0.00 0.00 0.00 0.00 0.00 0.01 0.02 0.03 0.02 0.01 0.01 0.01 0.01 0.00 0.00 0.00 0.00 0.00 0.00 0.00 0.00 0.00 0.00 0.00 0.00 0.00 0.00 0.00 0.00 0.02 0.02 0.02 0.10 0.16 0.44 0.67 0.30 0.23 0.15 0.13 0.19
0.00 0.00 0.00 0.00 0.00 0.00 0.00 0.00 0.00 0.00 0.00 0.00 0.00 0.00 0.00 0.00 0.00 0.00 0.00 0.00 0.00 0.00 0.00 0.00 0.00 0.00 0.00 0.00 0.00 0.00 0.00 0.00 0.02 0.00 0.06 0.38 0.42 0.86 1.03 0.30 0.19 0.21 0.16
0.00 0.00 0.00 0.00 0.00 0.00 0.00 0.00 0.00 0.00 0.00 0.00 0.00 0.00 0.00 0.00 0.00 0.00 0.00 0.00 0.00 0.00 0.00 0.00 0.00 0.00 0.00 0.00 0.00 0.00 0.00 0.01 0.01 0.00 0.15 0.52 1.16 0.85 1.12 0.88 0.22 0.21 0.19
0.01 0.00 0.00 0.00 0.00 0.00 0.00 0.00 0.00 0.00 0.00 0.00 0.00 0.00 0.00 0.00 0.00 0.00 0.00 0.00 0.00 0.00 0.00 0.00 0.00 0.00 0.00 0.00 0.00 0.00 0.00 0.00 0.00 0.03 0.09 0.38 0.86 0.51 0.35 0.37 0.19 0.13 0.09
0.05 0.00 0.00 0.00 0.00 0.00 0.00 0.00 0.00 0.00 0.00 0.00 0.00 0.00 0.00 0.00 0.00 0.00 0.00 0.00 0.00 0.00 0.00 0.00 0.00 0.00 0.00 0.00 0.00 0.00 0.00 0.00 0.00 0.01 0.02 0.05 0.06 0.16 0.28 0.26 0.22 0.15 0.12
0.00 0.00 0.00 0.00 0.00 0.00 0.00 0.00 0.00 0.00 0.00 0.00 0.00 0.00 0.00 0.00 0.00 0.00 0.00 0.00 0.00 0.00 0.00 0.00 0.00 0.00 0.00 0.00 0.00 0.00 0.00 0.00 0.00 0.00 0.00 0.00 0.04 0.12 0.29 0.29 0.19 0.18 0.17
0.00 0.00 0.00 0.00 0.00 0.00 0.00 0.00 0.00 0.00 0.00 0.00 0.00 0.00 0.00 0.00 0.00 0.00 0.00 0.00 0.00 0.00 0.00 0.00 0.00 0.00 0.00 0.00 0.00 0.00 0.00 0.00 0.00 0.00 0.00 0.00 0.02 0.06 0.09 0.20 0.19 0.12 0.17
0.00 0.00 0.00 0.00 0.00 0.00 0.00 0.00 0.00 0.00 0.00 0.00 0.00 0.00 0.00 0.00 0.00 0.00 0.00 0.00 0.00 0.00 0.00 0.00 0.00 0.00 0.00 0.00 0.00 0.00 0.00 0.00 0.00 0.00 0.00 0.00 0.00 0.00 0.00 0.01 0.04 0.12 0.20
0.00 0.00 0.00 0.00 0.00 0.00 0.00 0.00 0.00 0.00 0.00 0.00 0.00 0.00 0.00 0.00 0.00 0.00 0.00 0.00 0.00 0.00 0.00 0.00 0.00 0.00 0.00 0.00 0.00 0.00 0.00 0.00 0.00 0.00 0.00 0.00 0.00 0.00 0.00 0.00 0.00 0.01 0.07
0.00 0.00 0.00 0.00 0.00 0.00 0.00 0.00 0.00 0.00 0.00 0.00 0.00 0.00 0.00 0.00 0.00 0.00 0.00 0.00 0.00 0.00 0.00 0.00 0.00 0.00 0.00 0.00 0.00 0.00 0.00 0.00 0.00 0.00 0.00 0.00 0.00 0.00 0.00 0.00 0.00 0.00 0.02
0.00 0.00 0.00 0.00 0.00 0.00 0.00 0.00 0.00 0.00 0.00 0.00 0.00 0.00 0.00 0.00 0.00 0.00 0.00 0.00 0.00 0.00 0.00 0.00 0.00 0.00 0.00 0.00 0.00 0.00 0.00 0.00 0.00 0.00 0.00 0.00 0.00 0.00 0.00 0.00 0.00 0.00 0.00
0.00 0.00 0.03 0.05 0.03 0.00 0.00 0.00 0.00 0.00 0.00 0.00 0.00 0.00 0.00 0.00 0.00 0.00 0.00 0.00 0.00 0.00 0.00 0.00 0.00 0.00 0.00 0.00 0.00 0.00 0.00 0.00 0.00 0.00 0.00 0.00 0.00 0.00 0.00 0.00 0.00 0.00 0.00
0.00 0.00 0.11 0.50 0.12 0.04 0.00 0.01 0.02 0.00 0.00 0.00 0.00 0.00 0.00 0.00 0.00 0.00 0.00 0.00 0.00 0.00 0.00 0.00 0.00 0.00 0.00 0.00 0.00 0.00 0.00 0.00 0.00 0.00 0.00 0.00 0.00 0.00 0.00 0.00 0.00 0.00 0.00
0.01 0.04 0.41 0.65 0.34 0.08 0.05 0.05 0.02 0.02 0.00 0.00 0.00 0.00 0.00 0.00 0.00 0.00 0.00 0.00 0.00 0.00 0.00 0.00 0.00 0.00 0.00 0.00 0.00 0.00 0.00 0.00 0.00 0.00 0.00 0.00 0.00 0.00 0.00 0.00 0.00 0.00 0.00
0.01 0.13 0.38 0.46 0.28 0.20 0.20 0.12 0.01 0.00 0.00 0.00 0.00 0.00 0.00 0.00 0.00 0.00 0.00 0.00 0.00 0.00 0.00 0.00 0.00 0.00 0.00 0.00 0.00 0.00 0.00 0.00 0.00 0.00 0.00 0.00 0.00 0.00 0.00 0.00 0.00 0.00 0.00
0.03 0.30 0.47 0.48 0.49 0.38 0.08 0.02 0.02 0.01 0.00 0.00 0.00 0.00 0.00 0.00 0.00 0.00 0.00 0.00 0.00 0.00 0.00 0.00 0.00 0.00 0.00 0.00 0.00 0.00 0.00 0.00 0.00 0.00 0.00 0.00 0.00 0.00 0.00 0.00 0.00 0.00 0.00
0.13 0.35 0.50 0.60 0.33 0.04 0.03 0.03 0.02 0.01 0.01 0.02 0.01 0.00 0.00 0.00 0.00 0.00 0.00 0.00 0.00 0.00 0.00 0.00 0.00 0.00 0.00 0.00 0.00 0.00 0.00 0.00 0.00 0.00 0.00 0.00 0.00 0.00 0.00 0.00 0.00 0.00 0.00
0.37 0.35 0.23 0.06 0.01 0.00 0.01 0.02 0.03 0.02 0.01 0.00 0.00 0.00 0.00 0.00 0.00 0.00 0.00 0.00 0.00 0.00 0.00 0.00 0.00 0.00 0.00 0.00 0.00 0.00 0.00 0.00 0.00 0.00 0.00 0.00 0.00 0.00 0.00 0.00 0.00 0.00 0.00
0.04 0.00 0.00 0.00 0.00 0.00 0.01 0.01 0.00 0.00 0.00 0.00 0.00 0.00 0.00 0.00 0.00 0.00 0.00 0.00 0.00 0.00 0.00 0.00 0.00 0.00 0.00 0.00 0.00 0.00 0.00 0.00 0.00 0.00 0.00 0.00 0.02 0.01 0.01 0.01 0.01 0.01 0.00
0.00 0.00 0.00 0.00 0.00 0.00 0.00 0.00 0.00 0.00 0.00 0.00 0.00 0.00 0.00 0.00 0.00 0.00 0.00 0.00 0.00 0.00 0.00 0.00 0.00 0.00 0.00 0.00 0.00 0.00 0.00 0.01 0.02 0.02 0.00 0.00 0.00 0.01 0.02 0.01 0.03 0.04 0.05
0.00 0.00 0.00 0.00 0.00 0.00 0.00 0.00 0.00 0.00 0.00 0.00 0.00 0.00 0.00 0.00 0.00 0.00 0.00 0.00 0.00 0.00 0.00 0.00 0.00 0.00 0.00 0.00 0.00 0.00 0.00 0.00 0.01 0.04 0.02 0.01 0.01 0.02 0.02 0.03 0.05 0.08 0.13
0.00 0.00 0.00 0.00 0.00 0.00 0.00 0.00 0.00 0.00 0.00 0.00 0.00 0.00 0.00 0.00 0.01 0.00 0.00 0.00 0.00 0.00 0.00 0.00 0.00 0.00 0.00 0.00 0.00 0.00 0.00 0.01 0.02 0.04 0.03 0.01 0.03 0.04 0.05 0.12 0.20 0.15 0.15

GFSSE_prec_precacc_027.txt.gz
Total_Precipitation_Accumulation
0.04 0.00 0.06 0.17 0.09 0.11 0.06 0.03 0.02 0.06 0.09 0.05 0.04 0.04 0.01 0.00 0.02 0.02 0.01 0.02 0.01 0.00 0.00 0.00 0.00 0.01 0.03 0.00 0.00 0.00 0.02 0.04 0.01 0.00 0.05 0.03 0.07 0.10 0.17 0.28 0.16 0.30 0.25
0.00 0.01 0.06 0.13 0.07 0.12 0.14 0.08 0.04 0.06 0.07 0.04 0.03 0.02 0.01 0.00 0.01 0.01 0.00 0.01 0.01 0.01 0.00 0.00 0.00 0.00 0.03 0.01 0.00 0.00 0.00 0.04 0.05 0.02 0.03 0.02 0.07 0.14 0.17 0.20 0.16 0.34 0.36
0.00 0.00 0.07 0.14 0.02 0.06 0.11 0.11 0.06 0.02 0.01 0.01 0.01 0.00 0.00 0.00 0.00 0.00 0.00 0.00 0.01 0.00 0.00 0.00 0.00 0.00 0.01 0.01 0.00 0.00 0.00 0.01 0.03 0.06 0.06 0.02 0.07 0.26 0.25 0.18 0.14 0.19 0.25
0.00 0.00 0.03 0.08 0.01 0.01 0.03 0.01 0.01 0.02 0.00 0.00 0.00 0.00 0.00 0.00 0.00 0.00 0.00 0.00 0.00 0.00 0.00 0.00 0.00 0.00 0.00 0.00 0.01 0.00 0.01 0.02 0.05 0.06 0.07 0.07 0.12 0.30 0.34 0.18 0.16 0.18 0.29
0.00 0.00 0.00 0.02 0.01 0.00 0.00 0.01 0.02 0.03 0.02 0.01 0.01 0.01 0.01 0.00 0.00 0.00 0.00 0.00 0.00 0.00 0.00 0.00 0.00 0.00 0.00 0.00 0.00 0.00 0.00 0.02 0.02 0.02 0.10 0.16 0.44 0.67 0.32 0.23 0.15 0.13 0.20
0.00 0.00 0.00 0.00 0.00 0.00 0.00 0.00 0.00 0.00 0.00 0.00 0.00 0.00 0.00 0.00 0.00 0.00 0.00 0.00 0.00 0.00 0.00 0.00 0.00 0.00 0.00 0.00 0.00 0.00 0.00 0.00 0.02 0.00 0.06 0.38 0.42 0.86 1.03 0.30 0.19 0.21 0.17
0.00 0.00 0.00 0.02 0.00 0.00 0.00 0.00 0.00 0.00 0.00 0.00 0.00 0.00 0.00 0.00 0.00 0.00 0.00 0.00 0.00 0.00 0.00 0.00 0.00 0.00 0.00 0.00 0.00 0.00 0.00 0.01 0.01 0.00 0.15 0.52 1.16 0.85 1.12 0.88 0.23 0.22 0.20
0.02 0.00 0.00 0.00 0.00 0.00 0.00 0.00 0.00 0.00 0.00 0.00 0.00 0.00 0.00 0.00 0.00 0.00 0.00 0.00 0.00 0.00 0.00 0.00 0.00 0.00 0.00 0.00 0.00 0.00 0.00 0.00 0.00 0.03 0.09 0.38 0.86 0.51 0.35 0.37 0.19 0.13 0.10
0.08 0.00 0.00 0.00 0.00 0.00 0.00 0.00 0.00 0.00 0.00 0.00 0.00 0.00 0.00 0.00 0.00 0.00 0.00 0.00 0.00 0.00 0.00 0.00 0.00 0.00 0.00 0.00 0.00 0.00 0.00 0.00 0.00 0.01 0.02 0.05 0.06 0.16 0.28 0.26 0.22 0.15 0.12
0.02 0.00 0.00 0.00 0.00 0.00 0.00 0.00 0.00 0.00 0.00 0.00 0.00 0.00 0.00 0.00 0.00 0.00 0.00 0.00 0.00 0.00 0.00 0.00 0.00 0.00 0.00 0.00 0.00 0.00 0.00 0.00 0.00 0.00 0.00 0.00 0.04 0.12 0.29 0.29 0.19 0.18 0.17
0.00 0.00 0.00 0.00 0.00 0.00 0.00 0.00 0.00 0.00 0.00 0.00 0.00 0.00 0.00 0.00 0.00 0.00 0.00 0.00 0.00 0.00 0.00 0.00 0.00 0.00 0.00 0.00 0.00 0.00 0.00 0.00 0.00 0.00 0.00 0.00 0.02 0.06 0.09 0.20 0.19 0.12 0.17
0.00 0.00 0.00 0.00 0.00 0.00 0.00 0.00 0.00 0.00 0.00 0.00 0.00 0.00 0.00 0.00 0.00 0.00 0.00 0.00 0.00 0.00 0.00 0.00 0.00 0.00 0.00 0.00 0.00 0.00 0.00 0.00 0.00 0.00 0.00 0.00 0.00 0.00 0.00 0.01 0.04 0.12 0.20
0.00 0.00 0.00 0.00 0.00 0.00 0.00 0.00 0.00 0.00 0.00 0.00 0.00 0.00 0.00 0.00 0.00 0.00 0.00 0.00 0.00 0.00 0.00 0.00 0.00 0.00 0.00 0.00 0.00 0.00 0.00 0.00 0.00 0.00 0.00 0.00 0.00 0.00 0.00 0.00 0.00 0.01 0.07
0.00 0.00 0.00 0.00 0.00 0.00 0.00 0.00 0.00 0.00 0.00 0.00 0.00 0.00 0.00 0.00 0.00 0.00 0.00 0.00 0.00 0.00 0.00 0.00 0.00 0.00 0.00 0.00 0.00 0.00 0.00 0.00 0.00 0.00 0.00 0.00 0.00 0.00 0.00 0.00 0.00 0.00 0.02
0.00 0.00 0.00 0.00 0.00 0.00 0.00 0.00 0.00 0.00 0.00 0.00 0.00 0.00 0.00 0.00 0.00 0.00 0.00 0.00 0.00 0.00 0.00 0.00 0.00 0.00 0.00 0.00 0.00 0.00 0.00 0.00 0.00 0.00 0.00 0.00 0.00 0.00 0.00 0.00 0.00 0.00 0.00
0.00 0.00 0.03 0.05 0.03 0.00 0.00 0.00 0.03 0.07 0.04 0.04 0.04 0.00 0.00 0.00 0.00 0.00 0.00 0.00 0.00 0.00 0.00 0.00 0.00 0.00 0.00 0.00 0.00 0.00 0.00 0.00 0.00 0.00 0.00 0.00 0.00 0.00 0.00 0.00 0.00 0.00 0.00
0.00 0.00 0.12 0.54 0.12 0.04 0.00 0.03 0.10 0.04 0.04 0.11 0.09 0.03 0.00 0.00 0.00 0.00 0.00 0.00 0.00 0.00 0.00 0.00 0.00 0.00 0.00 0.00 0.00 0.00 0.00 0.00 0.00 0.00 0.00 0.00 0.00 0.00 0.00 0.00 0.00 0.00 0.00
0.01 0.06 0.42 0.71 0.41 0.09 0.07 0.12 0.08 0.05 0.07 0.09 0.06 0.01 0.00 0.00 0.00 0.00 0.00 0.00 0.00 0.00 0.00 0.00 0.00 0.00 0.00 0.00 0.00 0.00 0.00 0.00 0.00 0.00 0.00 0.00 0.00 0.00 0.00 0.00 0.00 0.00 0.00
0.02 0.15 0.42 0.51 0.37 0.29 0.42 0.33 0.06 0.03 0.03 0.01 0.00 0.00 0.00 0.00 0.00 0.00 0.00 0.00 0.00 0.00 0.00 0.00 0.00 0.00 0.00 0.00 0.00 0.00 0.00 0.00 0.00 0.00 0.00 0.00 0.00 0.00 0.00 0.00 0.00 0.00 0.00
0.04 0.30 0.53 0.57 0.64 0.76 0.31 0.07 0.04 0.03 0.01 0.00 0.01 0.01 0.01 0.00 0.00 0.00 0.00 0.00 0.00 0.00 0.00 0.00 0.00 0.00 0.00 0.00 0.00 0.00 0.00 0.00 0.00 0.00 0.00 0.00 0.00 0.00 0.00 0.00 0.00 0.00 0.00
0.16 0.38 0.61 0.87 0.67 0.23 0.07 0.05 0.04 0.02 0.02 0.03 0.02 0.00 0.00 0.00 0.00 0.00 0.00 0.00 0.00 0.00 0.00 0.00 0.00 0.00 0.00 0.00 0.00 0.00 0.00 0.00 0.00 0.00 0.00 0.00 0.00 0.00 0.00 0.00 0.00 0.00 0.00
0.43 0.41 0.29 0.09 0.01 0.01 0.01 0.02 0.03 0.02 0.01 0.00 0.00 0.00 0.00 0.00 0.00 0.00 0.00 0.00 0.00 0.00 0.00 0.00 0.00 0.00 0.00 0.00 0.00 0.00 0.00 0.00 0.00 0.00 0.00 0.00 0.00 0.00 0.00 0.00 0.00 0.00 0.00
0.05 0.00 0.00 0.00 0.00 0.00 0.01 0.01 0.00 0.00 0.00 0.00 0.00 0.00 0.00 0.00 0.00 0.00 0.00 0.00 0.00 0.00 0.00 0.00 0.00 0.00 0.00 0.00 0.00 0.00 0.00 0.00 0.00 0.00 0.00 0.00 0.02 0.01 0.01 0.01 0.01 0.01 0.00
0.00 0.00 0.00 0.00 0.00 0.00 0.00 0.00 0.00 0.00 0.00 0.00 0.00 0.00 0.00 0.00 0.00 0.00 0.00 0.00 0.00 0.00 0.00 0.00 0.00 0.00 0.00 0.00 0.00 0.00 0.00 0.02 0.03 0.02 0.00 0.00 0.00 0.01 0.02 0.01 0.03 0.04 0.05
0.00 0.00 0.00 0.00 0.00 0.00 0.00 0.00 0.00 0.00 0.00 0.00 0.00 0.00 0.00 0.00 0.00 0.00 0.00 0.00 0.00 0.00 0.00 0.00 0.00 0.00 0.00 0.00 0.00 0.00 0.00 0.00 0.02 0.05 0.03 0.01 0.01 0.02 0.02 0.03 0.05 0.08 0.13
0.00 0.00 0.00 0.00 0.00 0.00 0.00 0.00 0.00 0.00 0.00 0.00 0.00 0.00 0.00 0.00 0.01 0.00 0.00 0.00 0.00 0.00 0.00 0.00 0.00 0.00 0.00 0.00 0.00 0.00 0.00 0.01 0.02 0.04 0.04 0.01 0.03 0.04 0.05 0.12 0.20 0.15 0.15

GFSSE_prec_precacc_030.txt.gz
Total_Precipitation_Accumulation
0.11 0.02 0.06 0.21 0.10 0.11 0.06 0.03 0.02 0.06 0.09 0.05 0.04 0.04 0.01 0.00 0.02 0.02 0.01 0.02 0.01 0.00 0.00 0.00 0.00 0.01 0.03 0.00 0.00 0.00 0.02 0.04 0.01 0.00 0.05 0.03 0.07 0.10 0.17 0.28 0.16 0.31 0.26
0.03 0.04 0.07 0.19 0.07 0.12 0.14 0.08 0.04 0.06 0.07 0.04 0.03 0.02 0.01 0.00 0.01 0.01 0.00 0.01 0.01 0.01 0.00 0.00 0.00 0.00 0.03 0.01 0.00 0.00 0.00 0.04 0.05 0.02 0.03 0.02 0.07 0.14 0.17 0.21 0.17 0.35 0.38
0.00 0.00 0.07 0.21 0.03 0.06 0.11 0.11 0.06 0.02 0.01 0.01 0.01 0.00 0.00 0.00 0.00 0.00 0.00 0.00 0.01 0.00 0.00 0.00 0.00 0.00 0.01 0.01 0.00 0.00 0.00 0.01 0.03 0.06 0.06 0.02 0.07 0.26 0.27 0.19 0.16 0.23 0.28
0.01 0.01 0.03 0.12 0.04 0.01 0.03 0.01 0.01 0.02 0.00 0.00 0.00 0.00 0.00 0.00 0.00 0.00 0.00 0.00 0.00 0.00 0.00 0.00 0.00 0.00 0.00 0.00 0.01 0.00 0.01 0.02 0.05 0.06 0.07 0.07 0.12 0.30 0.35 0.18 0.16 0.19 0.31
0.03 0.00 0.00 0.03 0.03 0.02 0.01 0.01 0.02 0.03 0.02 0.01 0.01 0.01 0.01 0.00 0.00 0.00 0.00 0.00 0.00 0.00 0.00 0.00 0.00 0.00 0.00 0.00 0.00 0.00 0.00 0.02 0.02 0.02 0.10 0.16 0.44 0.67 0.32 0.23 0.15 0.13 0.21
0.04 0.00 0.00 0.01 0.06 0.03 0.00 0.00 0.00 0.00 0.00 0.00 0.00 0.00 0.00 0.00 0.00 0.00 0.00 0.00 0.00 0.00 0.00 0.00 0.00 0.00 0.00 0.00 0.00 0.00 0.00 0.00 0.02 0.00 0.06 0.38 0.42 0.86 1.04 0.30 0.19 0.21 0.17
0.06 0.02 0.01 0.14 0.11 0.01 0.00 0.00 0.00 0.00 0.00 0.00 0.00 0.00 0.00 0.00 0.00 0.00 0.00 0.00 0.00 0.00 0.00 0.00 0.00 0.00 0.00 0.00 0.00 0.00 0.00 0.01 0.01 0.00 0.15 0.52 1.16 0.85 1.12 0.88 0.23 0.22 0.20
0.02 0.01 0.04 0.07 0.06 0.00 0.00 0.00 0.00 0.00 0.00 0.00 0.00 0.00 0.00 0.00 0.00 0.00 0.00 0.00 0.00 0.00 0.00 0.00 0.00 0.00 0.00 0.00 0.00 0.00 0.00 0.00 0.00 0.03 0.09 0.38 0.86 0.51 0.35 0.37 0.20 0.14 0.10
0.09 0.02 0.07 0.03 0.00 0.00 0.00 0.00 0.00 0.00 0.00 0.00 0.00 0.00 0.00 0.00 0.00 0.00 0.00 0.00 0.00 0.00 0.00 0.00 0.00 0.00 0.00 0.00 0.00 0.00 0.00 0.00 0.00 0.01 0.02 0.05 0.06 0.16 0.28 0.26 0.22 0.16 0.12
0.05 0.05 0.04 0.01 0.00 0.00 0.00 0.00 0.00 0.00 0.00 0.00 0.00 0.00 0.00 0.00 0.00 0.00 0.00 0.00 0.00 0.00 0.00 0.00 0.00 0.00 0.00 0.00 0.00 0.00 0.00 0.00 0.00 0.00 0.00 0.00 0.04 0.12 0.29 0.29 0.19 0.18 0.17
0.01 0.01 0.00 0.00 0.00 0.00 0.00 0.00 0.00 0.00 0.00 0.00 0.00 0.00 0.00 0.00 0.00 0.00 0.00 0.00 0.00 0.00 0.00 0.00 0.00 0.00 0.00 0.00 0.00 0.00 0.00 0.00 0.00 0.00 0.00 0.00 0.02 0.06 0.09 0.20 0.19 0.12 0.17
0.00 0.00 0.00 0.00 0.00 0.00 0.00 0.00 0.00 0.00 0.00 0.00 0.00 0.00 0.00 0.00 0.00 0.00 0.00 0.00 0.00 0.00 0.00 0.00 0.00 0.00 0.00 0.00 0.00 0.00 0.00 0.00 0.00 0.00 0.00 0.00 0.00 0.00 0.00 0.01 0.04 0.12 0.20
0.00 0.00 0.00 0.00 0.00 0.00 0.00 0.00 0.00 0.00 0.00 0.00 0.00 0.00 0.00 0.00 0.00 0.00 0.00 0.00 0.00 0.00 0.00 0.00 0.00 0.00 0.00 0.00 0.00 0.00 0.00 0.00 0.00 0.00 0.00 0.00 0.00 0.00 0.00 0.00 0.00 0.01 0.07
0.00 0.00 0.00 0.00 0.00 0.00 0.00 0.00 0.00 0.00 0.00 0.01 0.01 0.00 0.00 0.00 0.00 0.00 0.00 0.00 0.00 0.00 0.00 0.00 0.00 0.00 0.00 0.00 0.00 0.00 0.00 0.00 0.00 0.00 0.00 0.00 0.00 0.00 0.00 0.00 0.00 0.00 0.02
0.00 0.00 0.00 0.00 0.00 0.00 0.00 0.00 0.00 0.00 0.01 0.02 0.03 0.01 0.00 0.00 0.00 0.00 0.00 0.00 0.00 0.00 0.00 0.00 0.00 0.00 0.00 0.00 0.00 0.00 0.00 0.00 0.00 0.00 0.00 0.00 0.00 0.00 0.00 0.00 0.00 0.00 0.00
0.00 0.00 0.03 0.05 0.03 0.00 0.00 0.01 0.04 0.08 0.07 0.10 0.23 0.10 0.01 0.00 0.00 0.00 0.00 0.00 0.00 0.00 0.00 0.00 0.00 0.00 0.00 0.00 0.00 0.00 0.00 0.00 0.00 0.00 0.00 0.00 0.00 0.00 0.00 0.00 0.00 0.00 0.00
0.00 0.01 0.13 0.56 0.12 0.04 0.01 0.05 0.12 0.04 0.04 0.14 0.17 0.10 0.01 0.00 0.00 0.00 0.00 0.00 0.00 0.00 0.00 0.00 0.00 0.00 0.00 0.00 0.00 0.00 0.00 0.00 0.00 0.00 0.00 0.00 0.00 0.00 0.00 0.00 0.00 0.00 0.00
0.01 0.06 0.43 0.76 0.44 0.11 0.07 0.13 0.12 0.09 0.08 0.12 0.12 0.04 0.00 0.00 0.00 0.00 0.00 0.00 0.00 0.00 0.00 0.00 0.00 0.00 0.00 0.00 0.00 0.00 0.00 0.00 0.00 0.00 0.00 0.00 0.00 0.00 0.00 0.00 0.00 0.00 0.00
0.02 0.15 0.43 0.54 0.46 0.39 0.48 0.44 0.17 0.05 0.04 0.02 0.01 0.00 0.00 0.00 0.00 0.00 0.00 0.00 0.00 0.00 0.00 0.00 0.00 0.00 0.00 0.00 0.00 0.00 0.00 0.00 0.00 0.00 0.00 0.00 0.00 0.00 0.00 0.00 0.00 0.00 0.00
0.04 0.30 0.54 0.60 0.76 1.00 0.60 0.16 0.06 0.05 0.02 0.00 0.01 0.02 0.01 0.00 0.00 0.00 0.00 0.00 0.00 0.00 0.00 0.00 0.00 0.00 0.00 0.00 0.00 0.00 0.00 0.00 0.00 0.00 0.00 0.00 0.00 0.00 0.00 0.00 0.00 0.00 0.00
0.16 0.38 0.62 0.94 0.82 0.27 0.09 0.05 0.04 0.02 0.02 0.03 0.02 0.00 0.00 0.00 0.00 0.00 0.00 0.00 0.00 0.00 0.00 0.00 0.00 0.00 0.00 0.00 0.00 0.00 0.00 0.00 0.00 0.00 0.00 0.00 0.00 0.00 0.00 0.00 0.00 0.00 0.00
0.43 0.42 0.30 0.11 0.02 0.01 0.01 0.02 0.03 0.02 0.01 0.00 0.00 0.00 0.00 0.00 0.00 0.00 0.00 0.00 0.00 0.00 0.00 0.00 0.00 0.00 0.00 0.00 0.00 0.00 0.00 0.00 0.00 0.00 0.00 0.00 0.00 0.00 0.00 0.00 0.00 0.00 0.00
0.05 0.00 0.00 0.00 0.00 0.00 0.01 0.01 0.00 0.00 0.00 0.00 0.00 0.00 0.00 0.00 0.00 0.00 0.00 0.00 0.00 0.00 0.00 0.00 0.00 0.00 0.00 0.00 0.00 0.00 0.00 0.00 0.00 0.00 0.00 0.00 0.02 0.01 0.01 0.01 0.01 0.01 0.00
0.00 0.00 0.00 0.00 0.00 0.00 0.00 0.00 0.00 0.00 0.00 0.00 0.00 0.00 0.00 0.00 0.00 0.00 0.00 0.00 0.00 0.00 0.00 0.00 0.00 0.00 0.00 0.00 0.00 0.00 0.00 0.02 0.03 0.02 0.00 0.00 0.00 0.01 0.02 0.01 0.03 0.04 0.05
0.00 0.00 0.00 0.00 0.00 0.00 0.00 0.00 0.00 0.00 0.00 0.00 0.00 0.00 0.00 0.00 0.00 0.00 0.00 0.00 0.00 0.00 0.00 0.00 0.00 0.00 0.00 0.00 0.00 0.00 0.00 0.00 0.02 0.05 0.03 0.01 0.01 0.02 0.02 0.03 0.05 0.08 0.14
0.00 0.00 0.00 0.00 0.00 0.00 0.00 0.00 0.00 0.00 0.00 0.00 0.00 0.00 0.00 0.00 0.01 0.00 0.00 0.00 0.00 0.00 0.00 0.00 0.00 0.00 0.00 0.00 0.00 0.00 0.00 0.01 0.02 0.04 0.04 0.01 0.03 0.04 0.05 0.12 0.20 0.15 0.15

GFSSE_prec_precacc_033.txt.gz
Total_Precipitation_Accumulation
0.17 0.02 0.06 0.21 0.10 0.11 0.06 0.03 0.02 0.06 0.09 0.05 0.04 0.04 0.01 0.00 0.02 0.02 0.01 0.02 0.01 0.00 0.00 0.00 0.00 0.01 0.03 0.00 0.00 0.00 0.02 0.04 0.01 0.00 0.05 0.03 0.07 0.10 0.17 0.28 0.17 0.32 0.27
0.05 0.04 0.07 0.20 0.07 0.12 0.14 0.08 0.04 0.06 0.07 0.04 0.03 0.02 0.01 0.00 0.01 0.01 0.00 0.01 0.01 0.01 0.00 0.00 0.00 0.00 0.03 0.01 0.00 0.00 0.00 0.04 0.05 0.02 0.03 0.05 0.11 0.14 0.17 0.21 0.17 0.35 0.39
0.01 0.00 0.07 0.22 0.04 0.06 0.11 0.11 0.06 0.02 0.01 0.01 0.01 0.00 0.00 0.00 0.00 0.00 0.00 0.00 0.01 0.00 0.00 0.00 0.00 0.00 0.01 0.01 0.00 0.00 0.00 0.01 0.03 0.06 0.06 0.06 0.08 0.27 0.28 0.19 0.16 0.23 0.28
0.01 0.01 0.03 0.12 0.04 0.01 0.03 0.01 0.01 0.02 0.00 0.00 0.00 0.00 0.00 0.00 0.00 0.00 0.00 0.00 0.00 0.00 0.00 0.00 0.00 0.00 0.00 0.00 0.01 0.00 0.01 0.02 0.05 0.06 0.07 0.07 0.12 0.31 0.37 0.18 0.16 0.19 0.31
0.09 0.01 0.01 0.03 0.04 0.04 0.01 0.01 0.02 0.03 0.02 0.01 0.01 0.01 0.01 0.00 0.00 0.00 0.00 0.00 0.00 0.00 0.00 0.00 0.00 0.00 0.00 0.00 0.00 0.00 0.00 0.02 0.02 0.02 0.10 0.16 0.44 0.68 0.33 0.23 0.15 0.13 0.21
0.14 0.04 0.01 0.03 0.10 0.05 0.00 0.00 0.00 0.00 0.00 0.00 0.00 0.00 0.00 0.00 0.00 0.00 0.00 0.00 0.00 0.00 0.00 0.00 0.00 0.00 0.00 0.00 0.00 0.00 0.00 0.00 0.02 0.00 0.06 0.38 0.42 0.87 1.04 0.30 0.19 0.21 0.17
0.34 0.21 0.02 0.16 0.20 0.07 0.00 0.00 0.00 0.00 0.00 0.00 0.00 0.00 0.00 0.00 0.00 0.00 0.00 0.00 0.00 0.00 0.00 0.00 0.00 0.00 0.00 0.00 0.00 0.00 0.00 0.01 0.01 0.00 0.15 0.52 1.16 0.85 1.12 0.88 0.23 0.22 0.20
0.35 0.36 0.10 0.11 0.21 0.02 0.00 0.00 0.00 0.00 0.00 0.00 0.00 0.00 0.00 0.00 0.00 0.00 0.00 0.00 0.00 0.00 0.00 0.00 0.00 0.00 0.00 0.00 0.00 0.00 0.00 0.00 0.00 0.03 0.09 0.38 0.86 0.51 0.35 0.37 0.20 0.14 0.10
0.54 0.23 0.12 0.06 0.02 0.00 0.00 0.00 0.00 0.00 0.00 0.00 0.00 0.00 0.00 0.00 0.00 0.00 0.00 0.00 0.00 0.00 0.00 0.00 0.00 0.00 0.00 0.00 0.00 0.00 0.00 0.00 0.00 0.01 0.02 0.05 0.06 0.16 0.28 0.26 0.22 0.16 0.12
0.30 0.18 0.16 0.05 0.00 0.00 0.00 0.00 0.00 0.00 0.00 0.00 0.00 0.00 0.00 0.00 0.00 0.00 0.00 0.00 0.00 0.00 0.00 0.00 0.00 0.00 0.00 0.00 0.00 0.00 0.00 0.00 0.00 0.00 0.00 0.00 0.04 0.12 0.29 0.29 0.19 0.18 0.17
0.14 0.16 0.13 0.00 0.00 0.00 0.00 0.00 0.00 0.00 0.00 0.00 0.00 0.00 0.00 0.00 0.00 0.00 0.00 0.00 0.00 0.00 0.00 0.00 0.00 0.00 0.00 0.00 0.00 0.00 0.00 0.00 0.00 0.00 0.00 0.00 0.02 0.06 0.09 0.20 0.19 0.12 0.17
0.06 0.02 0.00 0.00 0.00 0.00 0.00 0.00 0.00 0.00 0.00 0.00 0.00 0.00 0.00 0.00 0.00 0.00 0.00 0.00 0.00 0.00 0.00 0.00 0.00 0.00 0.00 0.00 0.00 0.00 0.00 0.00 0.00 0.00 0.00 0.00 0.00 0.00 0.00 0.01 0.04 0.12 0.20
0.01 0.00 0.00 0.00 0.00 0.00 0.00 0.00 0.00 0.00 0.00 0.00 0.01 0.01 0.01 0.00 0.00 0.00 0.00 0.00 0.00 0.00 0.00 0.00 0.00 0.00 0.00 0.00 0.00 0.00 0.00 0.00 0.00 0.00 0.00 0.00 0.00 0.00 0.00 0.00 0.00 0.01 0.07
0.00 0.00 0.00 0.00 0.00 0.00 0.00 0.00 0.00 0.00 0.01 0.05 0.07 0.03 0.01 0.01 0.01 0.00 0.00 0.00 0.00 0.00 0.00 0.00 0.00 0.00 0.00 0.00 0.00 0.00 0.00 0.00 0.00 0.00 0.00 0.00 0.00 0.00 0.00 0.00 0.00 0.00 0.02
0.00 0.00 0.00 0.00 0.00 0.00 0.00 0.00 0.00 0.01 0.04 0.05 0.07 0.03 0.00 0.00 0.00 0.00 0.00 0.00 0.00 0.00 0.00 0.00 0.00 0.00 0.00 0.00 0.00 0.00 0.00 0.00 0.00 0.00 0.00 0.00 0.00 0.00 0.00 0.00 0.00 0.00 0.00
0.00 0.00 0.03 0.05 0.03 0.00 0.00 0.03 0.08 0.11 0.08 0.10 0.23 0.12 0.03 0.01 0.00 0.00 0.00 0.00 0.00 0.00 0.00 0.00 0.00 0.00 0.00 0.00 0.00 0.00 0.00 0.00 0.00 0.00 0.00 0.00 0.00 0.00 0.00 0.00 0.00 0.00 0.00
0.00 0.01 0.13 0.56 0.12 0.04 0.03 0.07 0.12 0.04 0.04 0.14 0.18 0.10 0.01 0.00 0.00 0.00 0.00 0.00 0.00 0.00 0.00 0.00 0.00 0.00 0.00 0.00 0.00 0.00 0.00 0.00 0.00 0.00 0.00 0.00 0.00 0.00 0.00 0.00 0.00 0.00 0.00
0.01 0.06 0.43 0.76 0.44 0.12 0.08 0.13 0.13 0.14 0.09 0.12 0.13 0.05 0.01 0.00 0.00 0.00 0.00 0.00 0.00 0.00 0.00 0.00 0.00 0.00 0.00 0.00 0.00 0.00 0.00 0.00 0.00 0.00 0.00 0.00 0.00 0.00 0.00 0.00 0.00 0.00 0.00
0.02 0.15 0.43 0.54 0.49 0.46 0.53 0.52 0.26 0.08 0.05 0.04 0.03 0.02 0.01 0.01 0.00 0.00 0.00 0.00 0.00 0.00 0.00 0.00 0.00 0.00 0.00 0.00 0.00 0.00 0.00 0.00 0.00 0.00 0.00 0.00 0.00 0.00 0.00 0.00 0.00 0.00 0.00
0.04 0.30 0.54 0.60 0.78 1.07 0.64 0.20 0.07 0.05 0.02 0.01 0.02 0.02 0.01 0.00 0.00 0.00 0.00 0.00 0.00 0.00 0.00 0.00 0.00 0.00 0.00 0.00 0.00 0.00 0.00 0.00 0.00 0.00 0.00 0.00 0.00 0.00 0.00 0.00 0.00 0.00 0.00
0.16 0.38 0.62 0.94 0.85 0.30 0.09 0.05 0.04 0.02 0.02 0.03 0.02 0.00 0.00 0.00 0.00 0.00 0.00 0.00 0.00 0.00 0.00 0.00 0.00 0.00 0.00 0.00 0.00 0.00 0.00 0.00 0.00 0.00 0.00 0.00 0.00 0.00 0.00 0.00 0.00 0.00 0.00
0.43 0.42 0.30 0.11 0.02 0.01 0.01 0.02 0.03 0.02 0.01 0.00 0.00 0.00 0.00 0.00 0.00 0.00 0.00 0.00 0.00 0.00 0.00 0.00 0.00 0.00 0.00 0.00 0.00 0.00 0.00 0.00 0.00 0.00 0.00 0.00 0.00 0.00 0.00 0.00 0.00 0.00 0.00
0.05 0.01 0.03 0.02 0.01 0.00 0.01 0.01 0.00 0.00 0.00 0.00 0.00 0.00 0.00 0.00 0.00 0.00 0.00 0.00 0.00 0.00 0.00 0.00 0.00 0.00 0.00 0.00 0.00 0.00 0.00 0.00 0.00 0.00 0.00 0.00 0.02 0.01 0.01 0.01 0.01 0.01 0.00
0.00 0.00 0.00 0.00 0.00 0.00 0.00 0.00 0.00 0.00 0.00 0.00 0.00 0.00 0.00 0.00 0.00 0.00 0.00 0.00 0.00 0.00 0.00 0.00 0.00 0.00 0.00 0.00 0.00 0.00 0.00 0.02 0.03 0.02 0.00 0.00 0.00 0.01 0.02 0.01 0.03 0.04 0.05
0.00 0.00 0.00 0.00 0.00 0.00 0.00 0.00 0.00 0.00 0.00 0.00 0.00 0.00 0.00 0.00 0.00 0.00 0.00 0.00 0.00 0.00 0.00 0.00 0.00 0.00 0.00 0.00 0.00 0.00 0.00 0.00 0.02 0.05 0.03 0.01 0.01 0.02 0.02 0.03 0.05 0.08 0.14
0.00 0.00 0.00 0.00 0.00 0.00 0.00 0.00 0.00 0.00 0.00 0.00 0.00 0.00 0.00 0.00 0.01 0.00 0.00 0.00 0.00 0.00 0.00 0.00 0.00 0.00 0.00 0.00 0.00 0.00 0.00 0.01 0.02 0.04 0.04 0.01 0.03 0.04 0.05 0.12 0.20 0.15 0.15

GFSSE_prec_precacc_036.txt.gz
Total_Precipitation_Accumulation
0.18 0.02 0.06 0.21 0.10 0.11 0.06 0.03 0.02 0.06 0.09 0.05 0.04 0.04 0.01 0.00 0.02 0.02 0.01 0.02 0.01 0.00 0.00 0.00 0.00 0.01 0.03 0.00 0.00 0.00 0.02 0.04 0.01 0.00 0.06 0.05 0.11 0.10 0.17 0.28 0.17 0.32 0.27
0.07 0.04 0.07 0.20 0.07 0.12 0.14 0.08 0.04 0.06 0.07 0.04 0.03 0.02 0.01 0.00 0.01 0.01 0.00 0.01 0.01 0.01 0.00 0.00 0.00 0.00 0.03 0.01 0.00 0.00 0.00 0.04 0.05 0.02 0.05 0.10 0.20 0.14 0.17 0.21 0.18 0.35 0.39
0.03 0.00 0.07 0.22 0.04 0.06 0.11 0.11 0.06 0.02 0.01 0.01 0.01 0.00 0.00 0.00 0.00 0.00 0.00 0.00 0.01 0.00 0.00 0.00 0.00 0.00 0.01 0.01 0.00 0.00 0.00 0.01 0.03 0.06 0.10 0.12 0.09 0.27 0.28 0.19 0.16 0.23 0.28
0.01 0.01 0.03 0.12 0.05 0.01 0.03 0.01 0.01 0.02 0.00 0.00 0.00 0.00 0.00 0.00 0.00 0.00 0.00 0.00 0.00 0.00 0.00 0.00 0.00 0.00 0.00 0.00 0.01 0.00 0.01 0.02 0.05 0.06 0.07 0.08 0.12 0.31 0.37 0.18 0.16 0.19 0.31
0.09 0.01 0.01 0.04 0.07 0.04 0.01 0.01 0.02 0.03 0.02 0.01 0.01 0.01 0.01 0.00 0.00 0.00 0.00 0.00 0.00 0.00 0.00 0.00 0.00 0.00 0.00 0.00 0.00 0.00 0.00 0.02 0.02 0.02 0.10 0.16 0.44 0.68 0.33 0.23 0.15 0.13 0.21
0.18 0.07 0.03 0.10 0.14 0.05 0.00 0.00 0.00 0.00 0.00 0.00 0.00 0.00 0.00 0.00 0.00 0.00 0.00 0.00 0.00 0.00 0.00 0.00 0.00 0.00 0.00 0.00 0.00 0.00 0.00 0.00 0.02 0.00 0.06 0.38 0.42 0.87 1.04 0.30 0.19 0.21 0.17
0.58 0.36 0.05 0.25 0.26 0.09 0.00 0.00 0.00 0.00 0.00 0.00 0.00 0.00 0.00 0.00 0.00 0.00 0.00 0.00 0.00 0.00 0.00 0.00 0.00 0.00 0.00 0.00 0.00 0.00 0.00 0.01 0.01 0.00 0.15 0.52 1.16 0.85 1.12 0.88 0.23 0.22 0.20
0.82 0.78 0.36 0.28 0.26 0.03 0.00 0.00 0.00 0.00 0.00 0.00 0.00 0.00 0.00 0.00 0.00 0.00 0.00 0.00 0.00 0.00 0.00 0.00 0.00 0.00 0.00 0.00 0.00 0.00 0.00 0.00 0.00 0.03 0.09 0.38 0.86 0.51 0.35 0.37 0.20 0.14 0.10
1.75 1.05 0.65 0.15 0.04 0.00 0.00 0.00 0.00 0.00 0.00 0.00 0.00 0.00 0.00 0.00 0.00 0.00 0.00 0.00 0.00 0.00 0.00 0.00 0.00 0.00 0.00 0.00 0.00 0.00 0.00 0.00 0.00 0.01 0.02 0.05 0.06 0.16 0.28 0.26 0.22 0.16 0.12
1.53 0.66 0.54 0.11 0.00 0.00 0.00 0.00 0.00 0.00 0.00 0.00 0.00 0.00 0.00 0.00 0.00 0.00 0.00 0.00 0.00 0.00 0.00 0.00 0.00 0.00 0.00 0.00 0.00 0.00 0.00 0.00 0.00 0.00 0.00 0.00 0.04 0.12 0.29 0.29 0.19 0.18 0.17
1.00 0.83 0.43 0.02 0.00 0.00 0.00 0.00 0.00 0.00 0.00 0.00 0.00 0.00 0.00 0.00 0.00 0.00 0.00 0.00 0.00 0.00 0.00 0.00 0.00 0.00 0.00 0.00 0.00 0.00 0.00 0.00 0.00 0.00 0.00 0.00 0.02 0.06 0.09 0.20 0.19 0.12 0.17
0.67 0.28 0.08 0.01 0.00 0.00 0.00 0.00 0.00 0.00 0.00 0.00 0.00 0.00 0.02 0.01 0.00 0.00 0.00 0.00 0.00 0.00 0.00 0.00 0.00 0.00 0.00 0.00 0.00 0.00 0.00 0.00 0.00 0.00 0.00 0.00 0.00 0.00 0.00 0.01 0.04 0.12 0.20
0.23 0.10 0.01 0.00 0.00 0.00 0.00 0.00 0.00 0.00 0.00 0.00 0.02 0.03 0.03 0.00 0.01 0.02 0.00 0.00 0.00 0.00 0.00 0.00 0.00 0.00 0.00 0.00 0.00 0.00 0.00 0.00 0.00 0.00 0.00 0.00 0.00 0.00 0.00 0.00 0.00 0.01 0.07
0.01 0.00 0.00 0.00 0.00 0.00 0.00 0.00 0.00 0.01 0.04 0.06 0.07 0.03 0.01 0.02 0.02 0.00 0.00 0.00 0.00 0.00 0.00 0.00 0.00 0.00 0.00 0.00 0.00 0.00 0.00 0.00 0.00 0.00 0.00 0.00 0.00 0.00 0.00 0.00 0.00 0.00 0.02
0.00 0.00 0.00 0.00 0.00 0.00 0.00 0.00 0.01 0.07 0.06 0.09 0.08 0.03 0.00 0.00 0.00 0.00 0.00 0.00 0.00 0.00 0.00 0.00 0.00 0.00 0.00 0.00 0.00 0.00 0.00 0.00 0.00 0.00 0.00 0.00 0.00 0.00 0.00 0.00 0.00 0.00 0.00
0.00 0.00 0.03 0.05 0.03 0.00 0.01 0.06 0.12 0.17 0.13 0.14 0.24 0.13 0.03 0.01 0.00 0.00 0.00 0.00 0.00 0.00 0.00 0.00 0.00 0.00 0.00 0.00 0.00 0.00 0.00 0.00 0.00 0.00 0.00 0.00 0.00 0.00 0.00 0.00 0.00 0.00 0.00
0.00 0.01 0.13 0.56 0.13 0.05 0.03 0.07 0.13 0.04 0.04 0.14 0.18 0.10 0.01 0.00 0.00 0.00 0.00 0.00 0.00 0.00 0.00 0.00 0.00 0.00 0.00 0.00 0.00 0.00 0.00 0.00 0.00 0.00 0.00 0.00 0.00 0.00 0.00 0.00 0.00 0.00 0.00
0.01 0.06 0.43 0.76 0.44 0.12 0.08 0.13 0.13 0.14 0.09 0.12 0.13 0.05 0.01 0.01 0.00 0.00 0.00 0.00 0.00 0.00 0.00 0.00 0.00 0.00 0.00 0.00 0.00 0.00 0.00 0.00 0.00 0.00 0.00 0.00 0.00 0.00 0.00 0.00 0.00 0.00 0.00
0.02 0.15 0.43 0.54 0.52 0.52 0.56 0.53 0.26 0.09 0.05 0.04 0.03 0.02 0.01 0.01 0.00 0.00 0.00 0.00 0.00 0.00 0.00 0.00 0.00 0.00 0.00 0.00 0.00 0.00 0.00 0.00 0.00 0.00 0.00 0.00 0.00 0.00 0.00 0.00 0.00 0.00 0.00
0.04 0.30 0.54 0.60 0.83 1.13 0.66 0.20 0.07 0.05 0.02 0.01 0.02 0.02 0.01 0.00 0.00 0.00 0.00 0.00 0.00 0.00 0.00 0.00 0.00 0.00 0.00 0.00 0.00 0.00 0.00 0.00 0.00 0.00 0.00 0.00 0.00 0.00 0.00 0.00 0.00 0.00 0.00
0.16 0.38 0.62 0.95 0.86 0.31 0.09 0.06 0.04 0.02 0.02 0.03 0.02 0.00 0.00 0.00 0.00 0.00 0.00 0.00 0.00 0.00 0.00 0.00 0.00 0.00 0.00 0.00 0.00 0.00 0.00 0.00 0.00 0.00 0.00 0.00 0.00 0.00 0.00 0.00 0.00 0.00 0.00
0.43 0.42 0.31 0.14 0.03 0.01 0.01 0.02 0.03 0.02 0.01 0.00 0.00 0.00 0.00 0.00 0.00 0.00 0.00 0.00 0.00 0.00 0.00 0.00 0.00 0.00 0.00 0.00 0.00 0.00 0.00 0.00 0.00 0.00 0.00 0.00 0.00 0.00 0.00 0.00 0.00 0.00 0.00
0.05 0.01 0.04 0.05 0.02 0.00 0.01 0.01 0.00 0.00 0.00 0.00 0.00 0.00 0.00 0.00 0.00 0.00 0.00 0.00 0.00 0.00 0.00 0.00 0.00 0.00 0.00 0.00 0.00 0.00 0.00 0.00 0.00 0.00 0.00 0.00 0.02 0.01 0.01 0.01 0.01 0.01 0.00
0.02 0.02 0.02 0.03 0.00 0.00 0.00 0.00 0.00 0.00 0.00 0.00 0.00 0.00 0.00 0.00 0.00 0.00 0.00 0.00 0.00 0.00 0.00 0.00 0.00 0.00 0.00 0.00 0.00 0.00 0.00 0.02 0.03 0.02 0.00 0.00 0.00 0.01 0.02 0.01 0.03 0.04 0.05
0.01 0.03 0.01 0.00 0.04 0.01 0.00 0.00 0.00 0.00 0.00 0.00 0.00 0.00 0.00 0.00 0.00 0.00 0.00 0.00 0.00 0.00 0.00 0.00 0.00 0.00 0.00 0.00 0.00 0.00 0.00 0.00 0.02 0.05 0.03 0.01 0.01 0.02 0.02 0.03 0.05 0.08 0.14
0.00 0.00 0.02 0.04 0.02 0.00 0.00 0.00 0.00 0.00 0.00 0.00 0.00 0.00 0.00 0.00 0.01 0.00 0.00 0.00 0.00 0.00 0.00 0.00 0.00 0.00 0.00 0.00 0.00 0.00 0.00 0.01 0.02 0.04 0.04 0.01 0.03 0.04 0.05 0.12 0.20 0.15 0.15

GFSSE_prec_precacc_042.txt.gz
Total_Precipitation_Accumulation
0.23 0.02 0.06 0.21 0.10 0.11 0.06 0.03 0.02 0.06 0.09 0.05 0.04 0.04 0.01 0.00 0.02 0.02 0.01 0.02 0.01 0.00 0.00 0.00 0.00 0.01 0.03 0.00 0.00 0.00 0.02 0.04 0.01 0.01 0.09 0.07 0.14 0.10 0.17 0.28 0.18 0.33 0.29
0.11 0.04 0.07 0.20 0.07 0.12 0.14 0.08 0.04 0.06 0.07 0.04 0.03 0.02 0.01 0.00 0.01 0.01 0.00 0.01 0.01 0.01 0.00 0.00 0.00 0.00 0.03 0.01 0.00 0.00 0.00 0.04 0.05 0.03 0.10 0.17 0.23 0.14 0.17 0.21 0.19 0.36 0.42
0.06 0.01 0.07 0.22 0.04 0.06 0.11 0.11 0.06 0.02 0.01 0.01 0.01 0.00 0.00 0.00 0.00 0.00 0.00 0.00 0.01 0.00 0.00 0.00 0.00 0.00 0.01 0.01 0.00 0.00 0.00 0.01 0.04 0.06 0.13 0.13 0.09 0.27 0.28 0.19 0.16 0.23 0.28
0.03 0.01 0.03 0.12 0.05 0.01 0.03 0.01 0.01 0.02 0.00 0.00 0.00 0.00 0.00 0.00 0.00 0.00 0.00 0.00 0.00 0.00 0.00 0.00 0.00 0.00 0.00 0.00 0.01 0.00 0.01 0.02 0.05 0.06 0.08 0.08 0.12 0.31 0.37 0.18 0.16 0.19 0.31
0.10 0.01 0.01 0.05 0.11 0.05 0.01 0.01 0.02 0.03 0.02 0.01 0.01 0.01 0.01 0.00 0.00 0.00 0.00 0.00 0.00 0.00 0.00 0.00 0.00 0.00 0.00 0.00 0.00 0.00 0.00 0.02 0.02 0.02 0.10 0.16 0.44 0.68 0.33 0.23 0.15 0.13 0.21
0.19 0.08 0.04 0.14 0.26 0.06 0.00 0.00 0.00 0.00 0.00 0.00 0.00 0.00 0.00 0.00 0.00 0.00 0.00 0.00 0.00 0.00 0.00 0.00 0.00 0.00 0.00 0.00 0.00 0.00 0.00 0.00 0.02 0.00 0.06 0.38 0.42 0.87 1.04 0.30 0.19 0.21 0.17
0.86 0.46 0.24 0.58 0.51 0.10 0.00 0.00 0.00 0.00 0.00 0.00 0.00 0.00 0.00 0.00 0.00 0.00 0.00 0.00 0.00 0.00 0.00 0.00 0.00 0.00 0.00 0.00 0.00 0.00 0.00 0.01 0.01 0.00 0.15 0.52 1.16 0.85 1.12 0.88 0.23 0.22 0.20
1.84 1.60 0.94 0.91 0.61 0.05 0.00 0.00 0.00 0.00 0.00 0.00 0.00 0.00 0.00 0.00 0.00 0.00 0.00 0.00 0.00 0.00 0.00 0.00 0.00 0.00 0.00 0.00 0.00 0.00 0.00 0.00 0.00 0.03 0.09 0.38 0.86 0.51 0.35 0.37 0.20 0.14 0.10
2.96 2.17 1.74 0.65 0.23 0.02 0.00 0.00 0.00 0.00 0.00 0.00 0.00 0.00 0.00 0.00 0.00 0.00 0.00 0.00 0.00 0.00 0.00 0.00 0.00 0.00 0.00 0.00 0.00 0.00 0.00 0.00 0.00 0.01 0.02 0.05 0.06 0.16 0.28 0.26 0.22 0.16 0.12
4.45 2.12 1.46 0.71 0.13 0.01 0.00 0.00 0.00 0.00 0.00 0.00 0.00 0.00 0.00 0.00 0.00 0.00 0.00 0.00 0.00 0.00 0.00 0.00 0.00 0.00 0.00 0.00 0.00 0.00 0.00 0.00 0.00 0.00 0.00 0.00 0.04 0.12 0.29 0.29 0.19 0.18 0.17
2.05 1.85 1.18 0.41 0.03 0.00 0.00 0.00 0.00 0.00 0.00 0.00 0.00 0.00 0.00 0.00 0.00 0.00 0.00 0.00 0.00 0.00 0.00 0.00 0.00 0.00 0.00 0.00 0.00 0.00 0.00 0.00 0.00 0.00 0.00 0.00 0.02 0.06 0.09 0.20 0.19 0.12 0.17
1.63 0.94 0.43 0.16 0.00 0.00 0.00 0.00 0.00 0.00 0.00 0.00 0.00 0.00 0.02 0.01 0.00 0.00 0.00 0.00 0.00 0.00 0.00 0.00 0.00 0.00 0.00 0.00 0.00 0.00 0.00 0.00 0.00 0.00 0.00 0.00 0.00 0.00 0.00 0.01 0.04 0.12 0.20
0.63 0.35 0.13 0.03 0.00 0.00 0.00 0.00 0.00 0.00 0.00 0.00 0.02 0.03 0.03 0.00 0.01 0.02 0.00 0.00 0.00 0.00 0.00 0.00 0.00 0.00 0.00 0.00 0.00 0.00 0.00 0.00 0.00 0.00 0.00 0.00 0.00 0.00 0.00 0.00 0.00 0.01 0.07
0.08 0.09 0.05 0.00 0.00 0.00 0.00 0.00 0.00 0.01 0.04 0.06 0.07 0.03 0.01 0.02 0.04 0.00 0.00 0.00 0.00 0.00 0.00 0.00 0.00 0.00 0.00 0.00 0.00 0.00 0.00 0.00 0.00 0.00 0.00 0.00 0.00 0.00 0.00 0.00 0.00 0.00 0.02
0.01 0.01 0.01 0.00 0.00 0.00 0.00 0.00 0.01 0.08 0.07 0.09 0.08 0.03 0.00 0.00 0.00 0.00 0.00 0.00 0.00 0.00 0.00 0.00 0.00 0.00 0.00 0.00 0.00 0.00 0.00 0.00 0.00 0.00 0.00 0.00 0.00 0.00 0.00 0.00 0.00 0.00 0.00
0.00 0.01 0.03 0.05 0.03 0.00 0.01 0.06 0.12 0.17 0.14 0.15 0.25 0.14 0.04 0.02 0.01 0.00 0.00 0.00 0.00 0.00 0.00 0.00 0.00 0.00 0.00 0.00 0.00 0.00 0.00 0.00 0.00 0.00 0.00 0.00 0.00 0.00 0.00 0.00 0.00 0.00 0.00
0.00 0.01 0.13 0.56 0.13 0.05 0.03 0.07 0.13 0.04 0.05 0.14 0.18 0.10 0.01 0.00 0.00 0.00 0.00 0.00 0.00 0.00 0.00 0.00 0.00 0.00 0.00 0.00 0.00 0.00 0.00 0.00 0.00 0.00 0.00 0.00 0.00 0.00 0.00 0.00 0.00 0.00 0.00
0.01 0.06 0.43 0.76 0.44 0.15 0.08 0.13 0.13 0.14 0.09 0.12 0.13 0.05 0.01 0.01 0.00 0.00 0.00 0.00 0.00 0.00 0.00 0.00 0.00 0.00 0.00 0.00 0.00 0.00 0.00 0.00 0.00 0.00 0.00 0.00 0.00 0.00 0.00 0.00 0.00 0.00 0.00
0.03 0.15 0.43 0.54 0.57 0.56 0.56 0.53 0.26 0.09 0.05 0.04 0.03 0.02 0.01 0.01 0.00 0.00 0.00 0.00 0.00 0.00 0.00 0.00 0.00 0.00 0.00 0.00 0.00 0.00 0.00 0.00 0.00 0.00 0.00 0.00 0.00 0.00 0.00 0.00 0.00 0.00 0.00
0.08 0.31 0.54 0.61 0.93 1.15 0.67 0.22 0.08 0.05 0.02 0.01 0.02 0.02 0.01 0.00 0.00 0.00 0.00 0.00 0.00 0.00 0.00 0.00 0.00 0.00 0.00 0.00 0.00 0.00 0.00 0.00 0.00 0.00 0.00 0.00 0.00 0.00 0.00 0.00 0.00 0.00 0.00
0.18 0.41 0.62 0.96 0.92 0.32 0.10 0.07 0.04 0.02 0.02 0.03 0.02 0.00 0.00 0.00 0.00 0.00 0.00 0.00 0.00 0.00 0.00 0.00 0.00 0.00 0.00 0.00 0.00 0.00 0.00 0.00 0.00 0.00 0.00 0.00 0.00 0.00 0.00 0.00 0.00 0.00 0.00
0.44 0.43 0.31 0.14 0.12 0.02 0.01 0.03 0.03 0.02 0.01 0.00 0.00 0.00 0.00 0.00 0.00 0.00 0.00 0.00 0.00 0.00 0.00 0.00 0.00 0.00 0.00 0.00 0.00 0.00 0.00 0.00 0.00 0.00 0.00 0.00 0.00 0.00 0.00 0.00 0.00 0.00 0.00
0.05 0.02 0.05 0.07 0.13 0.04 0.01 0.01 0.00 0.00 0.00 0.00 0.00 0.00 0.00 0.00 0.00 0.00 0.00 0.00 0.00 0.00 0.00 0.00 0.00 0.00 0.00 0.00 0.00 0.00 0.00 0.00 0.00 0.00 0.00 0.00 0.02 0.01 0.01 0.01 0.01 0.01 0.00
0.02 0.03 0.06 0.10 0.14 0.04 0.01 0.00 0.00 0.00 0.00 0.00 0.00 0.00 0.00 0.00 0.00 0.00 0.00 0.00 0.00 0.00 0.00 0.00 0.00 0.00 0.00 0.00 0.00 0.00 0.00 0.02 0.03 0.02 0.00 0.00 0.00 0.01 0.02 0.01 0.03 0.04 0.05
0.03 0.07 0.08 0.06 0.09 0.05 0.00 0.00 0.00 0.00 0.00 0.00 0.00 0.00 0.00 0.00 0.00 0.00 0.00 0.00 0.00 0.00 0.00 0.00 0.00 0.00 0.00 0.00 0.00 0.00 0.00 0.00 0.02 0.05 0.03 0.01 0.01 0.02 0.02 0.03 0.05 0.08 0.14
0.04 0.06 0.06 0.07 0.05 0.01 0.00 0.00 0.00 0.00 0.00 0.00 0.00 0.00 0.00 0.00 0.01 0.00 0.00 0.00 0.00 0.00 0.00 0.00 0.00 0.00 0.00 0.00 0.00 0.00 0.00 0.01 0.02 0.04 0.04 0.01 0.03 0.04 0.05 0.12 0.20 0.15 0.15

GFSSE_prec_precacc_045.txt.gz
Total_Precipitation_Accumulation
0.24 0.03 0.06 0.21 0.10 0.11 0.06 0.03 0.02 0.06 0.09 0.05 0.04 0.04 0.01 0.00 0.02 0.02 0.01 0.02 0.01 0.00 0.00 0.00 0.00 0.01 0.03 0.00 0.00 0.00 0.02 0.04 0.02 0.04 0.13 0.08 0.14 0.10 0.17 0.28 0.19 0.33 0.29
0.12 0.05 0.07 0.20 0.07 0.12 0.14 0.08 0.04 0.06 0.07 0.04 0.03 0.02 0.01 0.00 0.01 0.01 0.00 0.01 0.01 0.01 0.00 0.00 0.00 0.00 0.03 0.01 0.00 0.00 0.00 0.05 0.05 0.03 0.10 0.17 0.23 0.14 0.17 0.21 0.19 0.37 0.42
0.07 0.03 0.08 0.22 0.04 0.06 0.11 0.11 0.06 0.02 0.01 0.01 0.01 0.00 0.00 0.00 0.00 0.00 0.00 0.00 0.01 0.00 0.00 0.00 0.00 0.00 0.01 0.01 0.00 0.00 0.00 0.02 0.05 0.06 0.13 0.13 0.09 0.27 0.28 0.19 0.16 0.23 0.28
0.04 0.03 0.04 0.12 0.05 0.01 0.03 0.01 0.01 0.02 0.00 0.00 0.00 0.00 0.00 0.00 0.00 0.00 0.00 0.00 0.00 0.00 0.00 0.00 0.00 0.00 0.00 0.00 0.01 0.00 0.01 0.03 0.05 0.06 0.08 0.08 0.12 0.31 0.37 0.18 0.16 0.19 0.31
0.11 0.02 0.04 0.07 0.11 0.05 0.01 0.01 0.02 0.03 0.02 0.01 0.01 0.01 0.01 0.00 0.00 0.00 0.00 0.00 0.00 0.00 0.00 0.00 0.00 0.00 0.00 0.00 0.00 0.00 0.00 0.02 0.02 0.02 0.10 0.16 0.44 0.68 0.33 0.23 0.15 0.13 0.21
0.22 0.11 0.13 0.22 0.27 0.06 0.00 0.00 0.00 0.00 0.00 0.00 0.00 0.00 0.00 0.00 0.00 0.00 0.00 0.00 0.00 0.00 0.00 0.00 0.00 0.00 0.00 0.00 0.00 0.00 0.00 0.00 0.02 0.00 0.06 0.38 0.42 0.87 1.04 0.30 0.19 0.21 0.17
0.93 0.58 0.45 0.82 0.64 0.10 0.00 0.00 0.00 0.00 0.00 0.00 0.00 0.00 0.00 0.00 0.00 0.00 0.00 0.00 0.00 0.00 0.00 0.00 0.00 0.00 0.00 0.00 0.00 0.00 0.00 0.01 0.01 0.00 0.15 0.52 1.16 0.85 1.12 0.88 0.23 0.22 0.20
2.07 1.80 1.22 1.27 0.82 0.07 0.00 0.00 0.00 0.00 0.00 0.00 0.00 0.00 0.00 0.00 0.00 0.00 0.00 0.00 0.00 0.00 0.00 0.00 0.00 0.00 0.00 0.00 0.00 0.00 0.00 0.00 0.00 0.03 0.09 0.38 0.86 0.51 0.35 0.37 0.20 0.14 0.10
3.56 2.70 2.43 1.08 0.38 0.04 0.00 0.00 0.00 0.00 0.00 0.00 0.00 0.00 0.00 0.00 0.00 0.00 0.00 0.00 0.00 0.00 0.00 0.00 0.00 0.00 0.00 0.00 0.00 0.00 0.00 0.00 0.00 0.01 0.02 0.05 0.06 0.16 0.28 0.26 0.22 0.16 0.12
5.23 3.04 2.28 1.01 0.19 0.03 0.00 0.00 0.00 0.00 0.00 0.00 0.00 0.00 0.00 0.00 0.00 0.00 0.00 0.00 0.00 0.00 0.00 0.00 0.00 0.00 0.00 0.00 0.00 0.00 0.00 0.00 0.00 0.00 0.00 0.00 0.04 0.12 0.29 0.29 0.19 0.18 0.17
2.63 2.25 1.43 0.49 0.05 0.01 0.00 0.00 0.00 0.00 0.00 0.00 0.00 0.00 0.00 0.00 0.00 0.00 0.00 0.00 0.00 0.00 0.00 0.00 0.00 0.00 0.00 0.00 0.00 0.00 0.00 0.00 0.00 0.00 0.00 0.00 0.02 0.06 0.09 0.20 0.19 0.12 0.17
1.87 1.20 0.59 0.23 0.02 0.00 0.00 0.00 0.00 0.00 0.00 0.00 0.00 0.00 0.02 0.01 0.00 0.00 0.00 0.00 0.00 0.00 0.00 0.00 0.00 0.00 0.00 0.00 0.00 0.00 0.00 0.00 0.00 0.00 0.00 0.00 0.00 0.00 0.00 0.01 0.04 0.12 0.20
0.72 0.56 0.27 0.06 0.00 0.00 0.00 0.00 0.00 0.00 0.00 0.00 0.02 0.03 0.03 0.00 0.01 0.02 0.00 0.00 0.00 0.00 0.00 0.00 0.00 0.00 0.00 0.00 0.00 0.00 0.00 0.00 0.00 0.00 0.00 0.00 0.00 0.00 0.00 0.00 0.00 0.01 0.07
0.11 0.16 0.10 0.00 0.00 0.00 0.00 0.00 0.00 0.01 0.04 0.06 0.07 0.03 0.01 0.02 0.04 0.00 0.00 0.00 0.00 0.00 0.00 0.00 0.00 0.00 0.00 0.00 0.00 0.00 0.00 0.00 0.00 0.00 0.00 0.00 0.00 0.00 0.00 0.00 0.00 0.00 0.02
0.01 0.02 0.04 0.00 0.00 0.00 0.00 0.00 0.01 0.08 0.07 0.09 0.08 0.03 0.00 0.00 0.00 0.00 0.00 0.00 0.00 0.00 0.00 0.00 0.00 0.00 0.00 0.00 0.00 0.00 0.00 0.00 0.00 0.00 0.00 0.00 0.00 0.00 0.00 0.00 0.00 0.00 0.00
0.00 0.01 0.03 0.05 0.03 0.00 0.01 0.06 0.12 0.17 0.14 0.15 0.26 0.14 0.04 0.02 0.01 0.00 0.00 0.00 0.00 0.00 0.00 0.00 0.00 0.00 0.00 0.00 0.00 0.00 0.00 0.00 0.00 0.00 0.00 0.00 0.00 0.00 0.00 0.00 0.00 0.00 0.00
0.00 0.01 0.13 0.56 0.13 0.05 0.03 0.07 0.13 0.04 0.05 0.15 0.18 0.10 0.01 0.00 0.00 0.00 0.00 0.00 0.00 0.00 0.00 0.00 0.00 0.00 0.00 0.00 0.00 0.00 0.00 0.00 0.00 0.00 0.00 0.00 0.00 0.00 0.00 0.00 0.00 0.00 0.00
0.01 0.06 0.43 0.76 0.44 0.15 0.08 0.13 0.13 0.16 0.10 0.13 0.13 0.05 0.01 0.01 0.00 0.00 0.00 0.00 0.00 0.00 0.00 0.00 0.00 0.00 0.00 0.00 0.00 0.00 0.00 0.00 0.00 0.00 0.00 0.00 0.00 0.00 0.00 0.00 0.00 0.00 0.00
0.03 0.15 0.43 0.54 0.57 0.56 0.56 0.53 0.26 0.09 0.05 0.05 0.03 0.02 0.01 0.01 0.00 0.00 0.00 0.00 0.00 0.00 0.00 0.00 0.00 0.00 0.00 0.00 0.00 0.00 0.00 0.00 0.00 0.00 0.00 0.00 0.00 0.00 0.00 0.00 0.00 0.00 0.00
0.08 0.31 0.54 0.61 0.93 1.15 0.67 0.22 0.08 0.08 0.03 0.01 0.02 0.02 0.01 0.00 0.00 0.00 0.00 0.00 0.00 0.00 0.00 0.00 0.00 0.00 0.00 0.00 0.00 0.00 0.00 0.00 0.00 0.00 0.00 0.00 0.00 0.00 0.00 0.00 0.00 0.00 0.00
0.18 0.41 0.62 0.96 0.92 0.32 0.10 0.07 0.05 0.02 0.02 0.03 0.02 0.00 0.00 0.00 0.00 0.00 0.00 0.00 0.00 0.00 0.00 0.00 0.00 0.00 0.00 0.00 0.00 0.00 0.00 0.00 0.00 0.00 0.00 0.00 0.00 0.00 0.00 0.00 0.00 0.00 0.00
0.44 0.44 0.31 0.14 0.12 0.02 0.02 0.04 0.03 0.02 0.01 0.00 0.00 0.00 0.00 0.00 0.00 0.00 0.00 0.00 0.00 0.00 0.00 0.00 0.00 0.00 0.00 0.00 0.00 0.00 0.00 0.00 0.00 0.00 0.00 0.00 0.00 0.00 0.00 0.00 0.00 0.00 0.00
0.05 0.02 0.06 0.08 0.13 0.04 0.02 0.01 0.00 0.00 0.00 0.00 0.00 0.00 0.00 0.00 0.00 0.00 0.00 0.00 0.00 0.00 0.00 0.00 0.00 0.00 0.00 0.00 0.00 0.00 0.00 0.00 0.00 0.00 0.00 0.00 0.02 0.01 0.01 0.01 0.01 0.01 0.00
0.02 0.03 0.06 0.11 0.14 0.04 0.01 0.00 0.00 0.01 0.03 0.01 0.00 0.00 0.00 0.00 0.00 0.00 0.00 0.00 0.00 0.00 0.00 0.00 0.00 0.00 0.00 0.00 0.00 0.00 0.00 0.02 0.03 0.02 0.00 0.00 0.00 0.01 0.02 0.01 0.03 0.04 0.05
0.04 0.07 0.08 0.09 0.14 0.08 0.01 0.05 0.06 0.04 0.01 0.00 0.00 0.00 0.00 0.00 0.00 0.00 0.00 0.00 0.00 0.00 0.00 0.00 0.00 0.00 0.00 0.00 0.00 0.00 0.00 0.00 0.02 0.05 0.03 0.01 0.01 0.02 0.02 0.03 0.05 0.08 0.14
0.05 0.07 0.09 0.12 0.13 0.03 0.02 0.02 0.06 0.03 0.01 0.01 0.00 0.00 0.00 0.00 0.01 0.00 0.00 0.00 0.00 0.00 0.00 0.00 0.00 0.00 0.00 0.00 0.00 0.00 0.00 0.01 0.02 0.04 0.04 0.01 0.03 0.04 0.05 0.12 0.20 0.15 0.15

GFSSE_prec_precacc_048.txt.gz
Total_Precipitation_Accumulation
0.24 0.03 0.07 0.21 0.10 0.11 0.06 0.03 0.02 0.06 0.09 0.05 0.04 0.04 0.01 0.00 0.02 0.02 0.01 0.02 0.01 0.00 0.00 0.00 0.00 0.01 0.03 0.00 0.00 0.00 0.02 0.05 0.02 0.04 0.13 0.08 0.14 0.10 0.17 0.28 0.19 0.33 0.30
0.12 0.06 0.07 0.20 0.07 0.12 0.14 0.08 0.04 0.06 0.07 0.04 0.03 0.02 0.01 0.00 0.01 0.01 0.00 0.01 0.01 0.01 0.00 0.00 0.00 0.00 0.03 0.01 0.00 0.00 0.01 0.05 0.05 0.03 0.10 0.17 0.23 0.14 0.17 0.21 0.19 0.37 0.43
0.07 0.04 0.08 0.22 0.04 0.06 0.11 0.11 0.06 0.02 0.01 0.01 0.01 0.00 0.00 0.00 0.00 0.00 0.00 0.00 0.01 0.00 0.00 0.00 0.00 0.00 0.01 0.01 0.00 0.00 0.00 0.02 0.05 0.06 0.13 0.13 0.09 0.27 0.28 0.19 0.16 0.23 0.28
0.06 0.04 0.04 0.13 0.05 0.01 0.03 0.01 0.01 0.02 0.00 0.00 0.00 0.00 0.00 0.00 0.00 0.00 0.00 0.00 0.00 0.00 0.00 0.00 0.00 0.00 0.00 0.00 0.01 0.00 0.01 0.03 0.05 0.06 0.08 0.08 0.12 0.31 0.37 0.18 0.16 0.19 0.31
0.13 0.03 0.08 0.11 0.11 0.05 0.01 0.01 0.02 0.03 0.02 0.01 0.01 0.01 0.01 0.00 0.00 0.00 0.00 0.00 0.00 0.00 0.00 0.00 0.00 0.00 0.00 0.00 0.00 0.00 0.00 0.02 0.02 0.02 0.10 0.16 0.44 0.68 0.33 0.23 0.15 0.13 0.21
0.25 0.15 0.21 0.33 0.29 0.07 0.00 0.00 0.00 0.00 0.00 0.00 0.00 0.00 0.00 0.00 0.00 0.00 0.00 0.00 0.00 0.00 0.00 0.00 0.00 0.00 0.00 0.00 0.00 0.00 0.00 0.00 0.02 0.00 0.06 0.38 0.42 0.87 1.04 0.30 0.19 0.21 0.17
0.96 0.66 0.58 1.02 0.74 0.11 0.00 0.00 0.00 0.00 0.00 0.00 0.00 0.00 0.00 0.00 0.00 0.00 0.00 0.00 0.00 0.00 0.00 0.00 0.00 0.00 0.00 0.00 0.00 0.00 0.00 0.01 0.01 0.00 0.15 0.52 1.16 0.85 1.12 0.88 0.23 0.22 0.21
2.44 2.34 1.47 1.44 1.02 0.11 0.00 0.00 0.00 0.00 0.00 0.00 0.00 0.00 0.00 0.00 0.00 0.00 0.00 0.00 0.00 0.00 0.00 0.00 0.00 0.00 0.00 0.00 0.00 0.00 0.00 0.00 0.00 0.03 0.09 0.38 0.86 0.51 0.35 0.37 0.20 0.14 0.10
4.04 3.27 3.51 1.30 0.48 0.07 0.00 0.00 0.00 0.00 0.00 0.00 0.00 0.00 0.00 0.00 0.00 0.00 0.00 0.00 0.00 0.00 0.00 0.00 0.00 0.00 0.00 0.00 0.00 0.00 0.00 0.00 0.00 0.01 0.02 0.05 0.06 0.16 0.28 0.26 0.22 0.16 0.12
6.07 3.82 2.80 1.36 0.28 0.04 0.00 0.00 0.00 0.00 0.00 0.00 0.00 0.00 0.00 0.00 0.00 0.00 0.00 0.00 0.00 0.00 0.00 0.00 0.00 0.00 0.00 0.00 0.00 0.00 0.00 0.00 0.00 0.00 0.00 0.00 0.04 0.12 0.29 0.29 0.19 0.18 0.17
2.90 2.84 2.08 0.83 0.14 0.01 0.00 0.00 0.00 0.00 0.00 0.00 0.00 0.00 0.00 0.00 0.00 0.00 0.00 0.00 0.00 0.00 0.00 0.00 0.00 0.00 0.00 0.00 0.00 0.00 0.00 0.00 0.00 0.00 0.00 0.00 0.02 0.06 0.09 0.20 0.19 0.12 0.17
1.88 1.26 0.65 0.26 0.04 0.01 0.00 0.00 0.00 0.00 0.00 0.00 0.00 0.00 0.02 0.01 0.00 0.00 0.00 0.00 0.00 0.00 0.00 0.00 0.00 0.00 0.00 0.00 0.00 0.00 0.00 0.00 0.00 0.00 0.00 0.00 0.00 0.00 0.00 0.01 0.04 0.12 0.20
0.76 0.63 0.41 0.14 0.05 0.01 0.00 0.00 0.00 0.00 0.00 0.00 0.02 0.03 0.03 0.00 0.01 0.02 0.00 0.00 0.00 0.00 0.00 0.00 0.00 0.00 0.00 0.00 0.00 0.00 0.00 0.00 0.00 0.00 0.00 0.00 0.00 0.00 0.00 0.00 0.00 0.01 0.07
0.20 0.24 0.17 0.06 0.03 0.00 0.00 0.00 0.00 0.01 0.04 0.06 0.07 0.03 0.01 0.02 0.04 0.00 0.00 0.00 0.00 0.00 0.00 0.00 0.00 0.00 0.00 0.00 0.00 0.00 0.00 0.00 0.00 0.00 0.00 0.00 0.00 0.00 0.00 0.00 0.00 0.00 0.02
0.03 0.03 0.05 0.01 0.00 0.00 0.00 0.00 0.01 0.08 0.07 0.09 0.08 0.03 0.00 0.00 0.00 0.00 0.00 0.00 0.00 0.00 0.00 0.00 0.00 0.00 0.00 0.00 0.00 0.00 0.00 0.00 0.00 0.00 0.00 0.00 0.00 0.00 0.00 0.00 0.00 0.00 0.00
0.00 0.01 0.03 0.05 0.03 0.00 0.01 0.06 0.12 0.17 0.14 0.15 0.26 0.14 0.04 0.02 0.01 0.00 0.00 0.00 0.00 0.00 0.00 0.00 0.00 0.00 0.00 0.00 0.00 0.00 0.00 0.00 0.00 0.00 0.00 0.00 0.00 0.00 0.00 0.00 0.00 0.00 0.00
0.00 0.01 0.13 0.56 0.13 0.05 0.03 0.07 0.13 0.04 0.05 0.15 0.20 0.13 0.02 0.00 0.02 0.00 0.00 0.00 0.00 0.00 0.00 0.00 0.00 0.00 0.00 0.00 0.00 0.00 0.00 0.00 0.00 0.00 0.00 0.00 0.00 0.00 0.00 0.00 0.00 0.00 0.00
0.01 0.06 0.43 0.76 0.44 0.15 0.08 0.13 0.13 0.16 0.10 0.16 0.15 0.07 0.04 0.03 0.03 0.01 0.00 0.00 0.00 0.00 0.00 0.00 0.00 0.00 0.00 0.00 0.00 0.00 0.00 0.00 0.00 0.00 0.00 0.00 0.00 0.00 0.00 0.00 0.00 0.00 0.00
0.03 0.15 0.43 0.54 0.57 0.56 0.56 0.53 0.26 0.09 0.09 0.16 0.07 0.02 0.02 0.01 0.00 0.00 0.00 0.00 0.00 0.00 0.00 0.00 0.00 0.00 0.00 0.00 0.00 0.00 0.00 0.00 0.00 0.00 0.00 0.00 0.00 0.00 0.00 0.00 0.00 0.00 0.00
0.08 0.31 0.54 0.61 0.93 1.15 0.67 0.22 0.08 0.09 0.08 0.08 0.04 0.02 0.01 0.00 0.00 0.00 0.00 0.00 0.00 0.00 0.00 0.00 0.00 0.00 0.00 0.00 0.00 0.00 0.00 0.00 0.00 0.00 0.00 0.00 0.00 0.00 0.00 0.00 0.00 0.00 0.00
0.18 0.41 0.62 0.96 0.92 0.32 0.10 0.07 0.05 0.06 0.12 0.12 0.04 0.00 0.00 0.00 0.00 0.00 0.00 0.00 0.00 0.00 0.00 0.00 0.00 0.00 0.00 0.00 0.00 0.00 0.00 0.00 0.00 0.00 0.00 0.00 0.00 0.00 0.00 0.00 0.00 0.00 0.00
0.44 0.44 0.31 0.14 0.12 0.02 0.02 0.05 0.05 0.06 0.09 0.08 0.01 0.00 0.00 0.00 0.00 0.00 0.00 0.00 0.00 0.00 0.00 0.00 0.00 0.00 0.00 0.00 0.00 0.00 0.00 0.00 0.00 0.00 0.00 0.00 0.00 0.00 0.00 0.00 0.00 0.00 0.00
0.05 0.02 0.06 0.08 0.13 0.04 0.02 0.01 0.01 0.05 0.08 0.04 0.01 0.00 0.00 0.00 0.00 0.00 0.00 0.00 0.00 0.00 0.00 0.00 0.00 0.00 0.00 0.00 0.00 0.00 0.00 0.00 0.00 0.00 0.00 0.00 0.02 0.01 0.01 0.01 0.01 0.01 0.00
0.02 0.03 0.06 0.11 0.14 0.04 0.01 0.00 0.01 0.05 0.07 0.05 0.01 0.00 0.00 0.00 0.00 0.00 0.00 0.00 0.00 0.00 0.00 0.00 0.00 0.00 0.00 0.00 0.00 0.00 0.00 0.02 0.03 0.02 0.00 0.00 0.00 0.01 0.02 0.01 0.03 0.04 0.05
0.04 0.07 0.08 0.11 0.15 0.08 0.01 0.06 0.12 0.13 0.11 0.04 0.01 0.01 0.00 0.00 0.00 0.00 0.00 0.00 0.00 0.00 0.00 0.00 0.00 0.00 0.00 0.00 0.00 0.00 0.00 0.00 0.02 0.05 0.03 0.01 0.01 0.02 0.02 0.03 0.05 0.08 0.14
0.05 0.08 0.10 0.12 0.19 0.09 0.02 0.03 0.11 0.15 0.09 0.05 0.02 0.00 0.00 0.00 0.01 0.00 0.00 0.00 0.00 0.00 0.00 0.00 0.01 0.00 0.00 0.00 0.00 0.00 0.00 0.01 0.02 0.04 0.04 0.01 0.03 0.04 0.05 0.12 0.20 0.15 0.15

GFSSE_prec_precacc_051.txt.gz
Total_Precipitation_Accumulation
0.25 0.04 0.07 0.21 0.10 0.11 0.06 0.03 0.02 0.06 0.09 0.05 0.04 0.04 0.01 0.00 0.02 0.02 0.01 0.02 0.01 0.00 0.00 0.00 0.00 0.01 0.03 0.00 0.00 0.00 0.02 0.05 0.02 0.04 0.13 0.08 0.14 0.10 0.17 0.28 0.19 0.33 0.30
0.13 0.07 0.08 0.20 0.07 0.12 0.14 0.08 0.04 0.06 0.07 0.04 0.03 0.02 0.01 0.00 0.01 0.01 0.00 0.01 0.01 0.01 0.00 0.00 0.00 0.00 0.03 0.01 0.00 0.00 0.01 0.05 0.05 0.03 0.10 0.17 0.23 0.14 0.17 0.21 0.19 0.37 0.43
0.09 0.05 0.09 0.23 0.04 0.06 0.11 0.11 0.06 0.02 0.01 0.01 0.01 0.00 0.00 0.00 0.00 0.00 0.00 0.00 0.01 0.00 0.00 0.00 0.00 0.00 0.01 0.01 0.00 0.00 0.00 0.02 0.05 0.06 0.13 0.13 0.09 0.27 0.28 0.19 0.16 0.23 0.28
0.07 0.06 0.07 0.14 0.05 0.01 0.03 0.01 0.01 0.02 0.00 0.00 0.00 0.00 0.00 0.00 0.00 0.00 0.00 0.00 0.00 0.00 0.00 0.00 0.00 0.00 0.00 0.00 0.01 0.00 0.01 0.03 0.05 0.06 0.08 0.08 0.12 0.31 0.37 0.18 0.16 0.19 0.31
0.15 0.04 0.11 0.14 0.13 0.06 0.01 0.01 0.02 0.03 0.02 0.01 0.01 0.01 0.01 0.00 0.00 0.00 0.00 0.00 0.00 0.00 0.00 0.00 0.00 0.00 0.00 0.00 0.00 0.00 0.00 0.02 0.02 0.02 0.10 0.16 0.44 0.68 0.33 0.23 0.15 0.13 0.21
0.27 0.17 0.26 0.40 0.38 0.13 0.01 0.00 0.00 0.00 0.00 0.00 0.00 0.00 0.00 0.00 0.00 0.00 0.00 0.00 0.00 0.00 0.00 0.00 0.00 0.00 0.00 0.00 0.00 0.00 0.00 0.00 0.02 0.00 0.06 0.38 0.42 0.87 1.04 0.30 0.19 0.21 0.18
1.15 0.72 0.64 1.10 0.84 0.15 0.00 0.00 0.00 0.00 0.00 0.00 0.00 0.00 0.00 0.00 0.00 0.00 0.00 0.00 0.00 0.00 0.00 0.00 0.00 0.00 0.00 0.00 0.00 0.00 0.00 0.01 0.01 0.00 0.15 0.52 1.16 0.85 1.12 0.88 0.23 0.22 0.21
2.89 2.70 1.67 1.56 1.09 0.13 0.00 0.00 0.00 0.00 0.00 0.00 0.00 0.00 0.00 0.00 0.00 0.00 0.00 0.00 0.00 0.00 0.00 0.00 0.00 0.00 0.00 0.00 0.00 0.00 0.00 0.00 0.00 0.03 0.09 0.38 0.86 0.51 0.35 0.37 0.20 0.14 0.10
4.30 3.83 4.53 1.65 0.62 0.14 0.01 0.00 0.00 0.00 0.00 0.00 0.00 0.00 0.00 0.00 0.00 0.00 0.00 0.00 0.00 0.00 0.00 0.00 0.00 0.00 0.00 0.00 0.00 0.00 0.00 0.00 0.00 0.01 0.02 0.05 0.06 0.16 0.28 0.26 0.22 0.16 0.12
6.25 4.08 3.55 2.04 0.62 0.18 0.03 0.00 0.00 0.00 0.00 0.00 0.00 0.00 0.00 0.00 0.00 0.00 0.00 0.00 0.00 0.00 0.00 0.00 0.00 0.00 0.00 0.00 0.00 0.00 0.00 0.00 0.00 0.00 0.00 0.00 0.04 0.12 0.29 0.29 0.19 0.18 0.17
3.05 3.27 2.47 1.13 0.27 0.10 0.06 0.01 0.00 0.00 0.00 0.00 0.00 0.00 0.00 0.00 0.00 0.00 0.00 0.00 0.00 0.00 0.00 0.00 0.00 0.00 0.00 0.00 0.00 0.00 0.00 0.00 0.00 0.00 0.00 0.00 0.02 0.06 0.09 0.20 0.19 0.12 0.17
1.89 1.49 0.99 0.49 0.14 0.05 0.06 0.06 0.03 0.00 0.00 0.00 0.00 0.00 0.02 0.01 0.00 0.00 0.00 0.00 0.00 0.00 0.00 0.00 0.00 0.00 0.00 0.00 0.00 0.00 0.00 0.00 0.00 0.00 0.00 0.00 0.00 0.00 0.00 0.01 0.04 0.12 0.20
0.76 0.65 0.47 0.18 0.06 0.03 0.00 0.03 0.02 0.00 0.00 0.00 0.02 0.03 0.03 0.00 0.01 0.02 0.00 0.00 0.00 0.00 0.00 0.00 0.00 0.00 0.00 0.00 0.00 0.00 0.00 0.00 0.00 0.00 0.00 0.00 0.00 0.00 0.00 0.00 0.00 0.01 0.07
0.22 0.25 0.17 0.08 0.07 0.04 0.01 0.02 0.01 0.01 0.04 0.06 0.07 0.03 0.01 0.02 0.04 0.00 0.00 0.00 0.00 0.00 0.00 0.00 0.00 0.00 0.00 0.00 0.00 0.00 0.00 0.00 0.00 0.00 0.00 0.00 0.00 0.00 0.00 0.00 0.00 0.00 0.02
0.06 0.04 0.07 0.02 0.01 0.00 0.00 0.00 0.01 0.08 0.07 0.09 0.08 0.03 0.00 0.00 0.00 0.00 0.00 0.00 0.00 0.00 0.00 0.00 0.00 0.00 0.00 0.00 0.00 0.00 0.00 0.00 0.00 0.00 0.00 0.00 0.00 0.00 0.00 0.00 0.00 0.00 0.00
0.00 0.01 0.03 0.05 0.03 0.00 0.01 0.06 0.12 0.17 0.14 0.15 0.26 0.14 0.04 0.02 0.01 0.00 0.00 0.00 0.00 0.00 0.00 0.00 0.00 0.00 0.00 0.00 0.00 0.00 0.00 0.00 0.00 0.00 0.00 0.00 0.00 0.00 0.00 0.00 0.00 0.00 0.00
0.00 0.01 0.13 0.56 0.13 0.05 0.03 0.07 0.13 0.04 0.05 0.16 0.23 0.21 0.06 0.01 0.04 0.02 0.00 0.00 0.00 0.00 0.00 0.00 0.00 0.00 0.00 0.00 0.00 0.00 0.00 0.00 0.00 0.00 0.00 0.00 0.00 0.00 0.00 0.00 0.00 0.00 0.00
0.01 0.06 0.43 0.76 0.44 0.15 0.08 0.13 0.13 0.16 0.10 0.17 0.21 0.16 0.14 0.10 0.08 0.04 0.01 0.00 0.00 0.00 0.00 0.00 0.00 0.00 0.00 0.00 0.00 0.00 0.00 0.00 0.00 0.00 0.00 0.00 0.00 0.00 0.00 0.00 0.00 0.00 0.00
0.03 0.15 0.43 0.54 0.57 0.56 0.56 0.53 0.26 0.09 0.09 0.18 0.16 0.11 0.07 0.06 0.04 0.02 0.01 0.00 0.00 0.00 0.00 0.00 0.00 0.00 0.00 0.00 0.00 0.00 0.00 0.00 0.00 0.00 0.00 0.00 0.00 0.00 0.00 0.00 0.00 0.00 0.00
0.08 0.31 0.54 0.61 0.93 1.15 0.67 0.22 0.08 0.09 0.08 0.13 0.11 0.07 0.04 0.01 0.01 0.00 0.00 0.00 0.00 0.00 0.00 0.00 0.00 0.00 0.00 0.00 0.00 0.00 0.00 0.00 0.00 0.00 0.00 0.00 0.00 0.00 0.00 0.00 0.00 0.00 0.00
0.18 0.41 0.62 0.96 0.92 0.32 0.10 0.07 0.05 0.06 0.13 0.21 0.17 0.09 0.03 0.00 0.00 0.00 0.00 0.00 0.00 0.00 0.00 0.00 0.00 0.00 0.00 0.00 0.00 0.00 0.00 0.00 0.00 0.00 0.00 0.00 0.00 0.00 0.00 0.00 0.00 0.00 0.00
0.44 0.44 0.31 0.14 0.12 0.02 0.02 0.05 0.05 0.06 0.11 0.18 0.13 0.07 0.05 0.00 0.00 0.00 0.00 0.00 0.00 0.00 0.00 0.00 0.00 0.00 0.00 0.00 0.00 0.00 0.00 0.00 0.00 0.00 0.00 0.00 0.00 0.00 0.00 0.00 0.00 0.00 0.00
0.05 0.02 0.06 0.08 0.13 0.04 0.02 0.01 0.01 0.06 0.12 0.09 0.11 0.06 0.02 0.00 0.00 0.00 0.00 0.00 0.00 0.00 0.00 0.00 0.00 0.00 0.00 0.00 0.00 0.00 0.00 0.00 0.00 0.00 0.00 0.00 0.02 0.01 0.01 0.01 0.01 0.01 0.00
0.02 0.03 0.06 0.11 0.14 0.04 0.01 0.00 0.01 0.05 0.08 0.15 0.12 0.04 0.00 0.00 0.00 0.00 0.00 0.00 0.00 0.00 0.00 0.00 0.00 0.00 0.00 0.00 0.00 0.00 0.00 0.02 0.03 0.02 0.00 0.00 0.00 0.01 0.02 0.01 0.03 0.04 0.05
0.04 0.07 0.08 0.11 0.15 0.08 0.01 0.06 0.12 0.14 0.15 0.15 0.10 0.05 0.01 0.00 0.00 0.00 0.00 0.00 0.00 0.00 0.00 0.00 0.00 0.00 0.00 0.00 0.00 0.00 0.00 0.00 0.02 0.05 0.03 0.01 0.01 0.02 0.02 0.03 0.05 0.08 0.14
0.05 0.08 0.10 0.12 0.19 0.09 0.06 0.05 0.12 0.16 0.13 0.08 0.07 0.04 0.01 0.01 0.01 0.00 0.00 0.00 0.00 0.00 0.00 0.01 0.04 0.02 0.00 0.00 0.00 0.00 0.00 0.01 0.02 0.04 0.04 0.01 0.03 0.04 0.05 0.12 0.20 0.15 0.15

GFSSE_prec_precacc_057.txt.gz
Total_Precipitation_Accumulation
0.28 0.05 0.08 0.22 0.12 0.12 0.07 0.04 0.02 0.06 0.09 0.05 0.04 0.04 0.01 0.00 0.02 0.02 0.01 0.02 0.01 0.01 0.01 0.00 0.00 0.01 0.03 0.00 0.00 0.00 0.02 0.05 0.02 0.04 0.13 0.08 0.14 0.10 0.17 0.28 0.19 0.34 0.31
0.16 0.09 0.09 0.21 0.09 0.14 0.14 0.08 0.04 0.06 0.07 0.04 0.03 0.02 0.01 0.00 0.01 0.01 0.00 0.01 0.02 0.02 0.01 0.00 0.00 0.00 0.03 0.01 0.00 0.00 0.01 0.05 0.05 0.03 0.10 0.17 0.23 0.14 0.17 0.21 0.19 0.37 0.43
0.12 0.10 0.12 0.24 0.05 0.07 0.11 0.11 0.06 0.02 0.01 0.01 0.01 0.00 0.00 0.00 0.00 0.00 0.00 0.00 0.01 0.01 0.00 0.00 0.00 0.00 0.01 0.01 0.00 0.00 0.00 0.02 0.05 0.06 0.13 0.13 0.09 0.27 0.28 0.19 0.16 0.23 0.28
0.12 0.15 0.14 0.15 0.06 0.01 0.03 0.01 0.01 0.02 0.00 0.00 0.00 0.00 0.00 0.00 0.00 0.00 0.00 0.00 0.00 0.01 0.00 0.00 0.00 0.00 0.00 0.00 0.01 0.00 0.01 0.03 0.05 0.06 0.08 0.08 0.12 0.31 0.37 0.18 0.16 0.19 0.31
0.23 0.11 0.22 0.14 0.13 0.06 0.01 0.01 0.02 0.03 0.02 0.01 0.01 0.01 0.01 0.00 0.00 0.00 0.00 0.00 0.00 0.01 0.00 0.00 0.00 0.00 0.00 0.00 0.00 0.00 0.00 0.02 0.02 0.02 0.10 0.16 0.44 0.69 0.33 0.23 0.15 0.13 0.21
0.76 0.54 0.48 0.53 0.46 0.16 0.01 0.00 0.00 0.00 0.00 0.00 0.00 0.00 0.00 0.00 0.00 0.00 0.00 0.00 0.01 0.00 0.00 0.00 0.00 0.00 0.00 0.00 0.00 0.00 0.00 0.00 0.02 0.00 0.06 0.38 0.42 0.87 1.04 0.30 0.19 0.21 0.18
1.83 1.15 0.86 1.39 1.00 0.24 0.01 0.00 0.00 0.00 0.00 0.00 0.00 0.00 0.00 0.00 0.00 0.00 0.00 0.00 0.00 0.00 0.00 0.00 0.00 0.00 0.00 0.00 0.00 0.00 0.00 0.01 0.01 0.00 0.15 0.52 1.16 0.85 1.12 0.88 0.23 0.22 0.21
4.50 3.45 2.03 1.79 1.31 0.27 0.06 0.02 0.00 0.00 0.00 0.00 0.00 0.00 0.00 0.00 0.00 0.00 0.00 0.00 0.00 0.00 0.00 0.00 0.00 0.00 0.00 0.00 0.00 0.00 0.00 0.00 0.00 0.03 0.09 0.38 0.86 0.51 0.35 0.37 0.20 0.14 0.10
5.70 6.73 5.62 1.91 0.80 0.31 0.13 0.03 0.01 0.01 0.00 0.00 0.00 0.00 0.00 0.00 0.00 0.00 0.00 0.00 0.00 0.00 0.00 0.00 0.00 0.00 0.00 0.00 0.00 0.00 0.00 0.00 0.00 0.01 0.02 0.05 0.06 0.16 0.28 0.26 0.22 0.16 0.12
6.91 5.60 5.40 3.03 1.14 0.41 0.14 0.05 0.02 0.03 0.02 0.00 0.00 0.00 0.00 0.00 0.00 0.00 0.00 0.00 0.00 0.00 0.00 0.00 0.00 0.00 0.00 0.00 0.00 0.00 0.00 0.00 0.00 0.00 0.00 0.00 0.04 0.12 0.29 0.29 0.19 0.18 0.17
3.27 3.63 3.04 1.70 0.83 0.49 0.21 0.16 0.09 0.04 0.00 0.00 0.00 0.00 0.00 0.00 0.00 0.00 0.00 0.00 0.00 0.00 0.00 0.00 0.00 0.00 0.00 0.00 0.00 0.00 0.00 0.00 0.00 0.00 0.00 0.00 0.02 0.06 0.09 0.20 0.19 0.12 0.17
1.97 1.65 1.10 0.61 0.22 0.12 0.19 0.29 0.25 0.08 0.00 0.00 0.00 0.00 0.02 0.01 0.00 0.00 0.00 0.00 0.00 0.00 0.00 0.00 0.00 0.00 0.00 0.00 0.00 0.00 0.00 0.00 0.00 0.00 0.00 0.00 0.00 0.00 0.00 0.01 0.04 0.12 0.20
0.78 0.71 0.64 0.46 0.25 0.15 0.13 0.18 0.20 0.11 0.00 0.00 0.02 0.03 0.03 0.00 0.01 0.02 0.00 0.00 0.00 0.00 0.00 0.00 0.00 0.00 0.00 0.00 0.00 0.00 0.00 0.00 0.00 0.00 0.00 0.00 0.00 0.00 0.00 0.00 0.00 0.01 0.07
0.31 0.31 0.26 0.23 0.26 0.39 0.28 0.19 0.14 0.04 0.04 0.06 0.07 0.03 0.01 0.02 0.04 0.00 0.00 0.00 0.00 0.00 0.00 0.00 0.00 0.00 0.00 0.00 0.00 0.00 0.00 0.00 0.00 0.00 0.00 0.00 0.00 0.00 0.00 0.00 0.00 0.00 0.02
0.16 0.11 0.17 0.11 0.13 0.16 0.19 0.17 0.08 0.09 0.07 0.09 0.08 0.03 0.00 0.00 0.00 0.00 0.00 0.00 0.00 0.00 0.00 0.00 0.00 0.00 0.00 0.00 0.00 0.00 0.00 0.00 0.00 0.00 0.00 0.00 0.00 0.00 0.00 0.00 0.00 0.00 0.00
0.14 0.15 0.15 0.19 0.18 0.16 0.09 0.11 0.16 0.20 0.14 0.15 0.26 0.14 0.04 0.02 0.01 0.00 0.00 0.00 0.00 0.00 0.00 0.00 0.00 0.00 0.00 0.00 0.00 0.00 0.00 0.00 0.00 0.00 0.00 0.00 0.00 0.00 0.00 0.00 0.00 0.00 0.00
0.01 0.07 0.23 0.68 0.22 0.11 0.08 0.09 0.15 0.06 0.05 0.16 0.23 0.21 0.07 0.01 0.04 0.02 0.00 0.00 0.00 0.00 0.00 0.00 0.00 0.00 0.00 0.00 0.00 0.00 0.00 0.00 0.00 0.00 0.00 0.00 0.00 0.00 0.00 0.00 0.00 0.00 0.00
0.01 0.06 0.44 0.79 0.47 0.17 0.13 0.16 0.16 0.16 0.10 0.17 0.21 0.17 0.14 0.11 0.09 0.04 0.01 0.00 0.00 0.00 0.00 0.00 0.00 0.00 0.00 0.00 0.00 0.00 0.00 0.00 0.00 0.00 0.00 0.00 0.00 0.00 0.00 0.00 0.00 0.00 0.00
0.03 0.15 0.43 0.54 0.57 0.57 0.61 0.55 0.27 0.09 0.09 0.18 0.16 0.15 0.08 0.08 0.08 0.04 0.02 0.00 0.00 0.00 0.00 0.00 0.00 0.00 0.00 0.00 0.00 0.00 0.00 0.00 0.00 0.00 0.00 0.00 0.00 0.00 0.00 0.00 0.00 0.00 0.00
0.08 0.31 0.54 0.61 0.93 1.15 0.69 0.22 0.08 0.09 0.08 0.13 0.11 0.10 0.07 0.04 0.05 0.01 0.01 0.00 0.00 0.00 0.00 0.00 0.00 0.00 0.00 0.00 0.00 0.00 0.00 0.00 0.00 0.00 0.00 0.00 0.00 0.00 0.00 0.00 0.00 0.00 0.00
0.18 0.41 0.62 0.96 0.92 0.32 0.10 0.07 0.05 0.06 0.13 0.21 0.17 0.15 0.13 0.03 0.04 0.01 0.00 0.01 0.00 0.00 0.00 0.00 0.00 0.00 0.00 0.00 0.00 0.00 0.00 0.00 0.00 0.00 0.00 0.00 0.00 0.00 0.00 0.00 0.00 0.00 0.00
0.44 0.44 0.31 0.14 0.12 0.02 0.02 0.05 0.05 0.06 0.11 0.18 0.14 0.11 0.19 0.12 0.04 0.01 0.02 0.02 0.00 0.00 0.00 0.00 0.00 0.00 0.00 0.00 0.00 0.00 0.00 0.00 0.00 0.00 0.00 0.00 0.00 0.00 0.00 0.00 0.00 0.00 0.00
0.05 0.02 0.06 0.08 0.13 0.04 0.02 0.01 0.01 0.06 0.12 0.10 0.17 0.17 0.15 0.14 0.13 0.06 0.02 0.00 0.00 0.00 0.00 0.00 0.00 0.00 0.00 0.00 0.00 0.00 0.00 0.00 0.00 0.00 0.00 0.00 0.02 0.01 0.01 0.01 0.01 0.01 0.00
0.02 0.03 0.06 0.11 0.14 0.04 0.01 0.00 0.01 0.06 0.08 0.16 0.17 0.13 0.10 0.09 0.10 0.09 0.05 0.04 0.00 0.00 0.00 0.00 0.00 0.00 0.00 0.00 0.00 0.00 0.00 0.02 0.03 0.02 0.00 0.00 0.00 0.01 0.02 0.01 0.03 0.04 0.05
0.04 0.07 0.08 0.11 0.15 0.08 0.01 0.06 0.12 0.14 0.15 0.16 0.13 0.10 0.08 0.08 0.06 0.04 0.03 0.02 0.01 0.00 0.00 0.00 0.00 0.00 0.01 0.00 0.00 0.00 0.00 0.00 0.02 0.05 0.03 0.01 0.01 0.02 0.02 0.03 0.05 0.08 0.14
0.05 0.08 0.10 0.12 0.19 0.09 0.06 0.07 0.13 0.17 0.13 0.09 0.08 0.06 0.05 0.06 0.05 0.04 0.04 0.03 0.02 0.01 0.00 0.01 0.04 0.03 0.01 0.00 0.00 0.00 0.00 0.01 0.02 0.04 0.04 0.01 0.03 0.04 0.05 0.12 0.20 0.15 0.15

GFSSE_prec_precacc_060.txt.gz
Total_Precipitation_Accumulation
0.31 0.05 0.08 0.23 0.12 0.13 0.07 0.04 0.03 0.06 0.09 0.05 0.04 0.04 0.01 0.00 0.02 0.02 0.01 0.03 0.02 0.01 0.01 0.00 0.00 0.01 0.03 0.00 0.00 0.00 0.02 0.05 0.02 0.04 0.13 0.08 0.14 0.10 0.17 0.28 0.19 0.34 0.32
0.34 0.10 0.09 0.22 0.10 0.14 0.14 0.08 0.04 0.06 0.07 0.04 0.03 0.02 0.01 0.00 0.01 0.01 0.01 0.02 0.02 0.02 0.01 0.00 0.00 0.00 0.03 0.01 0.00 0.00 0.01 0.05 0.05 0.03 0.10 0.17 0.23 0.14 0.18 0.21 0.19 0.37 0.43
0.90 0.16 0.13 0.24 0.05 0.07 0.11 0.11 0.06 0.02 0.01 0.01 0.01 0.00 0.00 0.00 0.00 0.00 0.00 0.00 0.01 0.01 0.00 0.00 0.00 0.00 0.01 0.01 0.00 0.00 0.00 0.02 0.05 0.06 0.13 0.13 0.09 0.27 0.29 0.20 0.17 0.24 0.29
0.29 0.22 0.16 0.15 0.06 0.02 0.03 0.01 0.01 0.02 0.00 0.00 0.00 0.00 0.00 0.00 0.00 0.00 0.00 0.00 0.00 0.01 0.00 0.00 0.00 0.00 0.00 0.00 0.01 0.00 0.01 0.03 0.05 0.06 0.08 0.08 0.12 0.32 0.37 0.19 0.17 0.20 0.32
0.24 0.16 0.25 0.15 0.13 0.06 0.01 0.01 0.02 0.03 0.02 0.01 0.01 0.01 0.01 0.00 0.00 0.00 0.00 0.00 0.01 0.01 0.00 0.00 0.00 0.00 0.00 0.00 0.00 0.00 0.00 0.02 0.02 0.02 0.10 0.16 0.44 0.69 0.33 0.23 0.15 0.13 0.21
0.93 0.63 0.52 0.57 0.47 0.16 0.01 0.00 0.00 0.00 0.00 0.00 0.00 0.00 0.00 0.00 0.00 0.00 0.00 0.00 0.01 0.00 0.00 0.00 0.00 0.00 0.00 0.00 0.00 0.00 0.00 0.00 0.02 0.00 0.06 0.38 0.42 0.87 1.04 0.30 0.19 0.21 0.18
2.32 1.41 0.96 1.45 1.08 0.26 0.02 0.00 0.00 0.00 0.00 0.00 0.00 0.00 0.00 0.00 0.00 0.00 0.00 0.00 0.00 0.00 0.00 0.00 0.00 0.00 0.00 0.00 0.00 0.00 0.00 0.01 0.01 0.00 0.15 0.52 1.16 0.85 1.12 0.88 0.23 0.22 0.21
5.03 4.80 2.46 2.00 1.52 0.40 0.12 0.02 0.00 0.00 0.00 0.00 0.00 0.00 0.00 0.00 0.00 0.00 0.00 0.00 0.00 0.00 0.00 0.00 0.00 0.00 0.00 0.00 0.00 0.00 0.00 0.00 0.00 0.03 0.09 0.38 0.86 0.51 0.35 0.37 0.20 0.14 0.10
5.94 8.65 7.58 2.81 1.17 0.63 0.47 0.08 0.01 0.02 0.01 0.00 0.00 0.00 0.00 0.00 0.00 0.00 0.00 0.00 0.00 0.00 0.00 0.00 0.00 0.00 0.00 0.00 0.00 0.00 0.00 0.00 0.00 0.01 0.02 0.05 0.06 0.16 0.28 0.26 0.22 0.16 0.12
7.04 5.86 5.88 3.67 2.02 1.12 0.76 0.26 0.09 0.06 0.04 0.00 0.00 0.00 0.00 0.00 0.00 0.00 0.00 0.00 0.00 0.00 0.00 0.00 0.00 0.00 0.00 0.00 0.00 0.00 0.00 0.00 0.00 0.00 0.00 0.00 0.04 0.12 0.29 0.29 0.19 0.18 0.17
3.35 3.71 3.10 1.87 1.03 0.90 0.69 0.48 0.27 0.17 0.04 0.00 0.00 0.00 0.00 0.00 0.00 0.00 0.00 0.00 0.00 0.00 0.00 0.00 0.00 0.00 0.00 0.00 0.00 0.00 0.00 0.00 0.00 0.00 0.00 0.00 0.02 0.06 0.09 0.20 0.19 0.12 0.17
1.99 1.70 1.14 0.64 0.23 0.15 0.28 0.31 0.27 0.16 0.09 0.01 0.00 0.00 0.02 0.01 0.00 0.00 0.00 0.00 0.00 0.00 0.00 0.00 0.00 0.00 0.00 0.00 0.00 0.00 0.00 0.00 0.00 0.00 0.00 0.00 0.00 0.00 0.00 0.01 0.04 0.12 0.20
0.79 0.75 0.71 0.48 0.26 0.15 0.14 0.18 0.21 0.13 0.06 0.01 0.02 0.03 0.03 0.00 0.01 0.02 0.00 0.00 0.00 0.00 0.00 0.00 0.00 0.00 0.00 0.00 0.00 0.00 0.00 0.00 0.00 0.00 0.00 0.00 0.00 0.00 0.00 0.00 0.00 0.01 0.07
0.33 0.35 0.29 0.32 0.32 0.44 0.30 0.21 0.17 0.12 0.07 0.07 0.08 0.04 0.01 0.02 0.04 0.00 0.00 0.00 0.00 0.00 0.00 0.00 0.00 0.00 0.00 0.00 0.00 0.00 0.00 0.00 0.00 0.00 0.00 0.00 0.00 0.00 0.00 0.00 0.00 0.00 0.02
0.20 0.23 0.23 0.13 0.17 0.18 0.21 0.22 0.18 0.23 0.11 0.10 0.08 0.03 0.00 0.00 0.00 0.00 0.00 0.00 0.00 0.00 0.00 0.00 0.00 0.00 0.00 0.00 0.00 0.00 0.00 0.00 0.00 0.00 0.00 0.00 0.00 0.00 0.00 0.00 0.00 0.00 0.00
0.20 0.22 0.21 0.23 0.22 0.21 0.20 0.27 0.25 0.24 0.15 0.15 0.26 0.14 0.04 0.02 0.01 0.00 0.00 0.00 0.00 0.00 0.00 0.00 0.00 0.00 0.00 0.00 0.00 0.00 0.00 0.00 0.00 0.00 0.00 0.00 0.00 0.00 0.00 0.00 0.00 0.00 0.00
0.02 0.11 0.29 0.72 0.31 0.17 0.20 0.26 0.23 0.09 0.05 0.16 0.23 0.21 0.07 0.02 0.04 0.02 0.00 0.00 0.00 0.00 0.00 0.00 0.00 0.00 0.00 0.00 0.00 0.00 0.00 0.00 0.00 0.00 0.00 0.00 0.00 0.00 0.00 0.00 0.00 0.00 0.00
0.01 0.06 0.46 0.81 0.49 0.19 0.16 0.19 0.19 0.17 0.12 0.17 0.21 0.17 0.15 0.11 0.09 0.04 0.01 0.00 0.00 0.00 0.00 0.00 0.00 0.00 0.00 0.00 0.00 0.00 0.00 0.00 0.00 0.00 0.00 0.00 0.00 0.00 0.00 0.00 0.00 0.00 0.00
0.03 0.15 0.43 0.54 0.58 0.57 0.61 0.55 0.29 0.12 0.10 0.18 0.16 0.15 0.08 0.08 0.08 0.04 0.02 0.00 0.00 0.00 0.00 0.00 0.00 0.00 0.00 0.00 0.00 0.00 0.00 0.00 0.00 0.00 0.00 0.00 0.00 0.00 0.00 0.00 0.00 0.00 0.00
0.08 0.31 0.54 0.61 0.93 1.16 0.71 0.24 0.09 0.12 0.08 0.13 0.11 0.10 0.09 0.06 0.08 0.02 0.01 0.01 0.00 0.00 0.00 0.00 0.00 0.00 0.00 0.00 0.00 0.00 0.00 0.00 0.00 0.00 0.00 0.00 0.00 0.00 0.00 0.00 0.00 0.00 0.00
0.18 0.41 0.62 0.96 0.92 0.32 0.11 0.07 0.05 0.06 0.13 0.21 0.17 0.15 0.14 0.07 0.13 0.11 0.07 0.10 0.01 0.00 0.00 0.00 0.00 0.00 0.00 0.00 0.00 0.00 0.00 0.00 0.00 0.00 0.00 0.00 0.00 0.00 0.00 0.00 0.00 0.00 0.00
0.44 0.44 0.31 0.14 0.12 0.02 0.02 0.05 0.05 0.06 0.11 0.18 0.14 0.12 0.22 0.15 0.10 0.06 0.09 0.16 0.05 0.05 0.00 0.00 0.00 0.00 0.00 0.00 0.00 0.00 0.00 0.00 0.00 0.00 0.00 0.00 0.00 0.00 0.00 0.00 0.00 0.00 0.00
0.05 0.02 0.06 0.08 0.13 0.04 0.02 0.01 0.01 0.06 0.12 0.10 0.17 0.17 0.16 0.15 0.20 0.10 0.06 0.08 0.07 0.03 0.00 0.00 0.00 0.00 0.00 0.00 0.00 0.00 0.00 0.00 0.00 0.00 0.00 0.00 0.02 0.01 0.01 0.01 0.01 0.01 0.00
0.02 0.03 0.06 0.11 0.14 0.04 0.01 0.00 0.01 0.06 0.08 0.16 0.17 0.13 0.10 0.09 0.11 0.12 0.09 0.10 0.14 0.12 0.10 0.03 0.00 0.00 0.00 0.00 0.00 0.00 0.00 0.02 0.03 0.02 0.00 0.00 0.00 0.01 0.02 0.01 0.03 0.04 0.05
0.04 0.07 0.08 0.11 0.15 0.08 0.01 0.06 0.12 0.14 0.15 0.16 0.13 0.10 0.08 0.08 0.07 0.05 0.03 0.02 0.03 0.02 0.02 0.03 0.03 0.02 0.03 0.01 0.00 0.00 0.00 0.00 0.02 0.05 0.03 0.01 0.01 0.02 0.02 0.03 0.05 0.08 0.14
0.05 0.08 0.10 0.12 0.19 0.09 0.06 0.07 0.13 0.17 0.13 0.09 0.08 0.09 0.06 0.07 0.07 0.04 0.04 0.03 0.03 0.03 0.04 0.12 0.20 0.14 0.14 0.07 0.01 0.00 0.00 0.01 0.02 0.04 0.04 0.01 0.03 0.04 0.05 0.12 0.20 0.15 0.15

GFSSE_prec_precacc_063.txt.gz
Total_Precipitation_Accumulation
0.51 0.08 0.15 0.25 0.12 0.13 0.07 0.04 0.03 0.06 0.09 0.05 0.04 0.04 0.01 0.00 0.02 0.02 0.01 0.03 0.02 0.01 0.01 0.00 0.00 0.01 0.03 0.00 0.00 0.00 0.02 0.05 0.02 0.04 0.13 0.08 0.14 0.10 0.17 0.28 0.19 0.34 0.32
0.70 0.37 0.51 0.29 0.10 0.14 0.14 0.08 0.04 0.06 0.07 0.04 0.03 0.02 0.01 0.00 0.01 0.01 0.01 0.02 0.02 0.02 0.01 0.00 0.00 0.00 0.03 0.01 0.00 0.00 0.01 0.06 0.05 0.03 0.10 0.17 0.23 0.15 0.18 0.21 0.19 0.37 0.43
1.57 0.85 0.79 0.74 0.08 0.07 0.11 0.11 0.06 0.02 0.01 0.01 0.01 0.00 0.00 0.00 0.00 0.01 0.00 0.00 0.01 0.01 0.00 0.00 0.00 0.00 0.01 0.01 0.00 0.00 0.01 0.02 0.05 0.06 0.13 0.13 0.09 0.27 0.30 0.21 0.17 0.24 0.29
0.31 0.38 0.50 1.07 0.33 0.06 0.03 0.01 0.01 0.02 0.00 0.00 0.00 0.00 0.00 0.00 0.00 0.00 0.00 0.00 0.00 0.01 0.00 0.00 0.00 0.00 0.00 0.00 0.01 0.00 0.01 0.03 0.05 0.06 0.08 0.08 0.12 0.32 0.37 0.19 0.17 0.20 0.32
0.25 0.17 0.36 0.66 0.41 0.09 0.01 0.01 0.02 0.03 0.02 0.01 0.01 0.01 0.01 0.01 0.00 0.00 0.00 0.00 0.01 0.01 0.00 0.00 0.00 0.00 0.00 0.00 0.00 0.00 0.00 0.02 0.02 0.02 0.10 0.16 0.44 0.69 0.33 0.23 0.15 0.13 0.21
0.97 0.66 0.68 0.74 0.48 0.16 0.01 0.00 0.00 0.00 0.00 0.00 0.00 0.00 0.00 0.00 0.00 0.00 0.00 0.00 0.01 0.00 0.00 0.00 0.00 0.00 0.00 0.00 0.00 0.00 0.00 0.00 0.02 0.00 0.06 0.38 0.42 0.87 1.04 0.30 0.19 0.21 0.18
2.54 1.75 1.37 1.70 1.17 0.28 0.04 0.01 0.00 0.00 0.00 0.00 0.00 0.00 0.01 0.00 0.00 0.00 0.00 0.00 0.00 0.00 0.00 0.00 0.00 0.00 0.00 0.00 0.00 0.00 0.00 0.01 0.01 0.00 0.15 0.52 1.16 0.85 1.12 0.88 0.23 0.22 0.21
5.46 5.56 3.51 3.15 2.09 0.68 0.31 0.07 0.02 0.00 0.00 0.00 0.00 0.01 0.01 0.01 0.00 0.00 0.00 0.00 0.00 0.00 0.00 0.00 0.00 0.00 0.00 0.00 0.00 0.00 0.00 0.00 0.00 0.03 0.09 0.38 0.86 0.51 0.35 0.37 0.20 0.14 0.10
6.29 9.07 8.95 4.79 3.12 2.13 1.70 0.80 0.29 0.06 0.02 0.01 0.01 0.01 0.02 0.00 0.00 0.00 0.00 0.00 0.00 0.00 0.00 0.00 0.00 0.00 0.00 0.00 0.00 0.00 0.00 0.00 0.00 0.01 0.02 0.05 0.06 0.16 0.28 0.26 0.22 0.16 0.12
7.14 6.05 6.05 4.09 2.81 2.33 1.67 1.21 0.64 0.23 0.06 0.01 0.01 0.02 0.02 0.00 0.00 0.00 0.00 0.00 0.00 0.00 0.00 0.00 0.00 0.00 0.00 0.00 0.00 0.00 0.00 0.00 0.00 0.00 0.00 0.00 0.04 0.12 0.29 0.29 0.19 0.18 0.17
3.35 3.73 3.11 1.88 1.05 1.09 0.97 0.84 0.64 0.37 0.09 0.03 0.03 0.08 0.07 0.03 0.00 0.00 0.00 0.00 0.00 0.00 0.00 0.00 0.00 0.00 0.00 0.00 0.00 0.00 0.00 0.00 0.00 0.00 0.00 0.00 0.02 0.06 0.09 0.20 0.19 0.12 0.17
1.99 1.70 1.14 0.64 0.23 0.15 0.29 0.38 0.42 0.30 0.18 0.02 0.02 0.02 0.06 0.02 0.00 0.00 0.00 0.00 0.00 0.00 0.00 0.00 0.00 0.00 0.00 0.00 0.00 0.00 0.00 0.00 0.00 0.00 0.00 0.00 0.00 0.00 0.00 0.01 0.04 0.12 0.20
0.79 0.76 0.72 0.49 0.26 0.15 0.14 0.18 0.21 0.13 0.08 0.02 0.03 0.03 0.03 0.00 0.01 0.02 0.00 0.00 0.00 0.00 0.00 0.00 0.00 0.00 0.00 0.00 0.00 0.00 0.00 0.00 0.00 0.00 0.00 0.00 0.00 0.00 0.00 0.00 0.00 0.01 0.07
0.37 0.40 0.31 0.34 0.34 0.46 0.30 0.21 0.17 0.13 0.09 0.08 0.08 0.04 0.01 0.02 0.04 0.00 0.00 0.00 0.00 0.00 0.00 0.00 0.00 0.00 0.00 0.00 0.00 0.00 0.00 0.00 0.00 0.00 0.00 0.00 0.00 0.00 0.00 0.00 0.00 0.00 0.02
0.25 0.32 0.34 0.15 0.24 0.22 0.22 0.23 0.18 0.24 0.13 0.11 0.09 0.04 0.00 0.00 0.00 0.00 0.00 0.00 0.00 0.00 0.00 0.00 0.00 0.00 0.00 0.00 0.00 0.00 0.00 0.00 0.00 0.00 0.00 0.00 0.00 0.00 0.00 0.00 0.00 0.00 0.00
0.21 0.30 0.35 0.32 0.28 0.23 0.20 0.28 0.25 0.24 0.16 0.16 0.26 0.14 0.04 0.02 0.01 0.00 0.00 0.00 0.00 0.00 0.00 0.00 0.00 0.00 0.00 0.00 0.00 0.00 0.00 0.00 0.00 0.00 0.00 0.00 0.00 0.00 0.00 0.00 0.00 0.00 0.00
0.05 0.12 0.38 0.78 0.35 0.19 0.21 0.27 0.28 0.12 0.06 0.16 0.24 0.21 0.07 0.02 0.04 0.02 0.00 0.00 0.00 0.00 0.00 0.00 0.00 0.00 0.00 0.00 0.00 0.00 0.00 0.00 0.00 0.00 0.00 0.00 0.00 0.00 0.00 0.00 0.00 0.00 0.00
0.02 0.07 0.47 0.86 0.52 0.20 0.16 0.20 0.21 0.18 0.12 0.17 0.22 0.17 0.15 0.11 0.09 0.04 0.01 0.00 0.00 0.00 0.00 0.00 0.00 0.00 0.00 0.00 0.00 0.00 0.00 0.00 0.00 0.00 0.00 0.00 0.00 0.00 0.00 0.00 0.00 0.00 0.00
0.03 0.15 0.43 0.55 0.58 0.57 0.61 0.55 0.29 0.12 0.10 0.18 0.17 0.16 0.08 0.08 0.08 0.04 0.02 0.00 0.00 0.00 0.00 0.00 0.00 0.00 0.00 0.00 0.00 0.00 0.00 0.00 0.00 0.00 0.00 0.00 0.00 0.00 0.00 0.00 0.00 0.00 0.00
0.08 0.31 0.54 0.61 0.93 1.16 0.71 0.24 0.09 0.13 0.08 0.13 0.11 0.10 0.10 0.06 0.08 0.02 0.01 0.01 0.00 0.00 0.00 0.00 0.00 0.00 0.00 0.00 0.00 0.00 0.00 0.00 0.00 0.00 0.00 0.00 0.00 0.00 0.00 0.00 0.00 0.00 0.00
0.18 0.41 0.62 0.96 0.92 0.32 0.11 0.07 0.05 0.07 0.13 0.21 0.17 0.15 0.15 0.08 0.13 0.11 0.07 0.10 0.01 0.01 0.00 0.00 0.00 0.00 0.00 0.00 0.00 0.00 0.00 0.00 0.00 0.00 0.00 0.00 0.00 0.00 0.00 0.00 0.00 0.00 0.00
0.44 0.44 0.31 0.14 0.12 0.02 0.02 0.05 0.05 0.06 0.11 0.18 0.14 0.12 0.22 0.15 0.11 0.07 0.13 0.26 0.12 0.09 0.01 0.00 0.00 0.00 0.00 0.00 0.00 0.00 0.00 0.00 0.00 0.00 0.00 0.00 0.00 0.00 0.00 0.00 0.00 0.00 0.00
0.05 0.02 0.06 0.08 0.13 0.04 0.02 0.01 0.01 0.06 0.12 0.10 0.17 0.17 0.16 0.15 0.20 0.13 0.16 0.20 0.15 0.08 0.03 0.00 0.00 0.00 0.00 0.00 0.00 0.00 0.00 0.00 0.00 0.00 0.00 0.00 0.02 0.01 0.01 0.01 0.01 0.01 0.00
0.02 0.03 0.06 0.11 0.14 0.04 0.01 0.00 0.01 0.06 0.08 0.16 0.17 0.13 0.10 0.09 0.11 0.12 0.15 0.16 0.18 0.13 0.11 0.05 0.02 0.01 0.03 0.06 0.05 0.01 0.01 0.02 0.03 0.02 0.00 0.00 0.00 0.01 0.02 0.01 0.03 0.04 0.05
0.04 0.07 0.08 0.11 0.15 0.08 0.01 0.06 0.12 0.14 0.15 0.16 0.13 0.10 0.08 0.08 0.07 0.05 0.03 0.03 0.03 0.03 0.02 0.04 0.05 0.12 0.19 0.21 0.18 0.10 0.09 0.09 0.06 0.05 0.03 0.01 0.01 0.02 0.02 0.03 0.05 0.08 0.14
0.05 0.08 0.10 0.12 0.19 0.09 0.06 0.07 0.13 0.17 0.14 0.10 0.08 0.09 0.06 0.07 0.08 0.07 0.05 0.03 0.03 0.03 0.04 0.12 0.27 0.30 0.27 0.25 0.25 0.21 0.12 0.09 0.05 0.05 0.04 0.01 0.03 0.04 0.05 0.12 0.20 0.15 0.15

GFSSE_prec_precacc_066.txt.gz
Total_Precipitation_Accumulation
0.54 0.12 0.17 0.27 0.13 0.13 0.07 0.04 0.03 0.06 0.09 0.05 0.04 0.04 0.01 0.00 0.02 0.02 0.01 0.03 0.02 0.01 0.01 0.00 0.00 0.01 0.03 0.00 0.00 0.00 0.02 0.05 0.02 0.04 0.13 0.08 0.14 0.10 0.17 0.28 0.19 0.35 0.33
0.70 0.37 0.53 0.31 0.12 0.15 0.15 0.08 0.04 0.06 0.07 0.04 0.03 0.02 0.01 0.00 0.01 0.01 0.01 0.02 0.02 0.02 0.01 0.00 0.00 0.00 0.03 0.01 0.00 0.00 0.01 0.06 0.05 0.03 0.10 0.17 0.24 0.15 0.18 0.21 0.20 0.37 0.43
1.59 0.94 0.80 0.93 0.29 0.16 0.12 0.11 0.06 0.02 0.01 0.01 0.01 0.00 0.00 0.00 0.00 0.01 0.00 0.00 0.01 0.01 0.00 0.00 0.00 0.00 0.01 0.01 0.01 0.01 0.01 0.02 0.05 0.06 0.13 0.13 0.09 0.28 0.30 0.21 0.18 0.25 0.30
0.31 0.42 0.56 1.15 0.92 0.72 0.25 0.01 0.01 0.02 0.00 0.00 0.00 0.00 0.00 0.00 0.00 0.00 0.00 0.00 0.00 0.01 0.00 0.00 0.00 0.00 0.00 0.00 0.01 0.00 0.01 0.03 0.05 0.06 0.08 0.08 0.12 0.32 0.37 0.19 0.17 0.20 0.33
0.25 0.17 0.36 0.84 1.13 0.60 0.51 0.11 0.02 0.03 0.02 0.01 0.01 0.01 0.01 0.01 0.00 0.00 0.00 0.00 0.01 0.01 0.00 0.00 0.00 0.00 0.00 0.00 0.00 0.00 0.00 0.02 0.02 0.02 0.10 0.16 0.44 0.69 0.33 0.23 0.15 0.14 0.22
0.97 0.67 0.69 0.81 0.73 0.46 0.46 0.18 0.03 0.01 0.00 0.00 0.01 0.01 0.01 0.01 0.00 0.00 0.00 0.00 0.01 0.00 0.00 0.00 0.00 0.00 0.00 0.00 0.00 0.00 0.00 0.00 0.02 0.00 0.06 0.38 0.42 0.87 1.04 0.30 0.19 0.21 0.18
2.57 1.85 1.54 2.10 1.50 0.51 0.25 0.12 0.03 0.01 0.00 0.00 0.00 0.01 0.01 0.00 0.00 0.00 0.00 0.00 0.00 0.00 0.00 0.00 0.00 0.00 0.00 0.00 0.00 0.00 0.00 0.01 0.01 0.00 0.15 0.52 1.16 0.85 1.12 0.88 0.23 0.22 0.21
5.60 5.95 3.87 4.09 4.45 2.42 0.80 0.14 0.03 0.00 0.00 0.01 0.02 0.03 0.01 0.01 0.00 0.00 0.00 0.00 0.00 0.00 0.00 0.00 0.00 0.00 0.00 0.00 0.00 0.00 0.00 0.00 0.00 0.03 0.09 0.38 0.86 0.51 0.35 0.37 0.20 0.14 0.10
6.43 9.41 9.38 5.80 5.30 4.37 4.55 1.82 0.50 0.13 0.02 0.02 0.04 0.05 0.03 0.00 0.00 0.00 0.00 0.00 0.00 0.00 0.00 0.00 0.00 0.00 0.00 0.00 0.00 0.00 0.00 0.00 0.00 0.01 0.02 0.05 0.06 0.16 0.28 0.26 0.22 0.16 0.12
7.28 6.23 6.24 4.37 3.79 3.52 3.30 2.69 1.28 0.49 0.09 0.06 0.09 0.10 0.05 0.00 0.00 0.00 0.00 0.00 0.00 0.00 0.00 0.00 0.00 0.00 0.00 0.00 0.00 0.00 0.00 0.00 0.00 0.00 0.00 0.00 0.04 0.12 0.29 0.29 0.19 0.18 0.17
3.43 3.81 3.18 1.96 1.23 1.53 1.47 1.52 1.49 0.75 0.21 0.08 0.06 0.11 0.08 0.04 0.00 0.00 0.00 0.00 0.00 0.00 0.00 0.00 0.00 0.00 0.00 0.00 0.00 0.00 0.00 0.00 0.00 0.00 0.00 0.00 0.02 0.06 0.09 0.20 0.19 0.12 0.17
2.00 1.71 1.15 0.65 0.23 0.19 0.34 0.45 0.60 0.51 0.24 0.08 0.06 0.07 0.09 0.03 0.00 0.00 0.00 0.00 0.00 0.00 0.00 0.00 0.00 0.00 0.00 0.00 0.00 0.00 0.00 0.00 0.00 0.00 0.00 0.00 0.00 0.00 0.00 0.01 0.04 0.12 0.20
0.82 0.77 0.72 0.49 0.26 0.15 0.15 0.19 0.22 0.16 0.09 0.03 0.06 0.06 0.04 0.01 0.01 0.02 0.00 0.00 0.00 0.00 0.00 0.00 0.00 0.00 0.00 0.00 0.00 0.00 0.00 0.00 0.00 0.00 0.00 0.00 0.00 0.00 0.00 0.00 0.00 0.01 0.07
0.40 0.43 0.31 0.34 0.34 0.46 0.30 0.21 0.17 0.13 0.09 0.09 0.08 0.04 0.01 0.02 0.04 0.00 0.00 0.00 0.00 0.00 0.00 0.00 0.00 0.00 0.00 0.00 0.00 0.00 0.00 0.00 0.00 0.00 0.00 0.00 0.00 0.00 0.00 0.00 0.00 0.00 0.02
0.26 0.37 0.36 0.16 0.24 0.22 0.22 0.23 0.18 0.24 0.13 0.11 0.09 0.04 0.00 0.00 0.00 0.00 0.00 0.00 0.00 0.00 0.00 0.00 0.00 0.00 0.00 0.00 0.00 0.00 0.00 0.00 0.00 0.00 0.00 0.00 0.00 0.00 0.00 0.00 0.00 0.00 0.00
0.23 0.36 0.42 0.37 0.31 0.28 0.21 0.28 0.25 0.24 0.16 0.16 0.26 0.14 0.04 0.02 0.01 0.00 0.00 0.00 0.00 0.00 0.00 0.00 0.00 0.00 0.00 0.00 0.00 0.00 0.00 0.00 0.00 0.00 0.00 0.00 0.00 0.00 0.00 0.00 0.00 0.00 0.00
0.06 0.17 0.54 0.92 0.38 0.22 0.22 0.28 0.29 0.12 0.06 0.16 0.24 0.21 0.07 0.02 0.04 0.02 0.00 0.00 0.00 0.00 0.00 0.00 0.00 0.00 0.00 0.00 0.00 0.00 0.00 0.00 0.00 0.00 0.00 0.00 0.00 0.00 0.00 0.00 0.00 0.00 0.00
0.02 0.08 0.57 0.95 0.55 0.21 0.16 0.21 0.21 0.18 0.12 0.17 0.22 0.17 0.15 0.11 0.09 0.04 0.01 0.00 0.00 0.00 0.00 0.00 0.00 0.00 0.00 0.00 0.00 0.00 0.00 0.00 0.00 0.00 0.00 0.00 0.00 0.00 0.00 0.00 0.00 0.00 0.00
0.03 0.16 0.46 0.57 0.58 0.58 0.61 0.55 0.29 0.12 0.10 0.18 0.17 0.16 0.09 0.08 0.08 0.04 0.02 0.00 0.00 0.00 0.00 0.00 0.00 0.00 0.00 0.00 0.00 0.00 0.00 0.00 0.00 0.00 0.00 0.00 0.00 0.00 0.00 0.00 0.00 0.00 0.00
0.08 0.31 0.55 0.62 0.93 1.16 0.71 0.24 0.10 0.13 0.08 0.13 0.11 0.11 0.10 0.06 0.08 0.02 0.01 0.01 0.00 0.00 0.00 0.00 0.00 0.00 0.00 0.00 0.00 0.00 0.00 0.00 0.00 0.00 0.00 0.00 0.00 0.00 0.00 0.00 0.00 0.00 0.00
0.18 0.41 0.62 0.97 0.92 0.32 0.11 0.08 0.05 0.07 0.13 0.21 0.17 0.15 0.15 0.08 0.13 0.11 0.07 0.10 0.01 0.01 0.00 0.00 0.00 0.00 0.00 0.00 0.00 0.00 0.00 0.00 0.00 0.00 0.00 0.00 0.00 0.00 0.00 0.00 0.00 0.00 0.00
0.44 0.44 0.31 0.14 0.12 0.02 0.02 0.05 0.05 0.06 0.11 0.18 0.14 0.12 0.22 0.15 0.11 0.07 0.13 0.26 0.12 0.09 0.02 0.02 0.00 0.00 0.00 0.00 0.00 0.00 0.00 0.00 0.00 0.00 0.00 0.00 0.00 0.00 0.00 0.00 0.00 0.00 0.00
0.05 0.02 0.06 0.08 0.13 0.04 0.02 0.01 0.01 0.06 0.12 0.10 0.17 0.17 0.16 0.15 0.20 0.13 0.16 0.20 0.15 0.08 0.03 0.01 0.01 0.00 0.00 0.00 0.00 0.01 0.01 0.00 0.00 0.00 0.00 0.00 0.02 0.01 0.01 0.01 0.01 0.01 0.00
0.02 0.03 0.06 0.11 0.14 0.04 0.01 0.00 0.01 0.06 0.08 0.16 0.17 0.13 0.10 0.09 0.11 0.12 0.15 0.16 0.18 0.13 0.12 0.07 0.02 0.01 0.03 0.06 0.09 0.08 0.05 0.04 0.05 0.05 0.01 0.00 0.00 0.01 0.02 0.01 0.03 0.04 0.05
0.04 0.07 0.08 0.11 0.15 0.08 0.01 0.06 0.12 0.14 0.15 0.16 0.13 0.10 0.08 0.08 0.07 0.05 0.04 0.03 0.03 0.04 0.06 0.07 0.07 0.13 0.20 0.24 0.25 0.16 0.13 0.14 0.15 0.16 0.08 0.02 0.01 0.02 0.02 0.03 0.05 0.08 0.14
0.05 0.08 0.10 0.12 0.19 0.09 0.06 0.07 0.13 0.17 0.14 0.10 0.08 0.09 0.06 0.07 0.08 0.07 0.05 0.04 0.04 0.07 0.07 0.14 0.29 0.32 0.29 0.27 0.27 0.24 0.15 0.13 0.13 0.13 0.08 0.02 0.03 0.04 0.05 0.12 0.20 0.15 0.15

GFSSE_prec_precacc_069.txt.gz
Total_Precipitation_Accumulation
0.54 0.12 0.17 0.27 0.13 0.13 0.07 0.04 0.03 0.06 0.09 0.05 0.04 0.04 0.01 0.00 0.02 0.02 0.01 0.03 0.02 0.01 0.01 0.00 0.00 0.01 0.03 0.00 0.00 0.00 0.02 0.05 0.02 0.04 0.13 0.08 0.15 0.10 0.17 0.28 0.19 0.35 0.35
0.71 0.37 0.53 0.31 0.12 0.15 0.15 0.08 0.04 0.06 0.07 0.04 0.03 0.02 0.01 0.00 0.01 0.01 0.01 0.02 0.02 0.02 0.01 0.00 0.00 0.00 0.03 0.01 0.00 0.00 0.01 0.06 0.05 0.04 0.11 0.18 0.25 0.16 0.19 0.21 0.20 0.38 0.45
1.60 0.94 0.80 0.93 0.29 0.21 0.16 0.12 0.06 0.02 0.01 0.01 0.01 0.00 0.00 0.00 0.00 0.01 0.00 0.00 0.01 0.01 0.00 0.00 0.00 0.00 0.02 0.01 0.01 0.01 0.01 0.02 0.05 0.06 0.13 0.13 0.10 0.28 0.30 0.21 0.19 0.26 0.31
0.35 0.42 0.56 1.15 0.94 0.73 0.45 0.21 0.09 0.03 0.00 0.00 0.00 0.01 0.01 0.00 0.00 0.00 0.00 0.00 0.00 0.01 0.00 0.00 0.00 0.00 0.00 0.00 0.01 0.00 0.01 0.03 0.05 0.06 0.08 0.08 0.12 0.32 0.38 0.19 0.18 0.21 0.33
0.28 0.19 0.36 0.86 1.15 0.60 0.57 0.39 0.23 0.13 0.03 0.01 0.01 0.02 0.01 0.01 0.00 0.00 0.00 0.00 0.01 0.01 0.00 0.00 0.00 0.00 0.00 0.00 0.00 0.00 0.00 0.02 0.02 0.02 0.10 0.16 0.44 0.69 0.33 0.24 0.16 0.14 0.22
0.98 0.71 0.74 1.02 1.01 0.54 0.50 0.33 0.34 0.23 0.05 0.00 0.01 0.01 0.01 0.01 0.00 0.00 0.00 0.00 0.01 0.00 0.00 0.00 0.00 0.00 0.00 0.00 0.00 0.00 0.00 0.00 0.02 0.00 0.06 0.38 0.42 0.87 1.04 0.31 0.20 0.22 0.19
2.58 1.87 1.57 2.23 1.78 0.96 0.61 0.46 0.31 0.46 0.14 0.01 0.01 0.02 0.01 0.00 0.00 0.00 0.00 0.00 0.00 0.00 0.00 0.00 0.00 0.00 0.00 0.00 0.00 0.00 0.00 0.01 0.01 0.00 0.15 0.52 1.16 0.85 1.13 0.88 0.24 0.23 0.21
5.67 6.09 4.00 4.23 4.74 3.50 1.99 0.82 0.43 0.23 0.18 0.02 0.02 0.03 0.01 0.01 0.00 0.00 0.00 0.00 0.00 0.00 0.00 0.00 0.00 0.00 0.00 0.00 0.00 0.00 0.00 0.00 0.00 0.03 0.09 0.38 0.86 0.51 0.35 0.37 0.20 0.14 0.10
6.61 9.69 9.78 6.33 5.65 4.88 5.48 3.44 1.01 0.34 0.17 0.04 0.04 0.05 0.03 0.00 0.00 0.00 0.00 0.00 0.00 0.00 0.00 0.00 0.00 0.00 0.00 0.00 0.00 0.00 0.00 0.00 0.00 0.01 0.02 0.05 0.06 0.16 0.28 0.26 0.22 0.16 0.12
7.42 6.39 6.50 4.90 4.29 4.13 4.13 4.78 2.74 1.24 0.32 0.11 0.10 0.11 0.05 0.00 0.00 0.00 0.00 0.00 0.00 0.00 0.00 0.00 0.00 0.00 0.00 0.00 0.00 0.00 0.00 0.00 0.00 0.00 0.00 0.00 0.04 0.12 0.29 0.29 0.19 0.18 0.17
3.46 3.88 3.37 2.13 1.35 1.67 1.87 2.33 2.57 1.83 0.79 0.24 0.11 0.12 0.08 0.04 0.00 0.00 0.00 0.00 0.00 0.00 0.00 0.00 0.00 0.00 0.00 0.00 0.00 0.00 0.00 0.00 0.00 0.00 0.00 0.00 0.02 0.06 0.09 0.20 0.19 0.12 0.17
2.03 1.73 1.21 0.71 0.27 0.23 0.42 0.63 1.02 1.10 0.77 0.43 0.20 0.09 0.09 0.03 0.00 0.00 0.00 0.00 0.00 0.00 0.00 0.00 0.00 0.00 0.00 0.00 0.00 0.00 0.00 0.00 0.00 0.00 0.00 0.00 0.00 0.00 0.00 0.01 0.04 0.12 0.20
0.83 0.78 0.72 0.49 0.26 0.15 0.15 0.21 0.28 0.26 0.34 0.22 0.19 0.11 0.04 0.01 0.01 0.02 0.00 0.00 0.00 0.00 0.00 0.00 0.00 0.00 0.00 0.00 0.00 0.00 0.00 0.00 0.00 0.00 0.00 0.00 0.00 0.00 0.00 0.00 0.00 0.01 0.07
0.42 0.44 0.31 0.34 0.34 0.46 0.30 0.21 0.17 0.14 0.13 0.16 0.14 0.07 0.01 0.02 0.04 0.00 0.00 0.00 0.00 0.00 0.00 0.00 0.00 0.00 0.00 0.00 0.00 0.00 0.00 0.00 0.00 0.00 0.00 0.00 0.00 0.00 0.00 0.00 0.00 0.00 0.02
0.28 0.38 0.36 0.16 0.24 0.22 0.22 0.23 0.18 0.24 0.13 0.12 0.12 0.04 0.00 0.00 0.00 0.00 0.00 0.00 0.00 0.00 0.00 0.00 0.00 0.00 0.00 0.00 0.00 0.00 0.00 0.00 0.00 0.00 0.00 0.00 0.00 0.00 0.00 0.00 0.00 0.00 0.00
0.24 0.37 0.45 0.39 0.34 0.28 0.21 0.28 0.26 0.24 0.16 0.18 0.27 0.15 0.04 0.02 0.01 0.00 0.00 0.00 0.00 0.00 0.00 0.00 0.00 0.00 0.00 0.00 0.00 0.00 0.00 0.00 0.00 0.00 0.00 0.00 0.00 0.00 0.00 0.00 0.00 0.00 0.00
0.07 0.20 0.60 0.97 0.47 0.29 0.26 0.29 0.29 0.13 0.07 0.17 0.24 0.21 0.07 0.02 0.04 0.02 0.00 0.00 0.00 0.00 0.00 0.00 0.00 0.00 0.00 0.00 0.00 0.00 0.00 0.00 0.00 0.00 0.00 0.00 0.00 0.00 0.00 0.00 0.00 0.00 0.00
0.03 0.11 0.64 1.17 0.75 0.34 0.20 0.24 0.24 0.19 0.13 0.18 0.22 0.17 0.15 0.11 0.09 0.04 0.01 0.00 0.00 0.00 0.00 0.00 0.00 0.00 0.00 0.00 0.00 0.00 0.00 0.00 0.00 0.00 0.00 0.00 0.00 0.00 0.00 0.00 0.00 0.00 0.00
0.04 0.17 0.47 0.71 0.77 0.65 0.62 0.56 0.30 0.12 0.10 0.18 0.17 0.16 0.09 0.08 0.08 0.04 0.02 0.00 0.00 0.00 0.00 0.00 0.00 0.00 0.00 0.00 0.00 0.00 0.00 0.00 0.00 0.00 0.00 0.00 0.00 0.00 0.00 0.00 0.00 0.00 0.00
0.08 0.31 0.56 0.68 0.99 1.20 0.72 0.24 0.10 0.13 0.08 0.13 0.11 0.11 0.10 0.06 0.08 0.02 0.01 0.01 0.00 0.00 0.00 0.00 0.00 0.00 0.00 0.00 0.00 0.00 0.00 0.00 0.00 0.00 0.00 0.00 0.00 0.00 0.00 0.00 0.00 0.00 0.00
0.18 0.41 0.63 0.99 0.92 0.32 0.11 0.08 0.06 0.07 0.13 0.21 0.17 0.15 0.15 0.08 0.13 0.11 0.07 0.10 0.01 0.01 0.00 0.00 0.00 0.00 0.00 0.00 0.00 0.00 0.00 0.00 0.00 0.00 0.00 0.00 0.00 0.00 0.00 0.00 0.00 0.00 0.00
0.44 0.44 0.31 0.14 0.12 0.02 0.02 0.05 0.05 0.06 0.11 0.18 0.14 0.12 0.22 0.15 0.11 0.07 0.13 0.26 0.12 0.09 0.02 0.02 0.00 0.00 0.00 0.00 0.00 0.00 0.00 0.00 0.00 0.00 0.00 0.00 0.00 0.00 0.00 0.00 0.00 0.00 0.00
0.05 0.02 0.06 0.08 0.13 0.04 0.02 0.01 0.01 0.06 0.12 0.10 0.17 0.17 0.16 0.15 0.20 0.13 0.16 0.20 0.15 0.08 0.03 0.01 0.01 0.00 0.00 0.00 0.00 0.01 0.01 0.01 0.00 0.00 0.00 0.00 0.02 0.01 0.01 0.01 0.01 0.01 0.00
0.02 0.03 0.06 0.11 0.14 0.04 0.01 0.00 0.01 0.06 0.08 0.16 0.17 0.13 0.10 0.09 0.11 0.12 0.15 0.16 0.18 0.13 0.12 0.07 0.02 0.02 0.05 0.08 0.10 0.08 0.07 0.05 0.06 0.05 0.01 0.00 0.00 0.02 0.02 0.01 0.03 0.04 0.05
0.04 0.07 0.08 0.11 0.15 0.08 0.01 0.06 0.12 0.14 0.15 0.16 0.13 0.10 0.08 0.08 0.07 0.05 0.04 0.03 0.03 0.04 0.06 0.07 0.07 0.14 0.22 0.26 0.27 0.19 0.14 0.15 0.16 0.18 0.08 0.03 0.02 0.02 0.02 0.03 0.05 0.08 0.14
0.05 0.08 0.10 0.12 0.19 0.09 0.06 0.07 0.13 0.17 0.14 0.10 0.08 0.09 0.06 0.07 0.08 0.07 0.05 0.04 0.04 0.07 0.07 0.14 0.29 0.33 0.30 0.28 0.28 0.25 0.18 0.18 0.17 0.17 0.10 0.02 0.03 0.04 0.05 0.12 0.20 0.15 0.15

GFSSE_prec_precacc_072.txt.gz
Total_Precipitation_Accumulation
0.55 0.13 0.17 0.27 0.15 0.14 0.07 0.04 0.03 0.06 0.09 0.05 0.04 0.04 0.01 0.01 0.02 0.02 0.01 0.03 0.02 0.01 0.01 0.00 0.00 0.01 0.04 0.00 0.00 0.00 0.02 0.05 0.02 0.05 0.14 0.08 0.15 0.11 0.17 0.28 0.20 0.36 0.37
0.72 0.39 0.54 0.31 0.12 0.15 0.15 0.08 0.04 0.06 0.07 0.04 0.03 0.02 0.01 0.00 0.01 0.01 0.01 0.02 0.02 0.02 0.01 0.00 0.00 0.00 0.03 0.02 0.00 0.00 0.01 0.06 0.06 0.05 0.11 0.18 0.25 0.16 0.19 0.22 0.21 0.39 0.46
1.61 0.95 0.85 0.94 0.29 0.21 0.16 0.12 0.06 0.02 0.01 0.01 0.01 0.00 0.00 0.00 0.00 0.01 0.00 0.00 0.01 0.01 0.00 0.00 0.00 0.00 0.02 0.01 0.01 0.01 0.01 0.02 0.05 0.06 0.13 0.13 0.10 0.29 0.31 0.22 0.19 0.26 0.31
0.37 0.51 0.71 1.18 0.95 0.73 0.45 0.21 0.10 0.04 0.01 0.00 0.00 0.01 0.01 0.00 0.00 0.00 0.00 0.00 0.00 0.01 0.00 0.00 0.00 0.00 0.00 0.00 0.01 0.00 0.01 0.03 0.05 0.06 0.08 0.08 0.13 0.33 0.39 0.20 0.18 0.21 0.34
0.29 0.24 0.54 0.96 1.18 0.61 0.57 0.39 0.24 0.15 0.06 0.01 0.01 0.02 0.02 0.01 0.00 0.00 0.00 0.00 0.01 0.01 0.00 0.00 0.00 0.00 0.00 0.00 0.00 0.00 0.00 0.02 0.02 0.02 0.10 0.16 0.44 0.69 0.34 0.24 0.16 0.15 0.23
1.01 0.78 1.01 1.82 1.39 0.72 0.60 0.40 0.47 0.29 0.18 0.06 0.01 0.01 0.01 0.01 0.00 0.00 0.00 0.00 0.01 0.00 0.00 0.00 0.00 0.00 0.00 0.00 0.00 0.00 0.00 0.00 0.02 0.00 0.06 0.38 0.42 0.87 1.05 0.31 0.20 0.22 0.19
2.59 1.95 1.76 2.49 2.00 1.27 0.84 0.73 0.60 0.57 0.28 0.14 0.02 0.02 0.01 0.01 0.00 0.01 0.00 0.00 0.00 0.00 0.00 0.00 0.00 0.00 0.00 0.00 0.00 0.00 0.00 0.01 0.01 0.00 0.15 0.52 1.16 0.86 1.13 0.88 0.24 0.23 0.21
5.72 6.15 4.04 4.25 4.78 3.61 2.11 0.94 0.68 0.40 0.42 0.18 0.06 0.03 0.02 0.01 0.00 0.00 0.00 0.00 0.00 0.00 0.00 0.00 0.00 0.00 0.00 0.00 0.00 0.00 0.00 0.00 0.00 0.03 0.09 0.38 0.86 0.51 0.35 0.37 0.20 0.14 0.10
6.76 9.78 9.81 6.42 5.75 5.01 5.56 3.48 1.20 0.49 0.32 0.28 0.14 0.06 0.03 0.00 0.00 0.00 0.00 0.00 0.00 0.00 0.00 0.00 0.00 0.00 0.00 0.00 0.00 0.00 0.00 0.00 0.00 0.01 0.02 0.05 0.06 0.16 0.28 0.26 0.22 0.16 0.12
7.49 6.47 6.53 5.01 4.35 4.20 4.25 4.89 3.21 1.81 0.65 0.39 0.21 0.13 0.05 0.00 0.00 0.00 0.00 0.00 0.00 0.00 0.00 0.00 0.00 0.00 0.00 0.00 0.00 0.00 0.00 0.00 0.00 0.00 0.00 0.00 0.04 0.12 0.29 0.29 0.19 0.18 0.17
3.49 3.91 3.42 2.17 1.36 1.68 1.88 2.41 2.90 2.74 1.84 0.74 0.38 0.14 0.08 0.04 0.00 0.00 0.00 0.00 0.00 0.00 0.00 0.00 0.00 0.00 0.00 0.00 0.00 0.00 0.00 0.00 0.00 0.00 0.00 0.00 0.02 0.06 0.09 0.20 0.19 0.12 0.17
2.07 1.78 1.26 0.72 0.27 0.23 0.43 0.66 1.18 1.83 1.96 1.22 0.65 0.17 0.09 0.03 0.00 0.00 0.00 0.00 0.00 0.00 0.00 0.00 0.00 0.00 0.00 0.00 0.00 0.00 0.00 0.00 0.00 0.00 0.00 0.00 0.00 0.00 0.00 0.01 0.04 0.12 0.20
0.84 0.79 0.73 0.49 0.26 0.15 0.15 0.21 0.33 0.66 1.15 1.05 0.61 0.15 0.04 0.01 0.01 0.02 0.00 0.00 0.00 0.00 0.00 0.00 0.00 0.00 0.00 0.00 0.00 0.00 0.00 0.00 0.00 0.00 0.00 0.00 0.00 0.00 0.00 0.00 0.00 0.01 0.07
0.43 0.44 0.31 0.34 0.34 0.46 0.30 0.21 0.19 0.24 0.35 0.47 0.27 0.07 0.01 0.02 0.04 0.00 0.00 0.00 0.00 0.00 0.00 0.00 0.00 0.00 0.00 0.00 0.00 0.00 0.00 0.00 0.00 0.00 0.00 0.00 0.00 0.00 0.00 0.00 0.00 0.00 0.02
0.28 0.39 0.36 0.16 0.24 0.22 0.22 0.23 0.19 0.25 0.16 0.21 0.16 0.04 0.00 0.00 0.00 0.00 0.00 0.00 0.00 0.00 0.00 0.00 0.00 0.00 0.00 0.00 0.00 0.00 0.00 0.00 0.00 0.00 0.00 0.00 0.00 0.00 0.00 0.00 0.00 0.00 0.00
0.25 0.38 0.45 0.39 0.34 0.29 0.21 0.28 0.26 0.25 0.19 0.21 0.29 0.15 0.04 0.02 0.01 0.00 0.00 0.00 0.00 0.00 0.00 0.00 0.00 0.00 0.00 0.00 0.00 0.00 0.00 0.00 0.00 0.00 0.00 0.00 0.00 0.00 0.00 0.00 0.00 0.00 0.00
0.07 0.21 0.60 0.99 0.48 0.33 0.26 0.29 0.29 0.13 0.09 0.19 0.26 0.21 0.07 0.02 0.04 0.02 0.00 0.00 0.00 0.00 0.00 0.00 0.00 0.00 0.00 0.00 0.00 0.00 0.00 0.00 0.00 0.00 0.00 0.00 0.00 0.00 0.00 0.00 0.00 0.00 0.00
0.03 0.11 0.64 1.22 0.82 0.41 0.21 0.25 0.26 0.20 0.16 0.22 0.24 0.17 0.15 0.11 0.09 0.04 0.01 0.00 0.00 0.00 0.00 0.00 0.00 0.00 0.00 0.00 0.00 0.00 0.00 0.00 0.00 0.00 0.00 0.00 0.00 0.00 0.00 0.00 0.00 0.00 0.00
0.04 0.17 0.48 0.74 0.91 0.85 0.65 0.61 0.37 0.16 0.15 0.24 0.21 0.16 0.09 0.08 0.08 0.04 0.02 0.00 0.00 0.00 0.00 0.00 0.00 0.00 0.00 0.00 0.00 0.00 0.00 0.00 0.00 0.00 0.00 0.00 0.00 0.00 0.00 0.00 0.00 0.00 0.00
0.08 0.31 0.56 0.69 1.12 1.40 0.77 0.27 0.18 0.22 0.17 0.21 0.15 0.11 0.10 0.06 0.08 0.02 0.01 0.01 0.00 0.00 0.00 0.00 0.00 0.00 0.00 0.00 0.00 0.00 0.00 0.00 0.00 0.00 0.00 0.00 0.00 0.00 0.00 0.00 0.00 0.00 0.00
0.18 0.41 0.63 0.99 0.95 0.41 0.19 0.09 0.12 0.13 0.23 0.27 0.20 0.16 0.15 0.08 0.13 0.11 0.07 0.10 0.01 0.01 0.00 0.00 0.00 0.00 0.00 0.00 0.00 0.00 0.00 0.00 0.00 0.00 0.00 0.00 0.00 0.00 0.00 0.00 0.00 0.00 0.00
0.44 0.44 0.32 0.14 0.12 0.03 0.04 0.06 0.08 0.11 0.15 0.20 0.15 0.13 0.23 0.16 0.12 0.08 0.13 0.27 0.13 0.10 0.02 0.02 0.00 0.00 0.00 0.00 0.00 0.00 0.00 0.00 0.00 0.00 0.00 0.00 0.00 0.00 0.00 0.00 0.00 0.00 0.00
0.05 0.02 0.06 0.08 0.13 0.04 0.02 0.02 0.02 0.08 0.14 0.11 0.18 0.18 0.17 0.16 0.21 0.15 0.19 0.21 0.15 0.08 0.03 0.01 0.01 0.00 0.00 0.01 0.00 0.01 0.01 0.01 0.00 0.00 0.00 0.00 0.02 0.01 0.01 0.01 0.01 0.01 0.00
0.02 0.03 0.06 0.11 0.14 0.04 0.01 0.00 0.02 0.06 0.09 0.16 0.17 0.13 0.10 0.10 0.12 0.12 0.15 0.16 0.18 0.13 0.12 0.07 0.02 0.02 0.05 0.09 0.10 0.09 0.07 0.05 0.07 0.06 0.01 0.00 0.00 0.02 0.02 0.01 0.03 0.04 0.05
0.04 0.07 0.08 0.11 0.15 0.08 0.01 0.06 0.12 0.14 0.15 0.16 0.13 0.10 0.08 0.08 0.07 0.05 0.04 0.03 0.03 0.04 0.06 0.08 0.08 0.15 0.23 0.26 0.28 0.20 0.16 0.16 0.17 0.19 0.13 0.04 0.02 0.02 0.02 0.03 0.05 0.08 0.14
0.05 0.08 0.10 0.12 0.19 0.09 0.06 0.07 0.13 0.17 0.14 0.10 0.08 0.09 0.06 0.07 0.08 0.07 0.05 0.04 0.04 0.07 0.07 0.16 0.34 0.35 0.31 0.28 0.29 0.26 0.19 0.20 0.19 0.19 0.14 0.05 0.05 0.06 0.05 0.12 0.20 0.15 0.15

GFSSE_prec_precacc_075.txt.gz
Total_Precipitation_Accumulation
0.55 0.14 0.17 0.27 0.15 0.14 0.07 0.04 0.03 0.06 0.09 0.05 0.04 0.04 0.01 0.01 0.02 0.02 0.01 0.03 0.02 0.03 0.02 0.00 0.00 0.02 0.05 0.01 0.00 0.00 0.02 0.05 0.02 0.05 0.14 0.09 0.16 0.12 0.18 0.29 0.21 0.37 0.39
0.72 0.39 0.54 0.31 0.12 0.15 0.15 0.08 0.04 0.06 0.07 0.04 0.03 0.02 0.01 0.00 0.01 0.01 0.01 0.02 0.02 0.03 0.01 0.00 0.00 0.00 0.03 0.02 0.00 0.00 0.01 0.06 0.06 0.05 0.12 0.19 0.26 0.17 0.20 0.22 0.22 0.39 0.46
1.62 0.96 0.86 0.94 0.29 0.21 0.16 0.12 0.06 0.02 0.01 0.01 0.01 0.00 0.00 0.00 0.00 0.01 0.00 0.00 0.01 0.01 0.00 0.00 0.00 0.00 0.02 0.01 0.01 0.01 0.01 0.02 0.05 0.06 0.13 0.13 0.11 0.30 0.31 0.22 0.19 0.26 0.31
0.39 0.54 0.75 1.19 0.95 0.74 0.50 0.21 0.10 0.04 0.01 0.00 0.00 0.01 0.01 0.00 0.00 0.00 0.00 0.00 0.00 0.01 0.00 0.00 0.00 0.00 0.00 0.00 0.01 0.00 0.01 0.03 0.05 0.06 0.08 0.08 0.13 0.34 0.39 0.20 0.18 0.21 0.34
0.34 0.27 0.69 1.13 1.31 0.71 0.71 0.50 0.27 0.16 0.06 0.01 0.01 0.02 0.02 0.01 0.00 0.00 0.01 0.00 0.01 0.01 0.00 0.00 0.00 0.00 0.00 0.00 0.00 0.00 0.00 0.02 0.02 0.02 0.10 0.16 0.44 0.70 0.34 0.24 0.16 0.15 0.23
1.12 0.82 1.18 1.93 1.46 0.79 0.62 0.47 0.74 0.55 0.22 0.06 0.01 0.01 0.01 0.01 0.00 0.01 0.01 0.01 0.01 0.01 0.01 0.01 0.00 0.00 0.00 0.00 0.00 0.00 0.00 0.00 0.02 0.00 0.06 0.38 0.42 0.87 1.05 0.31 0.20 0.22 0.19
2.72 2.16 1.96 2.77 2.21 1.52 0.88 0.74 0.63 0.95 0.76 0.25 0.03 0.02 0.01 0.01 0.00 0.01 0.02 0.01 0.01 0.00 0.01 0.01 0.00 0.00 0.00 0.00 0.00 0.00 0.00 0.01 0.01 0.00 0.15 0.52 1.16 0.86 1.13 0.89 0.24 0.23 0.21
5.80 6.48 4.31 4.44 5.02 3.74 2.18 0.99 0.79 0.67 1.09 0.55 0.13 0.03 0.02 0.01 0.00 0.01 0.01 0.00 0.00 0.00 0.00 0.00 0.00 0.00 0.00 0.00 0.00 0.00 0.00 0.00 0.00 0.03 0.09 0.38 0.86 0.51 0.36 0.37 0.20 0.14 0.10
6.85 9.94 10.10 6.65 6.02 5.17 5.64 3.55 1.24 0.53 0.60 0.55 0.24 0.07 0.03 0.00 0.00 0.00 0.00 0.00 0.00 0.00 0.00 0.00 0.00 0.00 0.00 0.00 0.00 0.00 0.00 0.00 0.00 0.01 0.02 0.05 0.06 0.16 0.28 0.26 0.22 0.16 0.12
7.50 6.54 6.70 5.20 4.53 4.25 4.34 4.92 3.22 1.85 0.85 0.74 0.30 0.14 0.05 0.00 0.00 0.00 0.00 0.00 0.00 0.00 0.00 0.00 0.00 0.00 0.00 0.00 0.00 0.00 0.00 0.00 0.00 0.00 0.00 0.00 0.04 0.12 0.29 0.29 0.19 0.18 0.17
3.49 3.93 3.46 2.30 1.49 1.76 1.89 2.41 2.90 2.77 2.05 1.36 0.73 0.17 0.08 0.04 0.00 0.00 0.00 0.00 0.00 0.00 0.00 0.00 0.00 0.00 0.00 0.00 0.00 0.00 0.00 0.00 0.00 0.00 0.00 0.00 0.02 0.06 0.09 0.20 0.19 0.12 0.17
2.08 1.79 1.27 0.72 0.31 0.29 0.43 0.66 1.18 1.92 2.23 1.73 1.09 0.26 0.09 0.03 0.00 0.00 0.00 0.00 0.00 0.00 0.00 0.00 0.00 0.00 0.00 0.00 0.00 0.00 0.00 0.00 0.00 0.00 0.00 0.00 0.00 0.00 0.00 0.01 0.04 0.12 0.20
0.84 0.81 0.74 0.50 0.27 0.19 0.16 0.21 0.35 0.96 1.71 1.61 0.99 0.25 0.04 0.01 0.01 0.02 0.00 0.00 0.00 0.00 0.00 0.00 0.00 0.00 0.00 0.00 0.00 0.00 0.00 0.00 0.00 0.00 0.00 0.00 0.00 0.00 0.00 0.00 0.00 0.01 0.07
0.43 0.45 0.31 0.34 0.34 0.46 0.30 0.21 0.21 0.58 1.07 0.96 0.41 0.10 0.01 0.02 0.04 0.00 0.00 0.00 0.00 0.00 0.00 0.00 0.00 0.00 0.00 0.00 0.00 0.00 0.00 0.00 0.00 0.00 0.00 0.00 0.00 0.00 0.00 0.00 0.00 0.00 0.02
0.29 0.39 0.36 0.16 0.24 0.22 0.22 0.23 0.20 0.49 0.46 0.41 0.24 0.05 0.00 0.00 0.00 0.00 0.00 0.00 0.00 0.00 0.00 0.00 0.00 0.00 0.00 0.00 0.00 0.00 0.00 0.00 0.00 0.00 0.00 0.00 0.00 0.00 0.00 0.00 0.00 0.00 0.00
0.25 0.38 0.45 0.39 0.34 0.29 0.21 0.28 0.26 0.39 0.43 0.30 0.34 0.15 0.04 0.02 0.01 0.00 0.00 0.00 0.00 0.00 0.00 0.00 0.00 0.00 0.00 0.00 0.00 0.00 0.00 0.00 0.00 0.00 0.00 0.00 0.00 0.00 0.00 0.00 0.00 0.00 0.00
0.07 0.21 0.60 1.00 0.49 0.33 0.26 0.30 0.30 0.21 0.28 0.31 0.29 0.21 0.07 0.02 0.04 0.02 0.00 0.00 0.00 0.00 0.00 0.00 0.00 0.00 0.00 0.00 0.00 0.00 0.00 0.00 0.00 0.00 0.00 0.00 0.00 0.00 0.00 0.00 0.00 0.00 0.00
0.04 0.12 0.65 1.25 0.92 0.46 0.24 0.26 0.26 0.27 0.29 0.33 0.24 0.17 0.15 0.11 0.09 0.04 0.01 0.00 0.00 0.00 0.00 0.00 0.00 0.00 0.00 0.00 0.00 0.00 0.00 0.00 0.00 0.00 0.00 0.00 0.00 0.00 0.00 0.00 0.00 0.00 0.00
0.04 0.17 0.48 0.78 1.04 0.93 0.69 0.61 0.38 0.21 0.31 0.35 0.22 0.16 0.09 0.08 0.08 0.04 0.02 0.00 0.00 0.00 0.00 0.00 0.00 0.00 0.00 0.00 0.00 0.00 0.00 0.00 0.00 0.00 0.00 0.00 0.00 0.00 0.00 0.00 0.00 0.00 0.00
0.08 0.31 0.56 0.70 1.18 1.54 0.80 0.31 0.23 0.30 0.35 0.36 0.18 0.11 0.10 0.06 0.08 0.02 0.01 0.01 0.00 0.00 0.00 0.00 0.00 0.00 0.00 0.00 0.00 0.00 0.00 0.00 0.00 0.00 0.00 0.00 0.00 0.00 0.00 0.00 0.00 0.00 0.00
0.18 0.42 0.63 0.99 0.95 0.46 0.21 0.10 0.15 0.23 0.39 0.46 0.31 0.16 0.15 0.08 0.13 0.11 0.07 0.10 0.01 0.01 0.00 0.01 0.01 0.00 0.00 0.00 0.00 0.00 0.00 0.00 0.00 0.00 0.00 0.00 0.00 0.00 0.00 0.00 0.00 0.00 0.00
0.44 0.44 0.32 0.14 0.12 0.03 0.04 0.06 0.09 0.14 0.24 0.33 0.30 0.14 0.23 0.16 0.12 0.08 0.13 0.27 0.14 0.10 0.02 0.02 0.01 0.01 0.01 0.00 0.00 0.00 0.00 0.00 0.00 0.00 0.00 0.00 0.00 0.00 0.00 0.00 0.00 0.00 0.00
0.05 0.02 0.06 0.08 0.13 0.04 0.02 0.02 0.05 0.21 0.27 0.21 0.32 0.21 0.17 0.16 0.21 0.15 0.19 0.23 0.16 0.09 0.05 0.02 0.01 0.00 0.00 0.01 0.01 0.01 0.01 0.01 0.00 0.00 0.00 0.00 0.02 0.01 0.01 0.01 0.01 0.01 0.00
0.02 0.03 0.06 0.11 0.14 0.04 0.01 0.00 0.02 0.11 0.16 0.21 0.20 0.16 0.11 0.10 0.13 0.13 0.15 0.17 0.21 0.16 0.13 0.08 0.02 0.02 0.05 0.09 0.11 0.09 0.08 0.05 0.07 0.06 0.01 0.01 0.01 0.02 0.02 0.01 0.03 0.04 0.05
0.04 0.07 0.08 0.11 0.15 0.08 0.01 0.06 0.12 0.14 0.16 0.20 0.16 0.12 0.09 0.08 0.07 0.06 0.05 0.05 0.04 0.06 0.08 0.11 0.12 0.17 0.24 0.27 0.28 0.20 0.16 0.16 0.17 0.19 0.14 0.05 0.02 0.03 0.03 0.04 0.05 0.08 0.14
0.05 0.08 0.10 0.12 0.19 0.09 0.06 0.07 0.13 0.17 0.14 0.10 0.08 0.09 0.06 0.07 0.08 0.07 0.05 0.05 0.04 0.07 0.08 0.18 0.39 0.37 0.32 0.30 0.31 0.27 0.21 0.21 0.19 0.20 0.16 0.07 0.06 0.06 0.05 0.12 0.20 0.15 0.15

GFSSE_prec_precacc_078.txt.gz
Total_Precipitation_Accumulation
0.55 0.14 0.17 0.27 0.15 0.14 0.07 0.04 0.03 0.06 0.09 0.05 0.04 0.04 0.01 0.01 0.02 0.02 0.02 0.03 0.02 0.06 0.03 0.00 0.01 0.02 0.06 0.02 0.02 0.00 0.03 0.05 0.03 0.06 0.16 0.10 0.16 0.13 0.19 0.29 0.22 0.39 0.41
0.72 0.40 0.54 0.31 0.12 0.15 0.15 0.08 0.04 0.06 0.07 0.04 0.03 0.02 0.01 0.00 0.01 0.01 0.01 0.02 0.02 0.08 0.01 0.00 0.00 0.01 0.04 0.02 0.00 0.00 0.01 0.06 0.06 0.05 0.12 0.19 0.27 0.18 0.20 0.22 0.22 0.40 0.46
1.63 0.96 0.86 0.94 0.30 0.21 0.17 0.12 0.06 0.02 0.01 0.01 0.01 0.00 0.00 0.00 0.00 0.01 0.00 0.00 0.01 0.05 0.01 0.00 0.00 0.01 0.02 0.01 0.01 0.01 0.01 0.02 0.05 0.07 0.13 0.14 0.12 0.31 0.32 0.22 0.20 0.26 0.31
0.40 0.55 0.75 1.19 0.97 0.77 0.56 0.22 0.11 0.05 0.01 0.00 0.00 0.01 0.01 0.00 0.00 0.00 0.00 0.00 0.00 0.02 0.00 0.00 0.01 0.01 0.00 0.00 0.01 0.00 0.01 0.03 0.05 0.06 0.08 0.09 0.14 0.34 0.39 0.20 0.18 0.21 0.34
0.35 0.28 0.75 1.17 1.33 0.82 0.94 0.59 0.32 0.16 0.07 0.01 0.01 0.02 0.02 0.01 0.00 0.00 0.01 0.00 0.01 0.01 0.00 0.01 0.01 0.00 0.00 0.00 0.00 0.00 0.00 0.02 0.02 0.02 0.10 0.16 0.44 0.70 0.34 0.24 0.16 0.15 0.23
1.13 0.88 1.55 2.01 1.48 1.01 0.77 0.79 1.36 0.75 0.25 0.07 0.01 0.01 0.01 0.01 0.00 0.01 0.01 0.01 0.01 0.01 0.01 0.01 0.00 0.00 0.00 0.00 0.00 0.00 0.00 0.00 0.02 0.00 0.06 0.38 0.42 0.87 1.05 0.31 0.20 0.22 0.19
2.76 2.22 2.12 2.90 2.26 1.54 0.91 0.87 0.94 1.42 1.24 0.44 0.17 0.03 0.01 0.01 0.00 0.01 0.02 0.01 0.01 0.01 0.01 0.01 0.00 0.00 0.00 0.00 0.00 0.00 0.00 0.01 0.01 0.00 0.15 0.53 1.16 0.86 1.13 0.89 0.24 0.23 0.21
5.80 6.52 4.47 4.51 5.07 3.80 2.31 1.09 0.94 0.77 1.31 0.83 0.62 0.24 0.06 0.01 0.00 0.01 0.01 0.00 0.00 0.01 0.00 0.00 0.00 0.00 0.00 0.00 0.00 0.00 0.00 0.00 0.00 0.03 0.09 0.38 0.86 0.51 0.36 0.37 0.20 0.14 0.10
6.86 10.01 10.29 6.81 6.17 5.31 5.72 3.62 1.32 0.61 0.67 0.67 0.39 0.26 0.16 0.05 0.00 0.01 0.00 0.00 0.00 0.00 0.00 0.00 0.00 0.00 0.00 0.00 0.00 0.00 0.00 0.00 0.00 0.01 0.02 0.05 0.06 0.16 0.28 0.26 0.22 0.16 0.12
7.50 6.56 6.78 5.31 4.65 4.28 4.38 4.97 3.26 1.87 0.93 0.95 0.47 0.25 0.14 0.06 0.02 0.00 0.00 0.00 0.00 0.00 0.00 0.00 0.00 0.00 0.00 0.00 0.00 0.00 0.00 0.00 0.00 0.00 0.00 0.00 0.04 0.12 0.29 0.29 0.19 0.18 0.17
3.49 3.95 3.53 2.40 1.61 1.83 1.97 2.45 2.94 2.78 2.12 1.66 1.47 0.51 0.20 0.11 0.03 0.00 0.00 0.00 0.00 0.00 0.00 0.00 0.00 0.00 0.00 0.00 0.00 0.00 0.00 0.00 0.00 0.00 0.00 0.00 0.02 0.06 0.09 0.20 0.19 0.12 0.17
2.08 1.79 1.27 0.77 0.40 0.44 0.56 0.73 1.21 1.95 2.26 1.95 2.35 1.01 0.28 0.10 0.02 0.00 0.00 0.00 0.00 0.00 0.00 0.00 0.00 0.00 0.00 0.00 0.00 0.00 0.00 0.00 0.00 0.00 0.00 0.00 0.00 0.00 0.00 0.01 0.04 0.12 0.20
0.85 0.81 0.74 0.50 0.28 0.29 0.23 0.25 0.37 0.96 1.74 1.95 1.97 1.13 0.20 0.10 0.02 0.02 0.00 0.00 0.00 0.00 0.00 0.00 0.00 0.00 0.00 0.00 0.00 0.00 0.00 0.00 0.00 0.00 0.00 0.00 0.00 0.00 0.00 0.00 0.00 0.01 0.07
0.44 0.46 0.32 0.35 0.35 0.47 0.31 0.22 0.22 0.59 1.29 1.51 1.08 0.52 0.14 0.06 0.04 0.00 0.00 0.00 0.00 0.00 0.00 0.00 0.00 0.00 0.00 0.00 0.00 0.00 0.00 0.00 0.00 0.00 0.00 0.00 0.00 0.00 0.00 0.00 0.00 0.00 0.02
0.29 0.40 0.37 0.16 0.24 0.22 0.22 0.23 0.21 0.52 0.68 0.86 0.68 0.13 0.03 0.01 0.00 0.00 0.00 0.00 0.00 0.00 0.00 0.00 0.00 0.00 0.00 0.00 0.00 0.00 0.00 0.00 0.00 0.00 0.00 0.00 0.00 0.00 0.00 0.00 0.00 0.00 0.00
0.25 0.39 0.46 0.40 0.34 0.29 0.21 0.28 0.29 0.44 0.75 0.60 0.57 0.23 0.06 0.03 0.01 0.00 0.00 0.00 0.00 0.00 0.00 0.00 0.00 0.00 0.00 0.00 0.00 0.00 0.00 0.00 0.00 0.00 0.00 0.00 0.00 0.00 0.00 0.00 0.00 0.00 0.00
0.07 0.22 0.61 1.01 0.49 0.33 0.26 0.31 0.33 0.24 0.39 0.55 0.40 0.26 0.08 0.02 0.04 0.02 0.00 0.00 0.00 0.00 0.00 0.00 0.00 0.00 0.00 0.00 0.00 0.00 0.00 0.00 0.00 0.00 0.00 0.00 0.00 0.00 0.00 0.00 0.00 0.00 0.00
0.04 0.12 0.66 1.26 0.92 0.47 0.25 0.30 0.35 0.43 0.36 0.42 0.30 0.18 0.15 0.11 0.09 0.04 0.01 0.00 0.00 0.00 0.00 0.00 0.00 0.00 0.00 0.00 0.00 0.00 0.00 0.00 0.00 0.00 0.00 0.00 0.00 0.00 0.00 0.00 0.00 0.00 0.00
0.04 0.17 0.49 0.78 1.06 0.95 0.71 0.67 0.46 0.39 0.42 0.37 0.24 0.16 0.09 0.08 0.08 0.04 0.02 0.00 0.00 0.00 0.00 0.00 0.00 0.00 0.00 0.00 0.00 0.00 0.00 0.00 0.00 0.00 0.00 0.00 0.00 0.00 0.00 0.00 0.00 0.00 0.00
0.08 0.32 0.57 0.70 1.20 1.57 0.84 0.32 0.33 0.50 0.47 0.39 0.18 0.11 0.10 0.06 0.08 0.02 0.01 0.01 0.00 0.00 0.00 0.00 0.00 0.00 0.00 0.00 0.00 0.00 0.00 0.00 0.00 0.00 0.00 0.00 0.00 0.00 0.00 0.00 0.00 0.00 0.00
0.18 0.42 0.64 0.99 0.96 0.47 0.22 0.11 0.21 0.40 0.51 0.49 0.31 0.16 0.15 0.08 0.13 0.11 0.07 0.10 0.01 0.01 0.00 0.01 0.01 0.00 0.00 0.00 0.00 0.00 0.00 0.00 0.00 0.00 0.00 0.00 0.00 0.00 0.00 0.00 0.00 0.00 0.00
0.44 0.44 0.33 0.15 0.12 0.03 0.05 0.06 0.09 0.19 0.39 0.39 0.31 0.14 0.23 0.16 0.12 0.08 0.13 0.27 0.14 0.10 0.02 0.02 0.02 0.02 0.03 0.02 0.01 0.00 0.00 0.00 0.00 0.00 0.00 0.00 0.00 0.00 0.00 0.00 0.00 0.00 0.00
0.05 0.02 0.06 0.08 0.13 0.04 0.02 0.03 0.05 0.23 0.39 0.31 0.36 0.22 0.17 0.16 0.22 0.15 0.19 0.23 0.16 0.09 0.05 0.02 0.01 0.00 0.01 0.02 0.02 0.02 0.03 0.03 0.02 0.00 0.00 0.01 0.02 0.01 0.01 0.01 0.01 0.01 0.00
0.02 0.03 0.06 0.12 0.15 0.04 0.01 0.01 0.02 0.11 0.20 0.23 0.21 0.16 0.12 0.10 0.13 0.13 0.15 0.17 0.21 0.16 0.13 0.08 0.04 0.03 0.05 0.09 0.11 0.09 0.10 0.08 0.10 0.10 0.01 0.01 0.02 0.02 0.02 0.01 0.03 0.05 0.05
0.04 0.07 0.08 0.11 0.15 0.08 0.01 0.06 0.12 0.15 0.17 0.21 0.19 0.14 0.10 0.09 0.08 0.06 0.05 0.05 0.04 0.06 0.08 0.12 0.13 0.17 0.24 0.27 0.29 0.21 0.16 0.17 0.18 0.20 0.15 0.06 0.03 0.03 0.03 0.04 0.05 0.08 0.14
0.05 0.08 0.10 0.12 0.19 0.09 0.06 0.07 0.13 0.17 0.15 0.12 0.10 0.10 0.06 0.07 0.08 0.07 0.05 0.05 0.05 0.07 0.09 0.20 0.42 0.39 0.33 0.32 0.35 0.29 0.21 0.22 0.21 0.21 0.16 0.08 0.08 0.07 0.07 0.13 0.20 0.15 0.15

GFSSE_prec_precacc_084.txt.gz
Total_Precipitation_Accumulation
0.55 0.14 0.17 0.27 0.15 0.14 0.08 0.04 0.03 0.06 0.09 0.05 0.04 0.04 0.01 0.01 0.02 0.03 0.02 0.03 0.02 0.06 0.03 0.01 0.02 0.04 0.07 0.04 0.02 0.00 0.04 0.06 0.03 0.08 0.18 0.13 0.19 0.15 0.20 0.32 0.24 0.41 0.42
0.72 0.40 0.56 0.31 0.12 0.15 0.16 0.08 0.04 0.06 0.07 0.04 0.03 0.02 0.01 0.00 0.02 0.02 0.01 0.02 0.02 0.10 0.03 0.01 0.01 0.02 0.05 0.02 0.00 0.00 0.01 0.06 0.06 0.05 0.14 0.22 0.29 0.19 0.21 0.22 0.23 0.40 0.46
1.63 0.97 0.87 0.94 0.30 0.22 0.19 0.12 0.06 0.02 0.01 0.02 0.01 0.00 0.00 0.00 0.00 0.01 0.01 0.00 0.02 0.12 0.05 0.01 0.01 0.01 0.02 0.01 0.01 0.01 0.01 0.02 0.05 0.08 0.15 0.15 0.13 0.31 0.32 0.22 0.20 0.26 0.32
0.41 0.57 0.75 1.19 0.97 0.80 0.62 0.22 0.12 0.08 0.05 0.01 0.02 0.01 0.01 0.01 0.01 0.02 0.01 0.00 0.03 0.08 0.03 0.01 0.01 0.01 0.00 0.00 0.01 0.00 0.01 0.03 0.06 0.06 0.08 0.09 0.15 0.35 0.40 0.21 0.19 0.22 0.35
0.35 0.31 0.76 1.18 1.33 0.83 0.97 0.67 0.43 0.38 0.15 0.03 0.10 0.03 0.02 0.01 0.02 0.04 0.02 0.01 0.03 0.06 0.01 0.02 0.02 0.01 0.00 0.00 0.00 0.00 0.00 0.02 0.02 0.02 0.10 0.16 0.45 0.70 0.34 0.25 0.16 0.15 0.23
1.14 0.91 1.63 2.05 1.48 1.02 0.91 1.10 2.02 1.80 1.05 0.47 0.14 0.03 0.02 0.01 0.01 0.03 0.03 0.03 0.05 0.04 0.01 0.02 0.01 0.00 0.00 0.00 0.00 0.00 0.00 0.00 0.02 0.00 0.06 0.38 0.42 0.88 1.05 0.31 0.20 0.22 0.19
2.76 2.23 2.19 3.00 2.30 1.62 1.11 1.31 1.92 3.25 3.33 2.62 1.40 0.34 0.11 0.04 0.01 0.01 0.02 0.03 0.04 0.04 0.02 0.01 0.01 0.00 0.00 0.00 0.00 0.00 0.00 0.01 0.01 0.00 0.15 0.53 1.16 0.86 1.13 0.89 0.24 0.23 0.21
5.81 6.52 4.51 4.60 5.14 3.94 2.53 1.23 1.43 1.95 2.83 2.52 2.41 1.41 0.47 0.10 0.01 0.03 0.04 0.02 0.01 0.01 0.00 0.00 0.00 0.00 0.00 0.00 0.00 0.00 0.00 0.00 0.00 0.03 0.09 0.38 0.87 0.52 0.36 0.37 0.20 0.14 0.10
6.86 10.03 10.32 6.89 6.24 5.55 6.18 3.88 1.55 1.45 1.45 1.69 1.78 1.30 1.11 0.77 0.14 0.04 0.06 0.05 0.00 0.00 0.00 0.00 0.00 0.00 0.00 0.00 0.00 0.00 0.00 0.00 0.00 0.01 0.02 0.05 0.06 0.16 0.28 0.26 0.22 0.16 0.12
7.50 6.57 6.82 5.46 4.74 4.34 4.46 5.04 3.39 2.14 1.71 1.50 1.31 0.97 0.73 0.95 0.63 0.14 0.03 0.05 0.02 0.00 0.00 0.00 0.00 0.00 0.00 0.00 0.00 0.00 0.00 0.00 0.00 0.00 0.00 0.00 0.05 0.12 0.29 0.29 0.19 0.18 0.17
3.50 3.96 3.54 2.43 1.70 1.94 2.04 2.48 3.03 2.92 2.35 2.38 2.36 1.13 0.64 0.59 0.72 0.31 0.09 0.02 0.01 0.00 0.00 0.00 0.00 0.00 0.00 0.00 0.00 0.00 0.00 0.00 0.00 0.00 0.00 0.00 0.03 0.07 0.10 0.20 0.20 0.13 0.17
2.08 1.80 1.28 0.79 0.43 0.47 0.60 0.75 1.23 1.99 2.35 2.08 3.31 1.63 0.91 0.58 0.33 0.38 0.30 0.05 0.00 0.00 0.00 0.00 0.00 0.00 0.00 0.00 0.00 0.00 0.00 0.00 0.00 0.00 0.00 0.01 0.00 0.00 0.00 0.01 0.05 0.12 0.20
0.85 0.81 0.74 0.51 0.29 0.32 0.26 0.30 0.46 1.08 1.89 2.14 2.24 1.62 0.76 0.61 0.57 0.41 0.43 0.18 0.01 0.00 0.00 0.00 0.00 0.00 0.00 0.00 0.00 0.00 0.00 0.00 0.00 0.00 0.00 0.00 0.00 0.00 0.00 0.00 0.00 0.01 0.07
0.45 0.47 0.32 0.35 0.35 0.50 0.36 0.25 0.29 0.69 1.44 1.66 1.29 1.03 0.72 0.45 0.40 0.27 0.31 0.23 0.02 0.00 0.00 0.00 0.00 0.00 0.00 0.00 0.00 0.00 0.00 0.00 0.00 0.00 0.00 0.00 0.00 0.00 0.00 0.00 0.00 0.00 0.02
0.30 0.41 0.39 0.18 0.25 0.23 0.22 0.24 0.22 0.57 0.78 1.00 0.88 0.36 0.66 0.31 0.16 0.16 0.24 0.20 0.01 0.00 0.00 0.00 0.00 0.00 0.00 0.00 0.00 0.00 0.00 0.00 0.00 0.00 0.00 0.00 0.00 0.00 0.00 0.00 0.00 0.00 0.00
0.26 0.39 0.47 0.41 0.35 0.30 0.23 0.31 0.30 0.45 0.80 0.70 0.80 0.31 0.22 0.20 0.21 0.17 0.17 0.12 0.00 0.00 0.00 0.00 0.00 0.00 0.00 0.00 0.00 0.00 0.00 0.00 0.00 0.00 0.00 0.00 0.00 0.00 0.00 0.00 0.00 0.00 0.00
0.07 0.22 0.62 1.02 0.50 0.34 0.27 0.31 0.34 0.25 0.43 0.64 0.73 0.45 0.19 0.09 0.13 0.10 0.13 0.10 0.02 0.00 0.00 0.00 0.00 0.00 0.00 0.00 0.00 0.00 0.00 0.00 0.00 0.00 0.00 0.00 0.00 0.00 0.00 0.00 0.00 0.00 0.00
0.04 0.12 0.66 1.27 0.93 0.48 0.27 0.32 0.37 0.47 0.43 0.51 0.54 0.47 0.26 0.18 0.14 0.11 0.14 0.16 0.09 0.01 0.00 0.00 0.00 0.00 0.00 0.00 0.00 0.00 0.00 0.00 0.00 0.00 0.00 0.00 0.00 0.00 0.00 0.00 0.00 0.00 0.00
0.04 0.17 0.50 0.80 1.08 0.97 0.76 0.71 0.56 0.47 0.52 0.47 0.35 0.34 0.20 0.18 0.20 0.09 0.12 0.14 0.15 0.05 0.00 0.00 0.00 0.00 0.00 0.00 0.00 0.00 0.00 0.00 0.00 0.00 0.00 0.00 0.00 0.00 0.00 0.00 0.00 0.00 0.00
0.08 0.32 0.58 0.72 1.21 1.58 0.87 0.34 0.41 0.63 0.53 0.47 0.28 0.23 0.24 0.16 0.20 0.11 0.12 0.08 0.04 0.03 0.00 0.00 0.00 0.00 0.00 0.00 0.00 0.00 0.00 0.00 0.00 0.00 0.00 0.00 0.00 0.00 0.00 0.00 0.00 0.00 0.00
0.18 0.42 0.64 1.00 0.97 0.47 0.23 0.13 0.26 0.46 0.59 0.52 0.35 0.22 0.22 0.17 0.17 0.19 0.15 0.16 0.04 0.02 0.01 0.01 0.01 0.00 0.00 0.00 0.00 0.00 0.00 0.00 0.00 0.00 0.00 0.00 0.00 0.00 0.00 0.00 0.00 0.00 0.00
0.44 0.44 0.33 0.15 0.13 0.04 0.06 0.08 0.11 0.20 0.41 0.40 0.33 0.15 0.25 0.17 0.14 0.10 0.14 0.28 0.14 0.11 0.02 0.02 0.02 0.02 0.03 0.02 0.01 0.00 0.01 0.01 0.00 0.00 0.00 0.00 0.00 0.00 0.00 0.00 0.00 0.00 0.00
0.05 0.02 0.06 0.08 0.14 0.05 0.03 0.05 0.09 0.27 0.42 0.33 0.37 0.22 0.18 0.17 0.22 0.15 0.19 0.23 0.16 0.09 0.05 0.02 0.01 0.00 0.01 0.03 0.03 0.04 0.12 0.12 0.07 0.01 0.00 0.01 0.02 0.01 0.01 0.01 0.01 0.01 0.00
0.02 0.03 0.06 0.12 0.15 0.05 0.02 0.02 0.04 0.13 0.23 0.24 0.21 0.17 0.12 0.10 0.13 0.13 0.16 0.17 0.21 0.16 0.14 0.08 0.05 0.04 0.07 0.11 0.11 0.11 0.17 0.19 0.21 0.18 0.05 0.01 0.02 0.02 0.02 0.01 0.03 0.05 0.05
0.04 0.07 0.08 0.12 0.16 0.08 0.01 0.07 0.14 0.16 0.19 0.23 0.19 0.14 0.10 0.09 0.08 0.06 0.05 0.05 0.04 0.07 0.10 0.13 0.14 0.20 0.28 0.35 0.31 0.22 0.17 0.21 0.24 0.22 0.17 0.11 0.03 0.03 0.03 0.04 0.05 0.08 0.14
0.05 0.08 0.10 0.13 0.19 0.10 0.07 0.08 0.14 0.18 0.16 0.15 0.11 0.10 0.06 0.07 0.08 0.07 0.05 0.05 0.05 0.08 0.12 0.24 0.48 0.44 0.38 0.43 0.50 0.44 0.24 0.22 0.22 0.21 0.16 0.11 0.17 0.12 0.08 0.14 0.20 0.15 0.15

GFSSE_prec_precacc_087.txt.gz
Total_Precipitation_Accumulation
0.55 0.14 0.17 0.27 0.15 0.14 0.08 0.04 0.03 0.06 0.09 0.05 0.04 0.04 0.01 0.01 0.02 0.03 0.02 0.03 0.02 0.06 0.03 0.01 0.02 0.04 0.07 0.04 0.02 0.00 0.04 0.06 0.03 0.08 0.19 0.14 0.20 0.16 0.20 0.32 0.24 0.41 0.43
0.72 0.40 0.56 0.31 0.12 0.15 0.16 0.08 0.04 0.06 0.07 0.04 0.03 0.02 0.01 0.00 0.02 0.02 0.01 0.02 0.02 0.10 0.03 0.01 0.01 0.02 0.05 0.02 0.00 0.00 0.01 0.06 0.06 0.06 0.15 0.24 0.30 0.20 0.21 0.23 0.23 0.40 0.47
1.63 0.97 0.87 0.94 0.30 0.22 0.19 0.12 0.06 0.02 0.01 0.02 0.01 0.00 0.00 0.00 0.00 0.01 0.01 0.00 0.02 0.13 0.06 0.01 0.01 0.02 0.02 0.01 0.01 0.01 0.01 0.02 0.05 0.08 0.15 0.15 0.14 0.32 0.33 0.22 0.20 0.27 0.32
0.41 0.57 0.75 1.19 0.97 0.80 0.62 0.22 0.12 0.08 0.05 0.01 0.02 0.01 0.01 0.01 0.01 0.02 0.01 0.01 0.05 0.11 0.03 0.02 0.02 0.01 0.00 0.00 0.01 0.00 0.01 0.03 0.06 0.06 0.08 0.09 0.15 0.37 0.41 0.21 0.19 0.22 0.35
0.35 0.31 0.76 1.18 1.33 0.83 0.99 0.67 0.43 0.38 0.15 0.07 0.12 0.05 0.02 0.01 0.02 0.04 0.02 0.02 0.08 0.11 0.02 0.03 0.02 0.01 0.00 0.00 0.00 0.00 0.00 0.02 0.02 0.02 0.10 0.16 0.45 0.72 0.35 0.25 0.16 0.15 0.23
1.14 0.91 1.64 2.05 1.48 1.03 0.94 1.15 2.03 1.84 1.23 0.91 0.56 0.30 0.06 0.03 0.01 0.03 0.03 0.03 0.09 0.11 0.04 0.03 0.01 0.00 0.00 0.00 0.00 0.00 0.00 0.00 0.02 0.00 0.06 0.38 0.43 0.88 1.05 0.31 0.20 0.22 0.19
2.76 2.23 2.19 3.00 2.30 1.62 1.11 1.35 2.01 3.36 3.87 3.28 2.15 1.12 0.60 0.11 0.02 0.02 0.02 0.04 0.09 0.10 0.05 0.02 0.01 0.00 0.00 0.00 0.00 0.00 0.00 0.01 0.01 0.00 0.15 0.53 1.16 0.87 1.14 0.89 0.24 0.23 0.21
5.81 6.52 4.51 4.60 5.14 3.94 2.53 1.23 1.43 1.97 3.03 2.96 3.04 2.77 2.13 0.63 0.06 0.05 0.05 0.04 0.04 0.02 0.00 0.00 0.00 0.00 0.00 0.00 0.00 0.00 0.00 0.00 0.00 0.03 0.09 0.38 0.87 0.52 0.36 0.37 0.20 0.14 0.10
6.86 10.03 10.33 6.89 6.24 5.55 6.18 3.88 1.55 1.45 1.48 1.77 1.82 1.81 2.20 1.82 0.39 0.10 0.15 0.09 0.01 0.00 0.00 0.00 0.00 0.00 0.00 0.00 0.00 0.00 0.00 0.00 0.00 0.01 0.02 0.05 0.07 0.16 0.28 0.26 0.22 0.16 0.12
7.50 6.57 6.82 5.47 4.74 4.34 4.46 5.04 3.39 2.14 1.72 1.50 1.34 1.21 1.27 1.64 1.14 0.41 0.14 0.09 0.03 0.00 0.00 0.00 0.00 0.00 0.00 0.00 0.00 0.00 0.00 0.00 0.00 0.00 0.00 0.00 0.05 0.12 0.29 0.29 0.19 0.18 0.17
3.50 3.96 3.54 2.44 1.70 1.94 2.04 2.48 3.03 2.92 2.35 2.38 2.56 1.68 1.16 1.00 1.25 0.63 0.31 0.10 0.02 0.00 0.00 0.00 0.00 0.00 0.00 0.00 0.00 0.00 0.00 0.00 0.00 0.00 0.00 0.01 0.03 0.07 0.10 0.20 0.20 0.13 0.17
2.08 1.80 1.28 0.79 0.43 0.47 0.60 0.75 1.23 1.99 2.35 2.08 3.38 2.18 1.77 0.89 0.56 0.54 0.53 0.14 0.01 0.00 0.00 0.00 0.00 0.00 0.00 0.00 0.00 0.00 0.00 0.00 0.00 0.00 0.00 0.01 0.01 0.00 0.01 0.01 0.05 0.12 0.20
0.85 0.81 0.74 0.51 0.30 0.32 0.26 0.30 0.46 1.09 1.92 2.15 2.27 1.94 1.72 0.79 0.64 0.47 0.67 0.39 0.02 0.00 0.00 0.00 0.00 0.00 0.00 0.00 0.00 0.00 0.00 0.00 0.00 0.00 0.00 0.00 0.01 0.00 0.00 0.00 0.00 0.01 0.07
0.45 0.47 0.32 0.35 0.36 0.51 0.36 0.25 0.29 0.70 1.49 1.69 1.29 1.06 0.91 0.51 0.42 0.31 0.40 0.38 0.03 0.00 0.00 0.00 0.00 0.00 0.00 0.00 0.00 0.00 0.00 0.00 0.00 0.00 0.00 0.00 0.00 0.00 0.00 0.00 0.00 0.00 0.02
0.30 0.41 0.39 0.18 0.25 0.23 0.22 0.24 0.22 0.57 0.80 1.08 0.93 0.36 0.66 0.31 0.16 0.18 0.29 0.30 0.06 0.00 0.00 0.00 0.00 0.00 0.00 0.00 0.00 0.00 0.00 0.00 0.00 0.00 0.00 0.00 0.00 0.00 0.00 0.00 0.00 0.00 0.00
0.26 0.39 0.47 0.41 0.35 0.30 0.23 0.31 0.30 0.45 0.80 0.72 0.87 0.36 0.22 0.20 0.21 0.18 0.22 0.18 0.04 0.00 0.00 0.00 0.00 0.00 0.00 0.00 0.00 0.00 0.00 0.00 0.00 0.00 0.00 0.00 0.00 0.00 0.00 0.00 0.00 0.00 0.00
0.07 0.22 0.62 1.02 0.50 0.34 0.28 0.31 0.34 0.25 0.43 0.65 0.76 0.52 0.21 0.10 0.14 0.11 0.20 0.14 0.03 0.00 0.00 0.00 0.00 0.00 0.00 0.00 0.00 0.00 0.00 0.00 0.00 0.00 0.00 0.00 0.00 0.00 0.00 0.00 0.00 0.00 0.00
0.04 0.12 0.66 1.27 0.93 0.48 0.27 0.32 0.37 0.47 0.43 0.51 0.55 0.51 0.27 0.19 0.15 0.11 0.18 0.20 0.09 0.01 0.00 0.00 0.00 0.00 0.00 0.00 0.00 0.00 0.00 0.00 0.00 0.00 0.00 0.00 0.00 0.00 0.00 0.00 0.00 0.00 0.00
0.04 0.17 0.50 0.80 1.08 0.97 0.76 0.71 0.56 0.47 0.52 0.48 0.35 0.36 0.22 0.18 0.21 0.11 0.16 0.16 0.18 0.07 0.01 0.00 0.00 0.00 0.00 0.00 0.00 0.00 0.00 0.00 0.00 0.00 0.00 0.00 0.00 0.00 0.00 0.00 0.00 0.00 0.00
0.08 0.32 0.58 0.72 1.21 1.58 0.87 0.35 0.41 0.64 0.53 0.47 0.29 0.25 0.27 0.18 0.27 0.21 0.16 0.11 0.09 0.05 0.01 0.00 0.00 0.00 0.00 0.00 0.00 0.00 0.00 0.00 0.00 0.00 0.00 0.00 0.00 0.00 0.00 0.00 0.00 0.00 0.00
0.18 0.42 0.64 1.00 0.97 0.47 0.23 0.14 0.26 0.46 0.59 0.52 0.38 0.27 0.30 0.24 0.28 0.37 0.34 0.27 0.12 0.03 0.01 0.01 0.01 0.00 0.00 0.00 0.00 0.00 0.00 0.00 0.00 0.00 0.00 0.00 0.00 0.00 0.00 0.00 0.00 0.00 0.00
0.44 0.44 0.33 0.15 0.13 0.04 0.06 0.08 0.11 0.20 0.41 0.40 0.34 0.17 0.29 0.30 0.36 0.26 0.25 0.43 0.23 0.12 0.02 0.02 0.02 0.02 0.03 0.02 0.01 0.00 0.01 0.01 0.00 0.00 0.00 0.00 0.00 0.00 0.00 0.00 0.00 0.00 0.00
0.05 0.02 0.06 0.08 0.14 0.05 0.03 0.05 0.09 0.27 0.42 0.33 0.37 0.22 0.19 0.21 0.28 0.25 0.26 0.28 0.19 0.10 0.05 0.02 0.01 0.00 0.01 0.03 0.03 0.04 0.12 0.12 0.07 0.01 0.00 0.01 0.02 0.01 0.01 0.01 0.01 0.01 0.00
0.02 0.03 0.06 0.12 0.15 0.05 0.02 0.02 0.04 0.13 0.23 0.24 0.21 0.17 0.12 0.10 0.13 0.14 0.16 0.18 0.21 0.16 0.14 0.08 0.05 0.04 0.07 0.11 0.11 0.11 0.17 0.19 0.21 0.18 0.05 0.01 0.02 0.02 0.02 0.01 0.03 0.05 0.05
0.04 0.07 0.08 0.12 0.16 0.08 0.02 0.07 0.14 0.16 0.19 0.23 0.19 0.14 0.10 0.09 0.08 0.06 0.06 0.05 0.04 0.07 0.10 0.13 0.14 0.20 0.28 0.36 0.31 0.22 0.17 0.24 0.29 0.23 0.18 0.11 0.03 0.03 0.03 0.04 0.05 0.08 0.14
0.05 0.08 0.10 0.13 0.19 0.10 0.07 0.08 0.14 0.18 0.16 0.15 0.11 0.10 0.06 0.07 0.08 0.07 0.05 0.05 0.05 0.08 0.12 0.24 0.48 0.44 0.39 0.48 0.51 0.45 0.24 0.23 0.26 0.24 0.17 0.11 0.17 0.12 0.08 0.14 0.20 0.15 0.15

GFSSE_prec_precacc_093.txt.gz
Total_Precipitation_Accumulation
0.55 0.14 0.17 0.27 0.15 0.14 0.08 0.04 0.03 0.06 0.09 0.05 0.04 0.04 0.01 0.01 0.03 0.03 0.02 0.03 0.02 0.06 0.03 0.01 0.02 0.04 0.08 0.04 0.03 0.02 0.06 0.06 0.04 0.11 0.24 0.18 0.24 0.18 0.21 0.32 0.24 0.42 0.44
0.72 0.40 0.56 0.31 0.12 0.15 0.16 0.08 0.04 0.06 0.07 0.04 0.03 0.02 0.01 0.00 0.02 0.02 0.01 0.02 0.02 0.10 0.03 0.01 0.01 0.03 0.06 0.03 0.00 0.01 0.01 0.06 0.07 0.08 0.18 0.26 0.32 0.22 0.22 0.23 0.24 0.40 0.47
1.63 0.97 0.87 0.94 0.30 0.22 0.19 0.12 0.06 0.02 0.01 0.02 0.01 0.00 0.00 0.00 0.00 0.01 0.01 0.01 0.03 0.13 0.06 0.02 0.02 0.05 0.03 0.02 0.01 0.01 0.01 0.03 0.06 0.09 0.16 0.16 0.15 0.34 0.34 0.23 0.21 0.28 0.33
0.41 0.57 0.75 1.19 0.97 0.80 0.62 0.22 0.12 0.08 0.05 0.01 0.02 0.01 0.01 0.01 0.01 0.02 0.01 0.01 0.05 0.12 0.04 0.03 0.05 0.05 0.02 0.00 0.01 0.00 0.01 0.03 0.06 0.07 0.08 0.10 0.16 0.38 0.42 0.22 0.21 0.23 0.36
0.35 0.31 0.76 1.18 1.33 0.83 0.99 0.67 0.43 0.38 0.15 0.07 0.12 0.05 0.02 0.01 0.02 0.04 0.02 0.02 0.09 0.13 0.04 0.05 0.05 0.04 0.02 0.00 0.00 0.00 0.00 0.02 0.02 0.02 0.10 0.17 0.45 0.74 0.37 0.26 0.17 0.16 0.24
1.14 0.91 1.64 2.05 1.48 1.03 0.94 1.15 2.03 1.84 1.25 0.95 0.61 0.38 0.17 0.08 0.03 0.04 0.04 0.04 0.10 0.13 0.06 0.06 0.03 0.04 0.01 0.00 0.00 0.00 0.00 0.00 0.02 0.00 0.06 0.38 0.43 0.89 1.06 0.31 0.20 0.22 0.19
2.76 2.23 2.19 3.00 2.30 1.62 1.11 1.35 2.01 3.37 3.88 3.31 2.24 1.19 0.99 0.80 0.47 0.28 0.15 0.11 0.15 0.18 0.11 0.05 0.03 0.02 0.00 0.00 0.00 0.00 0.00 0.01 0.01 0.00 0.15 0.53 1.17 0.88 1.15 0.89 0.24 0.23 0.22
5.81 6.52 4.51 4.60 5.14 3.94 2.54 1.23 1.44 2.02 3.26 3.27 3.27 2.91 2.55 2.12 1.24 0.88 0.39 0.21 0.17 0.16 0.05 0.04 0.02 0.02 0.00 0.00 0.00 0.00 0.00 0.00 0.00 0.03 0.09 0.38 0.88 0.53 0.37 0.38 0.20 0.14 0.11
6.86 10.03 10.33 6.89 6.24 5.55 6.19 3.90 1.57 1.49 1.63 2.01 2.02 1.97 2.43 2.82 1.88 1.28 0.77 0.46 0.40 0.31 0.07 0.02 0.02 0.01 0.00 0.00 0.00 0.00 0.00 0.00 0.00 0.01 0.02 0.06 0.08 0.18 0.29 0.27 0.23 0.16 0.13
7.50 6.57 6.82 5.47 4.74 4.34 4.46 5.05 3.43 2.25 1.87 1.67 1.54 1.38 1.41 1.98 1.94 1.32 0.80 0.57 0.55 0.29 0.02 0.01 0.01 0.00 0.00 0.00 0.00 0.00 0.00 0.00 0.00 0.00 0.00 0.01 0.06 0.13 0.30 0.30 0.20 0.18 0.18
3.50 3.96 3.54 2.44 1.70 1.94 2.04 2.49 3.05 2.99 2.39 2.41 2.61 1.73 1.30 1.20 1.72 1.33 0.92 0.57 0.51 0.33 0.07 0.01 0.00 0.00 0.00 0.00 0.00 0.00 0.00 0.00 0.00 0.00 0.00 0.01 0.04 0.08 0.11 0.21 0.20 0.13 0.17
2.08 1.80 1.28 0.80 0.43 0.47 0.60 0.75 1.23 1.99 2.35 2.08 3.39 2.24 1.83 1.00 1.11 1.02 1.08 0.68 0.47 0.26 0.06 0.02 0.00 0.00 0.00 0.00 0.00 0.00 0.00 0.00 0.00 0.00 0.00 0.02 0.01 0.01 0.01 0.02 0.05 0.13 0.20
0.85 0.81 0.74 0.52 0.30 0.33 0.26 0.30 0.46 1.09 1.92 2.15 2.27 2.06 2.06 1.11 1.26 1.03 1.11 0.87 0.54 0.28 0.03 0.02 0.00 0.00 0.00 0.00 0.00 0.00 0.00 0.00 0.00 0.00 0.00 0.01 0.01 0.01 0.01 0.01 0.00 0.01 0.08
0.45 0.47 0.32 0.35 0.36 0.51 0.36 0.25 0.29 0.70 1.49 1.70 1.32 1.09 1.46 0.95 0.91 0.90 0.68 0.63 0.34 0.09 0.00 0.00 0.00 0.00 0.00 0.00 0.00 0.00 0.00 0.00 0.00 0.00 0.00 0.00 0.01 0.01 0.00 0.00 0.00 0.00 0.02
0.30 0.41 0.39 0.18 0.25 0.23 0.23 0.24 0.22 0.57 0.80 1.09 0.96 0.37 0.96 0.62 0.35 0.61 0.48 0.45 0.13 0.01 0.00 0.00 0.00 0.00 0.00 0.00 0.00 0.00 0.00 0.00 0.00 0.00 0.00 0.00 0.00 0.01 0.00 0.00 0.00 0.00 0.00
0.26 0.39 0.47 0.41 0.35 0.30 0.23 0.31 0.30 0.45 0.81 0.73 0.88 0.36 0.23 0.31 0.36 0.36 0.34 0.24 0.08 0.00 0.00 0.00 0.00 0.00 0.00 0.00 0.00 0.00 0.00 0.00 0.00 0.00 0.00 0.00 0.00 0.00 0.00 0.00 0.00 0.00 0.00
0.07 0.22 0.62 1.02 0.50 0.34 0.28 0.31 0.34 0.25 0.44 0.66 0.78 0.53 0.22 0.11 0.18 0.14 0.24 0.17 0.05 0.00 0.00 0.00 0.00 0.00 0.00 0.00 0.00 0.00 0.00 0.00 0.00 0.00 0.00 0.00 0.00 0.00 0.00 0.00 0.00 0.00 0.00
0.04 0.12 0.66 1.27 0.93 0.48 0.27 0.32 0.37 0.47 0.43 0.53 0.59 0.55 0.29 0.20 0.16 0.14 0.19 0.22 0.09 0.01 0.00 0.00 0.00 0.00 0.00 0.00 0.00 0.00 0.00 0.00 0.00 0.00 0.00 0.00 0.00 0.00 0.00 0.00 0.00 0.00 0.00
0.04 0.17 0.50 0.80 1.08 0.97 0.76 0.71 0.56 0.47 0.52 0.48 0.40 0.44 0.30 0.24 0.24 0.15 0.22 0.19 0.19 0.07 0.01 0.00 0.00 0.00 0.00 0.00 0.00 0.00 0.00 0.00 0.00 0.00 0.00 0.00 0.00 0.00 0.00 0.00 0.00 0.00 0.00
0.08 0.32 0.58 0.72 1.21 1.58 0.87 0.35 0.41 0.64 0.53 0.47 0.30 0.34 0.42 0.29 0.39 0.30 0.28 0.22 0.10 0.05 0.01 0.00 0.00 0.00 0.00 0.00 0.00 0.00 0.00 0.00 0.00 0.00 0.00 0.00 0.00 0.00 0.00 0.00 0.00 0.00 0.00
0.18 0.42 0.64 1.00 0.97 0.47 0.23 0.14 0.26 0.46 0.59 0.52 0.38 0.28 0.44 0.49 0.45 0.60 0.53 0.48 0.24 0.04 0.01 0.01 0.01 0.00 0.00 0.00 0.00 0.00 0.00 0.00 0.00 0.00 0.00 0.00 0.00 0.00 0.00 0.00 0.00 0.00 0.00
0.44 0.44 0.33 0.15 0.13 0.04 0.06 0.08 0.11 0.20 0.41 0.40 0.34 0.17 0.30 0.41 0.61 0.48 0.46 0.63 0.50 0.15 0.03 0.02 0.02 0.02 0.03 0.02 0.01 0.00 0.01 0.01 0.00 0.00 0.00 0.00 0.00 0.00 0.00 0.00 0.00 0.00 0.00
0.05 0.02 0.06 0.08 0.14 0.05 0.04 0.05 0.09 0.27 0.42 0.33 0.38 0.23 0.21 0.26 0.38 0.48 0.50 0.50 0.33 0.19 0.07 0.02 0.01 0.00 0.01 0.03 0.03 0.04 0.12 0.12 0.07 0.01 0.00 0.01 0.02 0.01 0.01 0.01 0.01 0.01 0.00
0.02 0.03 0.06 0.12 0.15 0.05 0.02 0.02 0.04 0.13 0.23 0.24 0.21 0.18 0.14 0.18 0.26 0.35 0.43 0.48 0.42 0.23 0.17 0.09 0.05 0.04 0.07 0.11 0.11 0.11 0.17 0.19 0.21 0.18 0.05 0.01 0.02 0.02 0.02 0.01 0.03 0.05 0.05
0.04 0.07 0.08 0.12 0.16 0.08 0.02 0.07 0.14 0.16 0.19 0.23 0.19 0.14 0.10 0.11 0.16 0.21 0.29 0.39 0.38 0.23 0.20 0.17 0.15 0.20 0.28 0.36 0.31 0.22 0.17 0.24 0.29 0.23 0.18 0.11 0.04 0.03 0.03 0.04 0.05 0.08 0.14
0.05 0.08 0.10 0.13 0.19 0.10 0.07 0.08 0.14 0.18 0.16 0.15 0.11 0.10 0.06 0.08 0.12 0.13 0.21 0.22 0.32 0.33 0.34 0.37 0.51 0.46 0.39 0.48 0.51 0.45 0.24 0.23 0.26 0.24 0.17 0.11 0.17 0.12 0.08 0.14 0.20 0.15 0.15